     2              OBSERVATION DATA    GPS                 RINEX VERSION / TYPE
teqc 2000Feb29 Duncan Agnew 20010209 01:26:26UTC            PGM / RUN BY / DATE
                                                            COMMENT
L2: 1 -> 1; 150 -> 5; 250 -> 9                              COMMENT
L2: 1 -> 1; 150 -> 5; 250 -> 9                              COMMENT
L2: 1 -> 1; 150 -> 5; 250 -> 9                              COMMENT
L2: 1 -> 1; 150 -> 5; 250 -> 9                              COMMENT
L2: 1 -> 1; 150 -> 5; 250 -> 9                              COMMENT
Original Marker Name: BAGJ                                  COMMENT
Campaign Name: Post Hector surveys                          COMMENT
4-Character Station Name: BAGJ                              COMMENT
6-Character Antenna Code: DMRCHT                            COMMENT
Vertical Measurement Point: BCR                             COMMENT
Vertical Offset to Rinex Ref. Point: 0.0348                 COMMENT
Radial Measurement Point: ECF                               COMMENT
Radial Offset to Rinex Ref. Point: 0.1897                   COMMENT
Antenna Height from Field Measurement: 1.2765 m             COMMENT
Additional Antenna Identification Info.:                    COMMENT
Turborogue and Ashtech Choke Ring                           COMMENT
Original XYZ: 0.0000 0.0000 0.0000                          COMMENT
New XYZ position is based on association with SCEC monument COMMENT
E1F2K8J7+0011. Position of that monument is believed to be  COMMENT
valid to within 1 m horizontally; vertical accuracy         COMMENT
should be no worse than 3-times this value.                 COMMENT
                                                            COMMENT
Revised Rinex header created by UCSD GPS archive for        COMMENT
GSAC on 24-Feb-2001 (2001:055) 18:09:20 GMT                 COMMENT
For assistance contact dagnew@ucsd.edu                      COMMENT
or anderson@python.ucsd.edu                                 COMMENT
                                                            COMMENT
BAGJIO                                                      MARKER NAME
ZKS UNIV CALIF LOS ANGELES                                  OBSERVER / AGENCY
188 ASHTECH Z-XII3 CD00                                     REC # / TYPE / VERS
374 DORNE-MARGOL. TYPE T                                    ANT # / TYPE
 -2324418.2451 -4710582.4134  3606882.5535                  APPROX POSITION XYZ
        1.2275        0.0000        0.0000                  ANTENNA: DELTA H/E/N
     1     1     0                                          WAVELENGTH FACT L1/2
     7    C1    L1    L2    P1    P2    S1    S2            # / TYPES OF OBSERV
     0                                                      INTERVAL
  2001     2     5    21    13   30.000000                  TIME OF FIRST OBS
  2001     2     5    23    59    0.000000                  TIME OF LAST OBS
                                                            END OF HEADER
 01  2  5 21 13 30.0000000  0  2G 2G 7
  22396609.008      -34572.10649    -24462.67046  22396608.261    22396619.608
       235.000         184.000
                    -10106.22049     -7568.68843
       237.000          74.000
 01  2  5 21 14  0.0000000  0  2G 2G 7
  22394487.126      -45716.99149    -33147.04247  22394485.970    22394499.587
       229.000         188.000
                    -13212.50749      -831.59143
       235.000          74.000
 01  2  5 21 14 30.0000000  0  2G 2G 7
  22157701.984    -1290030.56349  -1002742.16346  22157702.422    22157714.190
       233.000         187.000
                  -1249647.88049   -963844.31843
       236.000          74.000
 01  2  5 21 15  0.0000000  0  2G 2G 7
  22167030.226    -1241012.28649   -964546.15346  22167028.486    22167042.735
       228.000         183.000
                  -1192913.71849   -919175.97043
       236.000          74.000
 01  2  5 21 15 30.0000000  0  2G 2G 7
  22176412.357    -1191708.78149   -926127.96246  22176412.949    22176424.894
       235.000         187.000
                  -1136057.86849   -869182.91745                  21683801.726
       236.000         160.000
 01  2  5 21 16  0.0000000  0  2G 2G 7
  22185849.102    -1142120.20749   -887487.59347  22185849.336    22185860.500
       235.000         189.000
  21694634.145    -1079081.87849   -824786.10247  21694633.458    21694644.751
       236.000         190.000
 01  2  5 21 16 30.0000000  0  2G 2G 7
  22195340.119    -1092245.77449   -848624.41446  22195339.206    22195351.072
       233.000         184.000
  21705499.051    -1021986.71949   -780296.43847  21705498.716    21705509.047
       235.000         193.000
 01  2  5 21 17  0.0000000  0  2G 2G 7
  22204884.792    -1042087.90849   -809540.46446  22204883.069    22204896.493
       224.000         180.000
  21716385.893     -964776.00749   -735716.72247  21716385.469    21716396.027
       235.000         193.000
 01  2  5 21 17 30.0000000  0  2G 2G 7
  22214484.009     -991643.39249   -770233.14346  22214484.283    22214495.925
       234.000         184.000
  21727295.108     -907448.05549   -691045.64747  21727294.797    21727305.390
       236.000         193.000
 01  2  5 21 18  0.0000000  0  2G 2G 7
  22224138.775     -940908.42749   -730699.49847  22224137.929    22224151.507
       230.000         188.000
  21738227.190     -850000.10149   -646281.06947  21738226.819    21738237.430
       235.000         193.000
 01  2  5 21 18 30.0000000  0  2G 2G 7
  22233847.802     -889887.56049   -690943.11747  22233848.177    22233859.849
       236.000         189.000
  21749180.824     -792438.46249   -601427.91147  21749180.186    21749191.432
       235.000         193.000
 01  2  5 21 19  0.0000000  0  3G 2G 7G24
  22243611.438     -838580.97749   -650963.95146  22243611.308    22243621.924
       231.000         182.000
  21760155.844     -734764.74949   -556487.42247  21760155.348    21760166.061
       235.000         193.000
  22103549.348    -1139961.63549   -859504.98246  22103549.321    22103562.676
       229.000         184.000
 01  2  5 21 19 30.0000000  0  3G 2G 7G24
  22253429.237     -786986.88149   -610760.88646  22253428.492    22253441.175
       229.000         177.000
  21771152.271     -676978.67549   -511459.37247  21771151.585    21771162.906
       235.000         194.000
  22086395.156    -1230115.20349   -929754.32246  22086393.698    22086408.111
       231.000         185.000
 01  2  5 21 20  0.0000000  0  3G 2G 7G24
  22263302.175     -735105.01749   -570333.51946  22263300.508    22263313.179
       228.000         177.000
  21782169.885     -619081.01649   -466344.38647  21782169.378    21782180.484
       235.000         194.000
  22069300.812    -1319944.15349   -999750.73946  22069300.491    22069313.870
       232.000         186.000
 01  2  5 21 20 30.0000000  0  3G 2G 7G24
  22273229.371     -682936.65349   -529682.93446  22273229.694    22273241.572
       234.000         180.000
  21793208.228     -561074.54449   -421144.60747  21793207.616    21793218.906
       235.000         194.000
  22052268.925    -1409447.41049  -1069493.35446  22052269.102    22052281.711
       232.000         186.000
 01  2  5 21 21  0.0000000  0  5G 4G 2G 7G24G 9
  20399858.396     -681613.25349   -519440.14047  20399858.462    20399867.986
       243.000         208.000
  22283897.686     -626876.24749   -485999.58447  22283898.108    22283910.582
       239.000         190.000
  21804953.177     -499354.89549   -373051.42747  21804952.675    21804963.503
       235.000         193.000
  22035985.471    -1495017.24649  -1136170.96846  22035985.035    22035998.355
       232.000         186.000
                   -651396.63749   -498670.43043
       241.000          74.000
 01  2  5 21 21 30.0000000  0  4G 2G 7G24G 9
  22294351.569     -571941.86249   -443193.70146  22294349.593    22294363.939
       224.000         187.000
  21816449.433     -438941.61049   -325976.19147  21816448.997    21816460.191
       234.000         193.000
  22019496.017    -1581669.45149  -1203692.00246  22019495.850    22019508.138
       233.000         186.000
                   -671477.43249   -324737.45343
       240.000          74.000
 01  2  5 21 22  0.0000000  0  4G 2G 7G24G 9
  22304685.915     -517634.00949   -400875.98046  22304686.167    22304697.868
       232.000         183.000
  21827791.961     -379336.69549   -279530.86147  21827791.524    21827802.645
       234.000         193.000
  22002895.960    -1668902.63349  -1271665.74246  22002895.772    22002908.048
       232.000         187.000
  21221535.898     -691908.19649   -340656.82747  21221535.687    21221545.391
       240.000         197.000
 01  2  5 21 22 30.0000000  0  4G 2G 7G24G 9
  22314978.473     -463547.10449   -358730.45546  22314977.263    22314990.549
       225.000         182.000
  21839057.636     -320135.51249   -233400.13047  21839057.245    21839068.304
       233.000         193.000
  21986263.126    -1756308.04949  -1339773.69946  21986263.077    21986274.762
       232.000         187.000
  21217658.768     -712282.49949   -356532.88847  21217658.381    21217668.263
       241.000         204.000
 01  2  5 21 23  0.0000000  0  4G 2G 7G24G 9
  22325274.925     -409438.12449   -316567.71946  22325274.354    22325286.399
       230.000         176.000
  21850292.466     -261096.41549   -187395.70347  21850291.788    21850302.845
       233.000         192.000
  21969644.167    -1843640.91649  -1407825.10946  21969642.253    21969655.012
       229.000         187.000
  21213838.721     -732356.67849   -372175.08847  21213838.425    21213848.412
       241.000         205.000
 01  2  5 21 23 30.0000000  0  4G 2G 7G24G 9
  22335598.582     -355187.89349   -274294.83746  22335598.727    22335610.236
       234.000         177.000
  21861518.890     -202101.45749   -141425.66247  21861518.626    21861529.645
       234.000         192.000
  21953062.079    -1930779.59849  -1475725.19046  21953060.462    21953072.870
       230.000         187.000
  21210098.561     -752011.11449   -387490.21247  21210098.304    21210108.196
       241.000         205.000
 01  2  5 21 24  0.0000000  0  4G 2G 7G24G 9
  22345962.876     -300724.57149   -231855.96046  22345962.582    22345975.643
       231.000         185.000
  21872750.354     -143079.99349    -95434.96547  21872749.990    21872760.589
       234.000         192.000
  21936531.021    -2017649.93149  -1543416.20047  21936530.506    21936542.977
       232.000         188.000
  21206452.218     -771172.92549   -402421.47347  21206452.169    21206461.671
       241.000         206.000
 01  2  5 21 24 30.0000000  0  3G 2G 7G 9
  22356375.387     -246006.62549   -189218.72046  22356375.393    22356388.361
       229.000         187.000
  21883994.554      -83991.73949    -49392.23147  21883994.186    21884005.364
       234.000         191.000
  21202907.542     -789800.44649   -416936.40447  21202907.333    21202917.136
       241.000         206.000
 01  2  5 21 25  0.0000000  0  2G 2G 7
  22366847.208     -190976.81649   -146338.47546  22366846.065    22366859.668
       222.000         182.000
  21895262.017      -24780.90449     -3253.96547  21895261.766    21895272.315
       233.000         190.000
 01  2  5 21 25 30.0000000  0  5G 2G 9G 7G 4G24
  22377367.530     -135690.93249   -103258.72046  22377366.142    22377380.267
       222.000         178.000
                    -42893.00549    -18408.63047                  21196155.080
       241.000         191.000
  21906542.054       34495.82449     42935.65047  21906541.247    21906553.199
       233.000         189.000
                    -47564.72149    -20739.45547                  20358932.022
       244.000         197.000
                   -105757.28649    -54484.60146                  21887330.164
       231.000         174.000
 01  2  5 21 26  0.0000000  0  5G 2G 9G 7G 4G24
  22387939.060      -80137.93249    -59970.73746  22387938.683    22387951.031
       228.000         178.000
  21192920.004      -59843.26249    -31616.60347  21192919.777    21192929.573
       241.000         203.000
  21917836.496       93848.30549     89184.28747  21917835.838    21917847.525
       233.000         189.000
  20354861.747      -68902.75449    -37366.43947  20354861.922    20354871.403
       244.000         208.000
  21871040.913     -191293.76149   -121136.24246  21871040.514    21871052.540
       233.000         186.000
 01  2  5 21 26 30.0000000  0  6G 2G 5G 9G 7G 4G24
  22398562.268      -24313.58549    -16471.32946  22398562.758    22398573.816
       234.000         179.000
  23527182.435    -1799890.20949  -1373419.96945  23527182.311    23527196.547
       214.000         151.000
  21189799.622      -76240.22749    -44393.43847  21189799.567    21189809.288
       241.000         205.000
  21929145.919      153279.61949    135494.34347  21929145.149    21929156.754
       232.000         189.000
  20350913.563      -89650.23749    -53533.25547  20350913.746    20350923.381
       243.000         210.000
  21854827.902     -276491.85549   -187524.22447  21854827.917    21854839.925
       233.000         188.000
 01  2  5 21 27  0.0000000  0  6G 2G 5G 9G 7G 4G24
  22409240.335       31798.32049     27252.25046  22409239.956    22409252.637
       231.000         180.000
  23510741.709    -1886288.89449  -1440743.43745  23510741.273    23510754.302
       213.000         155.000
  21186787.811      -92067.02849    -56725.99047  21186787.882    21186797.475
       241.000         206.000
  21940473.300      212805.06749    181877.76247  21940472.897    21940483.690
       233.000         188.000
  20347081.882     -109790.35649    -69226.80147  20347081.349    20347090.802
       244.000         211.000
  21838683.164     -361333.39049   -253634.33247  21838682.655    21838695.693
       233.000         189.000
 01  2  5 21 27 30.0000000  0  6G 2G 5G 9G 7G 4G24
  22419967.176       88168.56349     71176.95046  22419965.631    22419979.750
       221.000         178.000
  23494299.587    -1972693.67649  -1508071.65145  23494298.825    23494312.758
       214.000         156.000
  21183879.129     -107352.69449    -68636.87547  21183879.116    21183888.831
       241.000         206.000
  21951812.786      272394.04949    228310.69447  21951812.486    21951823.632
       233.000         189.000
  20343359.049     -129352.15049    -84469.70347  20343358.796    20343368.305
       244.000         211.000
  21822601.292     -445844.93649   -319487.32747  21822601.098    21822613.573
       234.000         190.000
 01  2  5 21 28  0.0000000  0  6G 2G 5G 9G 7G 4G24
  22430749.324      144829.99249    115328.59246  22430748.806    22430761.784
       227.000         179.000
  23477862.194    -2059070.48149  -1575378.05945  23477861.085    23477875.267
       214.000         157.000
  21181079.712     -122063.81349    -80100.06347  21181079.294    21181089.238
       241.000         206.000
  21963170.373      332078.32649    274817.87447  21963170.244    21963181.212
       233.000         189.000
  20339752.818     -148302.22349    -99235.94347  20339752.802    20339761.918
       244.000         211.000
  21806588.628     -529991.34349   -385055.80747  21806588.433    21806600.515
       234.000         190.000
 01  2  5 21 28 30.0000000  0  6G 2G 5G 9G 7G 4G24
  22441588.290      201788.54349    159711.79446  22441586.693    22441600.683
       225.000         178.000
  23461431.695    -2145412.16349  -1642657.09345  23461430.749    23461445.425
       214.000         157.000
  21178390.877     -136194.01749    -91110.59247  21178390.815    21178400.580
       241.000         206.000
  21974547.094      391862.90349    321403.20047  21974546.648    21974558.290
       233.000         190.000
  20336264.295     -166634.24249   -113520.58747  20336264.147    20336273.778
       244.000         211.000
  21790647.062     -613764.36749   -450333.32747  21790646.639    21790658.054
       234.000         190.000
 01  2  5 21 29  0.0000000  0  6G 2G 5G 9G 7G 4G24
  22452484.225      259046.51449    204328.27646  22452484.838    22452497.413
       234.000         184.000
  23445008.559    -2231715.56649  -1709906.31045  23445007.399    23445021.834
       214.000         157.000
  21175813.084     -149740.49149   -101666.25947  21175812.810    21175822.527
       241.000         206.000
  21985943.133      451748.84849    368067.51947  21985942.599    21985953.987
       233.000         189.000
  20332893.839     -184345.65249   -127321.63847  20332893.850    20332903.155
       244.000         211.000
  21774777.408     -697159.68049   -515316.51347  21774775.776    21774788.725
       232.000         191.000
 01  2  5 21 29 30.0000000  0  6G 2G 5G 9G 7G 4G24
  22463436.882      316601.33349    249176.08946  22463436.826    22463449.083
       232.000         187.000
  23428592.408    -2317982.26749  -1777126.91945  23428590.974    23428605.741
       214.000         157.000
  21173345.974     -162705.37049   -111768.74747  21173345.608    21173355.458
       240.000         206.000
  21997357.676      511732.60049    414808.05847  21997357.466    21997368.465
       233.000         188.000
  20329641.148     -201438.60249   -140640.78147  20329641.162    20329650.503
       244.000         211.000
  21758979.565     -780177.25249   -580005.36547  21758979.352    21758991.293
       234.000         191.000
 01  2  5 21 30  0.0000000  0  6G 2G 5G 9G 7G 4G24
  22474445.365      374450.75649    294253.47446  22474445.145    22474457.784
       232.000         183.000
  23412183.118    -2404213.11649  -1844319.58345  23412182.373    23412195.890
       215.000         157.000
  21170989.108     -175090.70249   -121419.63347  21170988.939    21170998.487
       241.000         206.000
  22008790.232      571810.85949    461622.23347  22008789.872    22008801.048
       232.000         188.000
  20326505.774     -217915.05049   -153479.53347  20326505.783    20326514.768
       244.000         211.000
  21743253.530     -862817.09649   -644399.87747  21743252.659    21743265.022
       233.000         191.000
 01  2  5 21 30 30.0000000  0  6G 2G 5G 9G 7G 4G24
  22485509.712      432593.35149    339559.28346  22485509.825    22485522.500
       231.000         184.000
  23395780.776    -2490408.42349  -1911484.55445  23395779.739    23395793.915
       215.000         158.000
  21168742.378     -186897.30549   -130619.56147  21168742.295    21168751.742
       240.000         206.000
  22020240.328      631981.45749    508508.35147  22020240.235    22020251.499
       233.000         189.000
  20323487.566     -233776.03449   -165838.70647  20323487.562    20323496.786
       244.000         212.000
  21727599.569     -945078.50049   -708499.48847  21727598.606    21727611.015
       234.000         192.000
 01  2  5 21 31  0.0000000  0  6G 2G 5G 9G 7G 4G24
  22496629.453      491027.59649    385092.35546  22496628.978    22496640.294
       229.000         178.000
  23379384.880    -2576568.90149  -1978622.38845  23379384.089    23379397.285
       216.000         158.000
  21166605.567     -198126.45149   -139369.52447  21166605.344    21166615.051
       241.000         206.000
  22031707.575      692241.55849    555464.21247  22031706.907    22031718.731
       232.000         189.000
  20320586.139     -249023.01349   -177719.43547  20320586.381    20320595.305
       244.000         212.000
  21712017.858    -1026960.39349   -772303.39647  21712017.283    21712029.424
       235.000         192.000
 01  2  5 21 31 30.0000000  0  6G 2G 5G 9G 7G 4G24
  22507804.697      549753.56149    430852.84746  22507802.902    22507815.216
       225.000         168.000
  23362995.755    -2662693.29849  -2045732.10445  23362994.705    23363007.274
       215.000         158.000
  21164578.688     -208777.67949   -147669.16147  21164578.417    21164588.010
       241.000         206.000
  22043191.622      752590.20649    602489.06547  22043191.236    22043202.740
       232.000         188.000
  20317801.680     -263655.58549   -189121.41247  20317801.818    20317810.854
       244.000         212.000
  21696508.759    -1108460.74849   -835810.00447  21696507.730    21696519.797
       234.000         192.000
 01  2  5 21 32  0.0000000  0  6G 2G 5G 9G 7G 4G24
  22519035.258      608771.05349    476840.36746  22519035.556    22519047.778
       223.000         170.000
  23346613.802    -2748780.42349  -2112812.76745  23346612.067    23346625.939
       214.000         159.000
  21162661.832     -218850.70549   -155518.24947  21162661.694    21162671.172
       241.000         206.000
  22054692.316      813026.42149    649582.15747  22054691.934    22054703.158
       232.000         188.000
  20315134.164     -277673.53449   -200044.45747  20315134.325    20315143.299
       244.000         212.000
  21681072.690    -1189577.21049   -899017.45947  21681072.106    21681083.817
       235.000         193.000
 01  2  5 21 32 30.0000000  0  6G 2G 5G 9G 7G 4G24
  22530321.336      668079.49949    523054.59146  22530321.723    22530334.231
       232.000         178.000
  23330238.954    -2834829.75649  -2179864.01545  23330238.062    23330251.361
       215.000         159.000
  21160855.016     -228345.66349   -162916.89647  21160854.965    21160864.607
       241.000         207.000
  22066209.328      873548.55849    696742.18947  22066209.031    22066220.300
       231.000         188.000
  20312583.487     -291077.32549   -210488.93847  20312583.241    20312592.607
       244.000         212.000
  21665710.016    -1270307.97349   -961924.38047  21665709.002    21665721.327
       234.000         193.000
 01  2  5 21 33  0.0000000  0  6G 2G 5G 9G 7G 4G24
  22541662.962      727678.33049    569495.17546  22541663.081    22541675.870
       235.000         184.000
  23313871.474    -2920840.43649  -2246885.11845  23313870.114    23313884.125
       215.000         159.000
  21159158.092     -237262.88149   -169865.35247  21159157.990    21159167.433
       241.000         207.000
  22077742.473      934155.43349    743968.25147  22077742.557    22077752.946
       232.000         188.000
  20310149.641     -303866.94249   -220454.84247  20310149.616    20310158.829
       244.000         212.000
  21650421.034    -1350651.48449  -1024529.53647  21650420.036    21650432.324
       234.000         193.000
 01  2  5 21 33 30.0000000  0  6G 2G 5G 9G 7G 4G24
  22553059.781      787568.21249    616162.50046  22553059.092    22553072.891
       228.000         183.000
  23297511.748    -3006810.45549  -2313874.54145  23297510.979    23297524.230
       217.000         159.000
  21157571.281     -245601.69649   -176363.10947  21157571.188    21157580.685
       241.000         207.000
  22089291.709      994846.46349    791259.89246  22089291.372    22089302.852
       232.000         187.000
  20307832.804     -316041.98449   -229941.86147  20307832.850    20307841.942
       244.000         212.000
  21635206.299    -1430604.95049  -1086830.77647  21635205.269    21635217.788
       234.000         193.000
 01  2  5 21 34  0.0000000  0  6G 2G 5G 9G 7G 4G24
  22564511.782      847748.72549    663056.25246  22564511.494    22564524.477
       230.000         181.000
  23281160.055    -3092739.21849  -2380831.81845  23281159.459    23281171.691
       218.000         160.000
  21156094.583     -253361.95449   -182410.04247  21156094.291    21156103.996
       241.000         207.000
  22100856.651     1055620.43049    838616.16146  22100856.136    22100867.712
       232.000         186.000
  20305632.880     -327602.44149   -238949.97847  20305632.733    20305641.993
       244.000         212.000
  21620066.215    -1510166.07549  -1148826.29747  21620065.810    21620077.868
       235.000         193.000
 01  2  5 21 34 30.0000000  0  6G 2G 5G 9G 7G 4G24
  22576019.293      908220.05449    710176.70246  22576018.877    22576030.177
       221.000         172.000
  23264816.440    -3178625.10849  -2447755.70345  23264815.403    23264827.712
       218.000         161.000
  21154728.101     -260542.99649   -188005.64047  21154727.957    21154737.307
       243.000         207.000
  22112437.363     1116477.02949    886036.82746  22112436.669    22112448.305
       231.000         186.000
  20303550.037     -338547.74349   -247478.75447  20303549.955    20303559.171
       244.000         212.000
  21605001.199    -1589332.70249  -1210514.41947  21605000.519    21605012.314
       236.000         194.000
 01  2  5 21 35  0.0000000  0  6G 2G 5G 9G 7G 4G24
  22587581.576      968982.48849    757523.95745  22587579.984    22587593.230
       214.000         154.000
  23248481.130    -3264466.90249  -2514645.20945  23248479.413    23248493.354
       217.000         161.000
  21153471.882     -267144.71349   -193149.81347  21153471.676    21153481.220
       242.000         207.000
  22124033.535     1177415.16549    933521.01546  22124032.971    22124044.390
       231.000         186.000
  20301584.215     -348877.97549   -255528.25147  20301584.006    20301593.347
       244.000         212.000
  21590011.809    -1668102.16749  -1271893.07247  21590010.657    21590023.009
       235.000         195.000
 01  2  5 21 35 30.0000000  0  6G 2G 5G 9G 7G 4G24
  22599199.879     1030036.54249    805098.46646  22599200.299    22599212.848
       229.000         165.000
  23232154.558    -3350262.45149  -2581498.70745  23232153.375    23232166.261
       218.000         161.000
  21152326.103     -273165.78649   -197841.54247  21152325.750    21152335.426
       241.000         207.000
  22135645.319     1238434.94849    981068.82346  22135644.112    22135656.142
       230.000         185.000
  20299735.635     -358592.03649   -263097.62447  20299735.725    20299744.913
       244.000         212.000
  21575098.580    -1746471.19849  -1332959.70347  21575098.110    21575109.719
       236.000         195.000
 01  2  5 21 36  0.0000000  0  6G 2G 5G 9G 7G 4G24
  22610873.556     1091380.22949    852898.67846  22610873.558    22610886.105
       229.000         172.000
  23215836.878    -3436012.43349  -2648316.68545  23215836.301    23215849.348
       218.000         161.000
  21151290.494     -278607.86049   -202082.10747  21151290.326    21151299.724
       242.000         206.000
  22147272.037     1299533.41749   1028677.95346  22147271.803    22147282.981
       230.000         185.000
  20298004.008     -367691.84949   -270188.35347  20298004.244    20298013.112
       245.000         212.000
  21560261.538    -1824439.76349  -1393714.29047  21560260.992    21560272.721
       235.000         195.000
 01  2  5 21 36 30.0000000  0  6G 2G 5G 9G 7G 4G24
  22622602.326     1153014.51249    900925.29446  22622602.158    22622615.503
       231.000         178.000
  23199528.229    -3521714.55949  -2715097.39645  23199527.501    23199540.582
       217.000         162.000
  21150365.219     -283470.04249   -205870.80347  21150365.047    21150374.489
       242.000         206.000
  22158913.779     1360710.68849   1076348.48746  22158913.134    22158924.927
       231.000         185.000
  20296389.444     -376176.63149   -276799.84047  20296389.682    20296398.549
       245.000         212.000
  21545501.199    -1902005.44649  -1454154.93847  21545500.171    21545512.557
       236.000         196.000
 01  2  5 21 37  0.0000000  0  6G 2G 5G 9G 7G 4G24
  22634386.565     1214939.35749    949178.31646  22634386.880    22634400.290
       231.000         186.000
  23183228.887    -3607367.47949  -2781839.74545  23183228.025    23183241.890
       216.000         162.000
  21149550.378     -287752.19249   -209207.53347  21149550.031    21149559.689
       242.000         206.000
  22170570.376     1421965.93649   1124079.77346  22170570.054    22170581.117
       231.000         185.000
  20294891.934     -384046.18949   -282931.93447  20294891.949    20294901.097
       245.000         212.000
  21530818.239    -1979165.09249  -1514279.21847  21530817.295    21530829.436
       236.000         196.000
 01  2  5 21 37 30.0000000  0  6G 2G 5G 9G 7G 4G24
  22646225.894     1277154.60549    997657.59646  22646222.956    22646238.908
       211.000         179.000
  23166939.122    -3692970.03949  -2848542.84745  23166937.753    23166950.528
       220.000         162.000
  21148845.896     -291454.38149   -212092.34447  21148845.669    21148855.241
       242.000         206.000
  22182241.637     1483298.22749   1171871.10046  22182240.974    22182252.818
       231.000         185.000
  20293511.413     -391300.68349   -288584.75547  20293511.524    20293520.561
       244.000         212.000
  21516212.752    -2055916.79949  -1574085.61847  21516211.946    21516223.617
       236.000         196.000
 01  2  5 21 38  0.0000000  0  6G 2G 5G 9G 7G 4G24
  22658119.922     1339661.72049   1046364.15846  22658119.680    22658133.435
       215.000         165.000
  23150659.453    -3778519.76949  -2915204.80045  23150658.243    23150671.288
       218.000         162.000
  21148252.014     -294575.16549   -214524.11947  21148251.750    21148261.325
       242.000         206.000
  22193927.602     1544708.09649   1219722.88146  22193927.304    22193938.602
       231.000         184.000
  20292248.255     -397938.72249   -293757.22947  20292248.169    20292257.399
       244.000         212.000
  21501685.454    -2132257.32449  -1633571.62647  21501684.693    21501696.615
       236.000         196.000
 01  2  5 21 38 30.0000000  0  6G 2G 5G 9G 7G 4G24
  22670070.122     1402459.40149   1095297.37945  22670070.277    22670081.751
       226.000         162.000
  23134389.970    -3864015.86949  -2981824.95646  23134388.656    23134401.308
       217.000         163.000
  21147768.672     -297115.20249   -216503.36147  21147768.544    21147778.179
       242.000         206.000
  22205628.049     1606193.83349   1267633.78446  22205627.604    22205639.072
       230.000         183.000
  20291102.163     -403961.23649   -298450.06847  20291102.182    20291111.192
       244.000         212.000
  21487236.741    -2208184.81949  -1692735.79947  21487235.686    21487247.876
       235.000         196.000
 01  2  5 21 39  0.0000000  0  6G 2G 5G 9G 7G 4G24
  22682075.549     1465546.42449   1144456.08946  22682075.976    22682087.774
       230.000         164.000
  23118130.749    -3949458.23849  -3048403.26246  23118129.172    23118142.618
       220.000         163.000
  21147395.604     -299075.76849   -218031.06947  21147395.363    21147404.998
       242.000         207.000
  22217342.477     1667753.44249   1315602.24846  22217342.084    22217353.239
       230.000         183.000
  20290072.999     -409369.55049   -302664.31447  20290072.905    20290081.887
       245.000         212.000
  21472866.752    -2283698.92449  -1751577.85647  21472866.394    21472877.893
       236.000         196.000
 01  2  5 21 39 30.0000000  0  6G 2G 5G 9G 7G 4G24
  22694135.883     1528922.69449   1193840.14646  22694136.027    22694148.978
       231.000         172.000
  23101881.960    -4034845.41349  -3114938.54646  23101880.841    23101893.055
       219.000         163.000
  21147132.866     -300456.66249   -219107.08647  21147132.715    21147142.133
       242.000         207.000
  22229070.830     1729386.16549   1363627.67346  22229070.115    22229082.446
       229.000         183.000
  20289160.674     -414163.76949   -306400.04647  20289160.696    20289169.555
       244.000         212.000
  21458576.004    -2358797.18449  -1810095.88247  21458575.587    21458586.894
       237.000         197.000
 01  2  5 21 40  0.0000000  0  6G 2G 5G 9G 7G 4G24
  22706251.406     1592588.85149   1243450.04846  22706251.269    22706264.527
       228.000         178.000
  23085644.088    -4120175.46649  -3181429.32046  23085642.882    23085655.556
       220.000         164.000
  21146980.622     -301256.92449   -219730.66247  21146980.300    21146989.854
       242.000         207.000
  22240813.142     1791092.06449   1411710.11446  22240812.896    22240824.638
       231.000         183.000
  20288365.349     -418343.16749   -309656.70447  20288365.287    20288374.405
       244.000         212.000
  21444365.055    -2433476.36949  -1868287.36347  21444364.316    21444375.845
       237.000         197.000
 01  2  5 21 40 30.0000000  0  6G 2G 5G 9G 7G 4G24
  22718421.803     1656544.28349   1293285.31746  22718420.625    22718435.199
       222.000         178.000
  23069417.337    -4205447.36649  -3247874.78446  23069415.806    23069429.144
       219.000         164.000
  21146938.697     -301477.19049   -219902.29647  21146938.359    21146947.988
       242.000         207.000
  22252569.200     1852869.83249   1459848.56946  22252568.567    22252580.453
       229.000         183.000
  20287686.866     -421908.50249   -312434.86747  20287686.857    20287695.835
       245.000         212.000
  21430234.100    -2507734.94149  -1926151.07947  21430233.898    21430244.869
       238.000         197.000
 01  2  5 21 41  0.0000000  0  6G 2G 5G 9G 7G 4G24
  22730647.043     1720789.38049   1343346.24946  22730644.812    22730660.368
       212.000         170.000
  23053201.920    -4290659.37549  -3314273.57146  23053200.691    23053214.067
       218.000         165.000
  21147007.208     -301117.36049   -219621.91447  21147006.892    21147016.395
       242.000         207.000
  22264338.691     1914719.04049   1508042.68046  22264338.509    22264349.600
       230.000         183.000
  20287125.299     -424859.53649   -314734.35647  20287125.345    20287134.296
       245.000         212.000
  21416183.574    -2581570.66649  -1983685.31347  21416182.565    21416194.403
       236.000         197.000
 01  2  5 21 41 30.0000000  0  6G 2G 5G 9G 7G 4G24
  22742927.734     1785325.17849   1393633.71946  22742927.849    22742940.962
       226.000         171.000
  23036998.414    -4375808.73349  -3380623.54646  23036997.059    23037009.586
       219.000         165.000
  21147186.363     -300175.95649   -218888.35047  21147186.168    21147195.594
       242.000         207.000
  22276122.030     1976640.30449   1556292.94146  22276121.252    22276132.535
       229.000         183.000
  20286680.844     -427195.17749   -316554.32047  20286680.993    20286689.781
       245.000         212.000
  21402214.103    -2654979.96149  -2040887.27047  21402214.006    21402224.894
       238.000         198.000
 01  2  5 21 42  0.0000000  0  6G 2G 5G 9G 7G 4G24
  22755263.658     1850149.27549   1444145.92046  22755264.098    22755276.776
       232.000         178.000
  23020806.700    -4460896.19849  -3446925.29146  23020805.568    23020818.049
       220.000         165.000
  21147475.745     -298655.25149   -217703.39247  21147475.617    21147484.973
       242.000         207.000
  22287918.450     2038630.56549   1604596.95646  22287917.786    22287929.611
       229.000         182.000
  20286353.054     -428917.72549   -317896.55047  20286353.230    20286362.050
       245.000         212.000
  21388325.824    -2727963.33849  -2097757.33847  21388325.191    21388336.798
       237.000         198.000
 01  2  5 21 42 30.0000000  0  6G 2G 5G 9G 7G 4G24
  22767654.390     1915261.67749   1494882.78946  22767653.981    22767666.081
       228.000         175.000
  23004626.912    -4545920.49149  -3513177.81946  23004626.189    23004638.481
       220.000         165.000
  21147875.381     -296555.41149   -216067.15747  21147875.211    21147884.549
       242.000         207.000
  22299727.844     2100689.24749   1652954.30046  22299727.300    22299738.513
       230.000         182.000
  20286141.900     -430027.59149   -318761.36848  20286142.026    20286150.799
       245.000         213.000
  21374519.077    -2800518.17749  -2154293.47047  21374518.399    21374529.867
       238.000         198.000
 01  2  5 21 43  0.0000000  0  6G 2G 5G 9G 7G 4G24
  22780100.012     1980663.65549   1545845.26046  22780099.925    22780111.579
       224.000         169.000
  22988459.690    -4630878.67149  -3579378.80646  22988458.172    22988472.092
       220.000         166.000
  21148385.457     -293874.94249   -213978.48547  21148385.248    21148394.841
       243.000         207.000
  22311550.467     2162817.12949   1701365.56246  22311550.005    22311561.784
       230.000         181.000
  20286047.562     -430523.49449   -319147.77148  20286047.502    20286056.416
       245.000         213.000
  21360794.509    -2872640.99949  -2210492.97747  21360793.960    21360804.999
       238.000         199.000
 01  2  5 21 43 30.0000000  0  6G 2G 5G 9G 7G 4G24
  22792600.634     2046354.69749   1597032.97346  22792600.191    22792612.688
       223.000         167.000
  22972305.368    -4715769.64049  -3645527.46046  22972303.975    22972316.414
       221.000         166.000
  21149005.910     -290614.58749   -211437.96147  21149005.728    21149015.231
       242.000         207.000
  22323385.985     2225012.87449   1749829.70246  22323385.032    22323397.395
       230.000         181.000
  20286069.893     -430406.15249   -319056.32548  20286069.896    20286078.901
       245.000         213.000
  21347152.364    -2944330.41449  -2266354.76447  21347152.024    21347162.836
       238.000         199.000
 01  2  5 21 44  0.0000000  0  6G 2G 5G 9G 7G 4G24
  22805156.253     2112334.21249   1648445.46846  22805155.979    22805169.690
       226.000         171.000
  22956164.124    -4800592.18249  -3711622.76946  22956161.860    22956175.887
       220.000         167.000
  21149736.698     -286774.42749   -208445.63547  21149736.442    21149746.055
       242.000         207.000
  22335234.318     2287275.80549   1798346.20446  22335233.640    22335245.858
       230.000         181.000
  20286208.753     -429676.12649   -318487.45248  20286208.940    20286217.808
       245.000         213.000
  21333593.185    -3015584.31349  -2321877.18547  21333592.741    21333603.761
       238.000         200.000
 01  2  5 21 44 30.0000000  0  6G 2G 5G 9G 7G 4G24
  22817766.574     2178601.38849   1700082.11346  22817766.209    22817780.181
       223.000         173.000
  22940035.895    -4885345.58249  -3777664.23146  22940034.405    22940047.807
       221.000         167.000
  21150577.599     -282355.53349   -205002.35047  21150577.270    21150586.941
       242.000         207.000
  22347095.093     2349604.33549   1846913.80946  22347094.448    22347106.000
       229.000         182.000
  20286464.035     -428334.67949   -317442.14948  20286464.063    20286473.231
       245.000         213.000
  21320117.056    -3086401.61049  -2377059.39047  21320116.171    21320127.895
       239.000         200.000
 01  2  5 21 45  0.0000000  0  6G 2G 5G 9G 7G 4G24
  22830431.522     2245156.66949   1751943.17546  22830430.612    22830445.828
       216.000         171.000
  22923921.275    -4970027.76049  -3843650.19546  22923920.170    22923932.227
       221.000         168.000
  21151528.650     -277357.52249   -201107.80747  21151528.272    21151537.891
       243.000         207.000
  22358968.318     2411998.30249   1895532.40146  22358967.639    22358980.233
       228.000         181.000
  20286835.710     -426381.47449   -315920.15048  20286835.566    20286844.702
       245.000         213.000
  21306724.442    -3156779.91649  -2431899.53047  21306723.752    21306734.901
       240.000         200.000
 01  2  5 21 45 30.0000000  0  6G 2G 5G 9G 7G 4G24
  22843151.580     2312001.03549   1804029.50946  22843151.136    22843164.997
       224.000         172.000
  22907820.739    -5054635.98849  -3909578.53346  22907819.367    22907832.398
       222.000         168.000
  21152590.167     -271779.26749   -196761.12747  21152590.077    21152599.311
       242.000         207.000
  22370854.086     2474458.38349   1944202.50046  22370853.840    22370865.588
       228.000         180.000
  20287323.909     -423815.59549   -313920.74348  20287323.898    20287333.007
       245.000         213.000
  21293416.033    -3226715.64749  -2486394.80847  21293415.275    21293426.198
       240.000         200.000
 01  2  5 21 46  0.0000000  0  6G 2G 5G 9G 7G 4G24
  22855926.354     2379131.50849   1856338.86046  22855927.091    22855938.979
       229.000         175.000
  22891734.161    -5139171.25549  -3975450.02146  22891732.713    22891745.503
       222.000         168.000
  21153761.486     -265623.77149   -191964.64447  21153761.216    21153770.830
       242.000         207.000
  22382751.883     2536981.26149   1992921.53946  22382751.613    22382763.784
       228.000         180.000
  20287928.107     -420640.24749   -311446.41848  20287928.130    20287937.028
       245.000         213.000
  21280191.710    -3296209.38449  -2540545.67847  21280191.100    21280202.305
       239.000         201.000
 01  2  5 21 46 30.0000000  0  6G 2G 5G 9G 7G 4G24
  22868755.665     2446548.58849   1908871.56446  22868755.840    22868769.497
       226.000         174.000
  22875661.775    -5223631.54449  -4041263.09346  22875660.660    22875673.502
       219.000         169.000
  21155042.704     -258890.90749   -186718.26847  21155042.619    21155052.058
       242.000         207.000
  22394661.543     2599566.82549   2041689.43846  22394660.689    22394672.447
       228.000         180.000
  20288648.396     -416855.23149   -308497.02448  20288648.501    20288657.288
       245.000         213.000
  21267051.951    -3365258.85649  -2594350.36047  21267051.617    21267062.780
       240.000         201.000
 01  2  5 21 47  0.0000000  0  6G 2G 5G 9G 7G 4G24
  22881639.416     2514252.60949   1961627.79846  22881638.371    22881652.409
       221.000         173.000
  22859604.029    -5308014.96049  -4107016.26046  22859603.026    22859615.495
       223.000         169.000
  21156433.839     -251580.36749   -181021.75547  21156433.596    21156443.103
       242.000         207.000
  22406583.098     2662214.85349   2090505.99446  22406581.996    22406594.279
       227.000         179.000
  20289484.647     -412460.71649   -305072.70148  20289484.742    20289493.502
       245.000         213.000
  21253997.161    -3433861.64549  -2647806.98247  21253996.434    21254007.959
       241.000         201.000
 01  2  5 21 47 30.0000000  0  6G 2G 5G 9G 7G 4G24
  22894577.775     2582244.10549   2014608.01246  22894576.874    22894591.446
       218.000         170.000
  22843561.328    -5392319.30749  -4172707.83746  22843560.562    22843572.499
       223.000         169.000
  21157935.006     -243691.71949   -174874.76847  21157934.657    21157944.343
       242.000         207.000
  22418516.576     2724925.45049   2139371.31346  22418516.374    22418527.667
       228.000         178.000
  20290436.913     -407456.46549   -301173.25448  20290436.823    20290445.882
       245.000         213.000
  21241027.973    -3502014.85949  -2700913.28147  21241027.203    21241038.780
       239.000         201.000
 01  2  5 21 48  0.0000000  0  6G 2G 5G 9G 7G 4G24
  22907570.592     2650522.04149   2067811.44746  22907570.119    22907584.479
       216.000         164.000
  22827533.775    -5476543.81949  -4238337.19646  22827532.938    22827545.592
       224.000         170.000
  21159545.966     -235226.12749   -168278.21447  21159546.011    21159555.433
       242.000         207.000
  22430461.752     2787697.25649   2188284.33946  22430461.575    22430473.173
       228.000         178.000
  20291504.995     -401843.56349   -296799.53048  20291504.834    20291513.876
       245.000         213.000
  21228144.550    -3569717.13549  -2753668.20647  21228144.162    21228155.093
       240.000         201.000
 01  2  5 21 48 30.0000000  0  6G 2G 5G 9G 7G 4G24
  22920617.992     2719086.87249   2121238.45845  22920617.027    22920631.387
       213.000         155.000
  22811522.027    -5560685.87349  -4303902.29546  22811521.262    22811533.436
       224.000         170.000
  21161266.841     -226182.88249   -161231.53947  21161266.640    21161276.085
       242.000         207.000
  22442418.619     2850530.48649   2237245.23346  22442418.377    22442430.336
       228.000         178.000
  20292688.917     -395621.76149   -291951.34448  20292688.984    20292697.860
       244.000         213.000
  21215347.334    -3636966.46949  -2806070.18347  21215346.711    21215358.094
       241.000         201.000
 01  2  5 21 49  0.0000000  0  6G 2G 5G 9G 7G 4G24
  22933719.855     2787936.91849   2174887.75245  22933720.146    22933733.291
       220.000         155.000
  22795525.970    -5644745.40949  -4369403.09646  22795524.906    22795537.012
       224.000         170.000
  21163097.239     -216564.17949   -153736.45047  21163096.933    21163106.334
       242.000         207.000
  22454386.713     2913423.05049   2286252.33646  22454386.392    22454398.255
       226.000         177.000
  20293988.368     -388793.19649   -286630.35648  20293988.374    20293997.261
       244.000         213.000
  21202636.506    -3703761.95649  -2858118.52147  21202636.021    21202647.240
       240.000         202.000
 01  2  5 21 49 30.0000000  0  6G 2G 5G 9G 7G 4G24
  22946875.994     2857071.58349   2228758.79846  22946876.088    22946889.678
       226.000         167.000
  22779545.755    -5728721.16649  -4434838.63346  22779544.739    22779556.683
       224.000         170.000
  21165037.039     -206370.53049   -145793.35347  21165036.860    21165046.671
       242.000         207.000
  22466365.946     2976374.20449   2335305.09246  22466365.049    22466376.781
       227.000         177.000
  20295403.076     -381358.72149   -280837.22848  20295403.245    20295411.934
       245.000         213.000
  21190012.362    -3770101.67049  -2909811.71147  21190011.790    21190022.771
       240.000         202.000
 01  2  5 21 50  0.0000000  0  6G 2G 5G 9G 7G 4G24
  22960086.329     2926491.21049   2282851.87846  22960086.383    22960100.231
       227.000         175.000
  22763582.013    -5812610.91049  -4500207.14746  22763580.461    22763592.518
       223.000         171.000
  21167086.288     -195601.66749   -137402.03847  21167086.031    21167095.765
       241.000         207.000
  22478356.410     3039383.94549   2384403.50446  22478355.938    22478368.164
       227.000         178.000
  20296933.157     -373318.19649   -274571.85848  20296933.146    20296942.025
       245.000         213.000
  21177475.423    -3835983.32849  -2961147.96747  21177475.039    21177485.784
       240.000         202.000
 01  2  5 21 50 30.0000000  0  6G 2G 5G 9G 7G 4G24
  22973350.918     2996196.04149   2337167.19046  22973350.910    22973365.154
       225.000         177.000
  22747634.867    -5896412.53249  -4565506.99846  22747634.171    22747645.699
       224.000         171.000
  21169244.979     -184257.66649   -128562.56847  21169244.567    21169254.369
       241.000         206.000
  22490357.892     3102452.08649   2433547.41346  22490357.889    22490369.740
       228.000         179.000
  20298578.453     -364672.05849   -267834.58848  20298578.437    20298587.275
       244.000         213.000
  21165026.097    -3901404.80449  -3012125.65447  21165025.708    21165036.303
       240.000         202.000
 01  2  5 21 51  0.0000000  0  6G 2G 5G 9G 7G 4G24
  22986669.418     3066184.49749   2391703.49846  22986669.850    22986683.390
       221.000         174.000
  22731704.706    -5980125.72149  -4630737.94346  22731704.279    22731715.876
       224.000         171.000
  21171512.748     -172340.42249   -119276.40847  21171512.497    21171522.295
       241.000         207.000
  22502370.188     3165576.91849   2482735.50146  22502369.854    22502381.461
       227.000         179.000
  20300338.573     -355422.10349   -260626.81048  20300338.488    20300347.569
       244.000         213.000
  21152664.420    -3966365.75749  -3062744.47747  21152663.676    21152674.960
       241.000         202.000
 01  2  5 21 51 30.0000000  0  6G 2G 5G 9G 7G 4G24
  23000041.902     3136457.44749   2446461.49346  23000040.054    23000055.838
       214.000         166.000
  22715791.929    -6063747.79449  -4695897.87346  22715790.635    22715803.535
       224.000         171.000
  21173889.761     -159849.06449   -109542.88547  21173889.551    21173899.183
       242.000         207.000
  22514393.433     3228758.97449   2531968.17746  22514392.820    22514405.010
       227.000         178.000
  20302213.718     -345567.77049   -252948.08648  20302213.570    20302222.819
       244.000         213.000
  21140390.963    -4030862.74849  -3113001.77847  21140390.352    21140401.738
       240.000         202.000
 01  2  5 21 52  0.0000000  0  6G 2G 5G 9G 7G 4G24
  23013468.198     3207013.76249   2501440.27045  23013467.938    23013483.685
       212.000         157.000
  22699896.613    -6147277.81049  -4760986.07746  22699895.040    22699907.891
       225.000         172.000
  21176375.836     -146784.70049    -99362.86747  21176375.580    21176385.258
       242.000         206.000
  22526427.334     3291996.89349   2581244.39746  22526426.579    22526439.190
       227.000         178.000
  20304203.581     -335110.88849   -244799.85648  20304203.652    20304212.435
       245.000         213.000
  21128205.983    -4094894.98649  -3162896.93647  21128205.438    21128216.484
       240.000         203.000
 01  2  5 21 52 30.0000000  0  6G 2G 5G 9G 7G 4G24
  23026948.552     3277853.47349   2556639.90445  23026948.435    23026961.743
       217.000         152.000
  22684019.228    -6230713.88949  -4826001.09046  22684018.511    22684030.289
       225.000         172.000
  21178970.856     -133147.85149    -88736.75847  21178970.494    21178980.377
       242.000         206.000
  22538471.825     3355290.53249   2630564.03246  22538471.341    22538483.162
       228.000         177.000
  20306308.090     -324051.40649   -236182.06648  20306308.045    20306317.135
       245.000         213.000
  21116109.888    -4158459.81249  -3212427.87747  21116109.262    21116120.266
       240.000         203.000
 01  2  5 21 53  0.0000000  0  6G 2G 5G 9G 7G 4G24
  23040482.902     3348975.79949   2612059.81845  23040483.525    23040495.187
       222.000         153.000
  22668159.941    -6314054.67649  -4890941.85246  22668159.550    22668171.214
       224.000         172.000
  21181674.607     -118939.52949    -77665.34947  21181674.412    21181684.010
       242.000         206.000
  22550526.663     3418638.89449   2679926.31946  22550526.595    22550538.636
       226.000         176.000
  20308527.052     -312390.91649   -227095.96548  20308527.109    20308536.073
       245.000         213.000
  21104103.009    -4221556.13349  -3261593.75247  21104102.394    21104113.058
       239.000         203.000
 01  2  5 21 53 30.0000000  0  6G 2G 5G 9G 7G 4G24
  23054070.956     3420380.18849   2667699.51945  23054070.809    23054084.636
       224.000         157.000
  22652318.951    -6397298.74749  -4955807.23846  22652317.857    22652329.349
       223.000         172.000
  21184487.005     -104160.42349    -66149.16847  21184486.705    21184496.470
       242.000         206.000
  22562591.764     3482041.28649   2729330.68646  22562591.233    22562603.480
       224.000         175.000
  20310860.228     -300130.09649   -217542.07948  20310860.364    20310869.479
       245.000         213.000
  21092185.493    -4284182.32849  -3310393.29047  21092184.924    21092196.003
       239.000         203.000
 01  2  5 21 54  0.0000000  0  6G 2G 5G 9G 7G 4G24
  23067712.545     3492066.42849   2723558.80845  23067712.505    23067727.184
       223.000         162.000
  22636496.691    -6480444.39049  -5020595.93646  22636495.830    22636508.475
       224.000         173.000
  21187407.893      -88811.03249    -54188.60847  21187407.613    21187417.470
       242.000         206.000
  22574667.054     3545497.23049   2778776.79546  22574666.633    22574679.002
       224.000         174.000
  20313307.458     -287269.94349   -207521.17848  20313307.540    20313316.677
       245.000         213.000
  21080357.786    -4346336.87749  -3358825.31447  21080357.332    21080368.080
       239.000         203.000
 01  2  5 21 54 30.0000000  0  6G 2G 5G 9G 7G 4G24
  23081407.887     3564035.30249   2779638.31746  23081408.074    23081422.316
       223.000         165.000
  22620693.703    -6563489.04949  -5085305.94646  22620692.391    22620705.062
       224.000         173.000
  21190437.430      -72890.88349    -41783.30947  21190437.286    21190446.905
       242.000         206.000
  22586752.657     3609007.46449   2828265.20046  22586751.807    22586764.563
       226.000         175.000
  20315868.834     -273809.87449   -197032.81248  20315868.787    20315877.935
       245.000         213.000
  21068620.415    -4408016.74749  -3406887.45747  21068620.188    21068630.618
       240.000         204.000
 01  2  5 21 55  0.0000000  0  6G 2G 5G 9G 7G 4G24
  23095156.544     3636284.34849   2835936.12646  23095156.706    23095170.575
       220.000         166.000
  22604909.957    -6646432.95149  -5149937.43546  22604909.217    22604921.345
       225.000         173.000
  21193575.069      -56402.46649    -28935.20347  21193574.943    21193584.390
       241.000         206.000
  22598848.160     3672569.39349   2877793.90046  22598847.983    22598859.419
       227.000         175.000
  20318543.717     -259753.03849   -186079.43448  20318543.985    20318552.847
       245.000         213.000
  21056973.393    -4469222.28749  -3454579.99347  21056972.861    21056983.326
       240.000         204.000
 01  2  5 21 55 30.0000000  0  6G 2G 5G 9G 7G 4G24
  23108958.515     3708813.95649   2892452.53746  23108957.951    23108972.062
       215.000         165.000
  22589145.880    -6729273.38049  -5214488.30346  22589144.691    22589156.774
       224.000         174.000
  21196820.827      -39345.97349    -15644.43947  21196820.497    21196829.816
       240.000         206.000
  22610953.577     3736183.25549   2927363.07346  22610953.573    22610965.918
       226.000         175.000
  20321332.185     -245099.59249   -174661.16648  20321332.174    20321341.455
       245.000         213.000
  21045417.148    -4529950.87149  -3501900.87347  21045416.791    21045427.297
       240.000         204.000
 01  2  5 21 56  0.0000000  0  6G 2G 5G 9G 7G 4G24
  23122813.729     3781623.56249   2949187.12246  23122813.429    23122827.374
       215.000         165.000
  22573401.762    -6812008.87249  -5278957.39846  22573401.030    22573412.522
       225.000         174.000
  21200174.503      -21722.22149     -1911.65647  21200174.275    21200183.854
       241.000         206.000
  22623068.732     3799848.48049   2976972.26146  22623068.635    22623080.752
       225.000         175.000
  20324233.971     -229850.43049   -162778.70548  20324234.165    20324243.346
       245.000         214.000
  21033951.823    -4590201.26349  -3548849.13447  21033951.019    21033962.035
       240.000         204.000
 01  2  5 21 56 30.0000000  0  6G 2G 5G 9G 7G 4G24
  23136722.305     3854713.35049   3006140.04446  23136722.420    23136736.421
       219.000         165.000
  22557678.146    -6894636.95749  -5343342.80446  22557677.635    22557689.015
       225.000         175.000
  21203636.041       -3531.61449     12262.83447  21203635.858    21203645.522
       241.000         206.000
  22635193.655     3863565.02149   3026621.43946  22635193.412    22635205.490
       225.000         175.000
  20327249.083     -214005.86649   -150432.28748  20327249.088    20327258.441
       244.000         213.000
  21022577.890    -4649971.40649  -3595423.17847  21022577.253    21022588.102
       240.000         204.000
 01  2  5 21 57  0.0000000  0  6G 2G 5G 9G 7G 4G24
  23150683.910     3928081.24849   3063309.70046  23150683.755    23150698.411
       220.000         167.000
  22541974.947    -6977157.54449  -5407644.44146  22541973.696    22541985.311
       226.000         175.000
  21207205.067       15223.70549     26877.36147  21207204.948    21207214.624
       241.000         206.000
  22647327.962     3927330.99249   3076309.12446  22647328.111    22647340.069
       225.000         175.000
  20330377.010     -197568.63949   -137624.06248  20330377.333    20330386.390
       244.000         213.000
  21011295.330    -4709260.86849  -3641622.66947  21011294.773    21011305.679
       240.000         205.000
 01  2  5 21 57 30.0000000  0  6G 2G 5G 9G 7G 4G24
  23164698.611     4001728.24849   3120696.85046  23164698.573    23164712.932
       222.000         168.000
  22526292.779    -7059567.59049  -5471859.94446  22526291.793    22526302.727
       226.000         175.000
  21210881.681       34544.40449     41932.44547  21210881.602    21210891.455
       240.000         206.000
  22659471.843     3991147.24249   3126035.99446  22659470.995    22659483.801
       223.000         174.000
  20333617.780     -180538.36549   -124353.71348  20333618.089    20333627.105
       245.000         213.000
  21000104.873    -4768066.26849  -3687444.96447  21000104.540    21000115.261
       240.000         205.000
 01  2  5 21 58  0.0000000  0  6G 2G 5G 9G 7G 4G24
  23178766.156     4075652.80749   3178300.28146  23178766.214    23178780.538
       222.000         166.000
  22510631.773    -7141866.38349  -5535988.74646  22510630.425    22510642.609
       226.000         176.000
  21214665.607       54428.90649     57426.85347  21214665.253    21214675.305
       241.000         206.000
  22671625.046     4055012.45849   3175801.02746  22671624.551    22671636.067
       222.000         171.000
  20336971.135     -162916.77349   -110622.60048  20336971.388    20336980.414
       245.000         213.000
  20989006.609    -4826387.90849  -3732890.30647  20989006.073    20989017.134
       241.000         205.000
 01  2  5 21 58 30.0000000  0  6G 2G 5G 9G 7G 4G24
  23192886.552     4149855.32849   3236120.30446  23192886.139    23192900.323
       221.000         164.000
  22494992.346    -7224051.59849  -5600029.06046  22494991.571    22495002.677
       225.000         176.000
  21218556.671       74876.63649     73360.14247  21218556.619    21218566.205
       240.000         206.000
  22683787.563     4118926.70649   3225604.26346  22683787.281    22683799.855
       224.000         170.000
  20340436.858     -144704.41849    -96431.15348  20340437.018    20340446.018
       245.000         213.000
  20978000.930    -4884222.98549  -3777956.50847  20978000.482    20978011.270
       241.000         205.000
 01  2  5 21 59  0.0000000  0  6G 2G 5G 9G 7G 4G24
  23207059.829     4224335.69549   3294156.83845  23207058.348    23207074.267
       218.000         161.000
  22479374.880    -7306121.28449  -5663979.34946  22479374.693    22479385.568
       226.000         176.000
  21222554.885       95887.49549     89732.23647  21222554.501    21222564.799
       240.000         205.000
  22695959.459     4182889.87649   3275445.62646  22695959.334    22695970.529
       224.000         171.000
  20344014.874     -125902.12049    -81780.00248  20344015.071    20344023.916
       245.000         213.000
  20967088.203    -4941569.78149  -3822642.23947  20967087.797    20967098.499
       241.000         206.000
 01  2  5 21 59 30.0000000  0  6G 2G 5G 9G 7G 4G24
  23221285.624     4299092.12249   3352408.46445  23221284.909    23221300.298
       216.000         159.000
  22463779.528    -7388074.92349  -5727839.19946  22463778.290    22463790.179
       226.000         176.000
  21226659.847      117459.15349    106541.31847  21226659.859    21226669.406
       240.000         205.000
  22708140.334     4246900.21649   3325323.75046  22708140.412    22708152.751
       226.000         173.000
  20347704.754     -106512.07349    -66670.86748  20347704.977    20347713.727
       246.000         213.000
  20956268.450    -4998427.91549  -3866947.18947  20956267.748    20956278.452
       240.000         206.000
 01  2  5 22  0  0.0000000  0  6G 2G 5G 9G 7G 4G24
  23235563.840     4374124.40649   3410875.04745  23235563.154    23235576.881
       214.000         157.000
  22448206.699    -7469910.37449  -5791606.96746  22448205.900    22448216.680
       227.000         177.000
  21230871.445      139591.09649    123786.98447  21230871.134    21230881.022
       240.000         205.000
  22720330.214     4310957.67649   3375238.58946  22720330.213    22720342.376
       226.000         174.000
  20351506.216      -86535.28949    -51104.53448  20351506.255    20351515.025
       245.000         213.000
  20945541.904    -5054795.62549  -3910869.99747  20945541.353    20945552.115
       241.000         206.000
 01  2  5 22  0 30.0000000  0  6G 2G 5G 9G 7G 4G24
  23249894.466     4449431.89049   3469556.05345  23249893.923    23249908.956
       213.000         157.000
  22432656.636    -7551625.99949  -5855281.36546  22432655.786    22432667.319
       226.000         177.000
  21235189.375      162281.94049    141468.15647  21235189.075    21235199.056
       240.000         205.000
  22732528.819     4375061.59849   3425189.62046  22732527.838    22732540.432
       224.000         174.000
  20355419.111      -65972.81949    -35081.82148  20355418.967    20355428.116
       244.000         213.000
  20934908.962    -5110671.65649  -3954409.67647  20934908.794    20934918.667
       241.000         206.000
 01  2  5 22  1  0.0000000  0  6G 2G 5G 9G 7G 4G24
  23264277.379     4525014.35849   3528451.31045  23264276.856    23264291.543
       212.000         157.000
  22417129.723    -7633219.78449  -5918860.83546  22417128.755    22417140.209
       226.000         177.000
  21239613.528      185531.06649    159584.35947  21239613.382    21239623.186
       240.000         205.000
  22744736.219     4439211.88749   3475176.78346  22744735.357    22744748.566
       224.000         173.000
  20359443.212      -44825.75549    -18603.58048  20359443.141    20359452.416
       245.000         213.000
  20924370.031    -5166054.06149  -3997564.71047  20924369.770    20924379.893
       241.000         206.000
 01  2  5 22  1 30.0000000  0  6G 2G 5G 9G 7G 4G24
  23278712.387     4600870.36349   3587559.72845  23278711.863    23278727.362
       212.000         158.000
  22401626.223    -7714690.89949  -5982344.70546  22401625.347    22401636.388
       227.000         178.000
  21244143.590      209336.66849    178134.17147  21244143.515    21244153.449
       240.000         205.000
  22756952.352     4503407.28749   3525199.10046  22756951.121    22756963.986
       224.000         173.000
  20363578.210      -23096.00449     -1671.30148  20363578.178    20363587.032
       245.000         213.000
  20913925.061    -5220942.53749  -4040334.87047  20913924.551    20913935.027
       241.000         207.000
 01  2  5 22  2  0.0000000  0  6G 2G 5G 9G 7G 4G24
  23293199.390     4676999.77449   3646881.17445  23293199.094    23293214.355
       214.000         160.000
  22386146.423    -7796037.00149  -6045731.17746  22386145.414    22386156.994
       226.000         178.000
  21248779.438      233698.07049    197117.08147  21248779.386    21248789.128
       240.000         205.000
  22769176.998     4567647.79949   3575256.56146  22769176.357    22769189.007
       224.000         173.000
  20367823.917        -784.59749     15714.22048  20367824.049    20367833.076
       245.000         213.000
  20903574.480    -5275334.84049  -4082718.39947  20903573.917    20903584.736
       241.000         207.000
 01  2  5 22  2 30.0000000  0  6G 2G 5G 9G 7G 4G24
  23307738.440     4753402.32149   3706415.46345  23307738.129    23307753.060
       216.000         162.000
  22370690.880    -7877256.07049  -6109018.65346  22370690.183    22370701.130
       227.000         178.000
  21253520.946      258614.66749    216532.60447  21253520.724    21253530.546
       240.000         205.000
  22781410.189     4631933.30349   3625349.09546  22781409.688    22781422.452
       223.000         173.000
  20372180.236       22107.86849     33552.51348  20372180.213    20372189.244
       245.000         213.000
  20893318.665    -5329229.33549  -4124714.03647  20893318.437    20893328.620
       241.000         207.000
 01  2  5 22  3  0.0000000  0  6G 2G 5G 9G 7G 4G24
  23322329.411     4830077.43549   3766162.14446  23322329.028    23322343.781
       217.000         163.000
  22355259.796    -7958346.48049  -6172205.88946  22355259.266    22355270.426
       227.000         179.000
  21258367.883      284085.27149    236379.82247  21258367.528    21258377.531
       240.000         205.000
  22793651.807     4696263.35149   3675476.30846  22793651.024    22793663.694
       222.000         172.000
  20376646.737       45579.64549     51842.21548  20376646.731    20376655.789
       244.000         213.000
  20883157.767    -5382625.06549  -4166321.01847  20883157.181    20883167.673
       241.000         207.000
 01  2  5 22  3 30.0000000  0  6G 2G 5G 9G 7G 4G24
  23336971.935     4907023.63949   3826120.06746  23336971.641    23336986.826
       219.000         165.000
  22339853.451    -8039307.14849  -6235292.01246  22339852.902    22339864.395
       228.000         179.000
  21263319.792      310107.84749    256657.14747  21263319.560    21263329.522
       240.000         205.000
  22805901.657     4760636.57849   3725637.17546  22805901.443    22805913.948
       223.000         172.000
  20381223.166       69628.96749     70581.95448  20381223.303    20381232.189
       245.000         213.000
  20873091.882    -5435521.24749  -4207538.74447  20873091.350    20873101.837
       242.000         207.000
 01  2  5 22  4  0.0000000  0  6G 2G 5G 9G 7G 4G24
  23351666.027     4984240.96049   3886289.25346  23351665.488    23351680.377
       219.000         165.000
  22324472.259    -8120135.54849  -6298275.08546  22324471.150    22324482.976
       228.000         180.000
  21268376.693      336682.03649    277364.29547  21268376.399    21268386.234
       240.000         205.000
  22818159.834     4825053.38649   3775832.00146  22818159.417    22818171.890
       223.000         172.000
  20385909.358       94254.91449     89771.00648  20385909.419    20385918.345
       245.000         213.000
  20863121.454    -5487915.67949  -4248365.50047  20863121.032    20863131.323
       241.000         207.000
 01  2  5 22  4 30.0000000  0  6G 2G 5G 9G 7G 4G24
  23366411.576     5061728.62849   3946669.09546  23366411.350    23366426.775
       220.000         165.000
  22309116.530    -8200830.14449  -6361153.88446  22309115.301    22309126.947
       227.000         180.000
  21273538.344      363806.66749    298500.35747  21273538.376    21273548.285
       240.000         205.000
  22830426.151     4889513.08149   3826060.25346  22830425.245    22830438.021
       225.000         171.000
  20390704.928      119456.00749    109408.22548  20390704.959    20390714.071
       245.000         213.000
  20853246.620    -5539807.96049  -4288800.96747  20853246.048    20853256.595
       242.000         207.000
 01  2  5 22  5  0.0000000  0  6G 2G 5G 9G 7G 4G24
  23381208.586     5139486.55949   4007259.54446  23381208.086    23381223.397
       220.000         165.000
  22293786.640    -8281388.79649  -6423926.75246  22293785.653    22293797.015
       228.000         180.000
  21278804.605      391480.81249    320064.61447  21278804.410    21278814.337
       239.000         204.000
  22842700.749     4954015.72949   3876321.99446  22842700.278    22842712.759
       226.000         172.000
  20395609.828      145231.41949    129492.96148  20395609.983    20395618.909
       245.000         213.000
  20843467.784    -5591195.68249  -4328843.27447  20843467.118    20843477.688
       241.000         207.000
 01  2  5 22  5 30.0000000  0  6G 2G 5G 9G 7G 4G24
  23396056.658     5217513.02049   4068059.22646  23396057.137    23396070.682
       220.000         164.000
  22278482.741    -8361810.88249  -6486593.20346  22278481.758    22278493.065
       229.000         180.000
  21284174.915      419702.09049    342055.20847  21284174.563    21284184.439
       239.000         204.000
  22854983.153     5018559.87449   3926616.05146  22854982.745    22854994.647
       225.000         171.000
  20400623.550      171578.50749    150023.16248  20400623.532    20400632.278
       245.000         213.000
  20833784.939    -5642078.87549  -4368492.44147  20833784.361    20833794.862
       241.000         207.000
 01  2  5 22  6  0.0000000  0  6G 2G 5G 9G 7G 4G24
  23410955.881     5295808.23049   4129068.32245  23410955.623    23410970.840
       218.000         161.000
  22263205.346    -8442093.62249  -6549151.07546  22263204.814    22263215.795
       230.000         181.000
  21289649.351      448470.41549    364472.06547  21289649.312    21289659.130
       239.000         204.000
  22867273.550     5083146.13149   3976942.91146  22867272.976    22867286.139
       225.000         170.000
  20405745.889      198496.83749    170998.47947  20405745.936    20405754.946
       245.000         212.000
  20824198.528    -5692455.62949  -4407746.98747  20824198.258    20824208.548
       242.000         207.000
 01  2  5 22  6 30.0000000  0  6G 2G 5G 9G 7G 4G24
  23425905.989     5374371.06349   4190285.96745  23425905.853    23425921.049
       217.000         159.000
  22247954.856    -8522235.60749  -6611599.24946  22247953.922    22247964.794
       229.000         181.000
  21295227.575      477784.03649    387313.83147  21295227.521    21295237.247
       240.000         204.000
  22879571.811     5147773.38949   4027301.73346  22879571.512    22879584.154
       221.000         169.000
  20410976.569      225984.36049    192417.32647  20410976.655    20410985.632
       244.000         212.000
  20814708.579    -5742325.19849  -4446606.32047  20814708.147    20814718.571
       242.000         207.000
 01  2  5 22  7  0.0000000  0  6G 2G 5G 9G 7G 4G24
  23440906.906     5453200.61249   4251711.42445  23440906.568    23440921.828
       215.000         156.000
  22232731.405    -8602234.86949  -6673936.22046  22232730.281    22232741.486
       229.000         182.000
  21300909.311      507641.47849    410579.35047  21300909.247    21300919.034
       239.000         204.000
  22891877.714     5212441.42249   4077692.29746  22891877.153    22891890.234
       220.000         168.000
  20416315.326      254039.71549    214278.63247  20416315.359    20416324.404
       244.000         212.000
  20805315.535    -5791685.86349  -4485069.10147  20805315.410    20805325.390
       242.000         208.000
 01  2  5 22  7 30.0000000  0  6G 2G 5G 9G 7G 4G24
  23455958.470     5532296.46349   4313344.40245  23455957.169    23455973.530
       215.000         153.000
  22217535.405    -8682089.80749  -6736160.71446  22217534.761    22217545.631
       229.000         182.000
  21306694.292      538041.62349    434267.75547  21306694.103    21306703.807
       240.000         204.000
  22904191.387     5277149.90849   4128114.39946  22904190.919    22904204.084
       222.000         168.000
  20421761.862      282661.45249    236581.28547  20421761.928    20421770.843
       244.000         212.000
  20796019.539    -5840536.54249  -4523134.49747  20796019.265    20796029.460
       242.000         208.000
 01  2  5 22  8  0.0000000  0  6G 2G 5G 9G 7G 4G24
  23471060.620     5611658.14449   4375184.51445  23471059.184    23471074.997
       213.000         149.000
  22202367.247    -8761798.39049  -6798271.17446  22202366.462    22202377.508
       229.000         182.000
  21312582.380      568983.65349    458378.40647  21312582.116    21312592.049
       239.000         204.000
  22916512.720     5341898.79049   4178567.97546  22916511.969    22916525.687
       222.000         168.000
  20427315.993      311848.38349    259324.34647  20427315.824    20427325.043
       244.000         212.000
  20786820.689    -5888876.28549  -4560801.75847  20786820.344    20786830.741
       242.000         208.000
 01  2  5 22  8 30.0000000  0  6G 2G 5G 9G 7G 4G24
  23486213.323     5691285.55849   4437231.69445  23486212.913    23486227.227
       211.000         145.000
  22187227.442    -8841357.84349  -6860265.42646  22187226.673    22187237.517
       229.000         182.000
  21318573.393      600466.67149    482910.60247  21318573.199    21318583.050
       239.000         204.000
  22928841.829     5406688.09949   4229053.06546  22928841.234    22928853.909
       223.000         168.000
  20432977.373      341599.39849    282506.95047  20432977.284    20432986.352
       244.000         212.000
  20777719.466    -5936703.27449  -4598069.47047  20777719.094    20777729.363
       242.000         208.000
 01  2  5 22  9  0.0000000  0  6G 2G 5G 9G 7G 4G24
  23501416.090     5771176.21749   4499483.99945  23501415.449    23501431.989
       207.000         140.000
  22172116.062    -8920768.07549  -6922143.39846  22172115.244    22172126.439
       229.000         183.000
  21324666.697      632487.22049    507861.65147  21324666.720    21324676.525
       240.000         204.000
  22941178.298     5471516.09049   4279568.30746  22941177.963    22941190.581
       223.000         168.000
  20438745.500      371911.37649    306126.66747  20438745.471    20438754.614
       245.000         212.000
  20768715.790    -5984017.97349  -4634937.99447  20768715.398    20768725.878
       242.000         208.000
 01  2  5 22  9 30.0000000  0  6G 2G 5G 9G 7G 4G24
  23516668.952     5851329.92249   4561941.25945  23516668.289    23516684.666
       204.000         136.000
  22157033.563    -9000026.76449  -6983903.28646  22157032.326    22157043.901
       230.000         183.000
  21330862.191      665044.78649    533231.16247  21330862.141    21330871.871
       240.000         204.000
  22953522.046     5536382.93549   4330113.81346  22953522.427    22953534.347
       222.000         168.000
  20444620.267      402783.25749    330182.66747  20444620.594    20444629.149
       245.000         212.000
  20759809.903    -6030818.20849  -4671405.63947  20759809.493    20759819.604
       242.000         209.000
 01  2  5 22 10  0.0000000  0  6G 2G 5G 9G 7G 4G24
  23531971.841     5931746.33049   4624603.22244  23531970.626    23531986.334
       202.000         131.000
  22141980.378    -9079131.50449  -7045543.21546  22141979.237    22141990.540
       230.000         184.000
  21337159.734      698138.51549    559018.45847  21337159.612    21337169.583
       240.000         204.000
  22965873.301     5601288.61149   4380689.57046  22965872.677    22965885.643
       223.000         168.000
  20450601.319      434214.02549    354674.16847  20450601.333    20450610.450
       244.000         212.000
  20751002.179    -6077103.04049  -4707471.67147  20751001.680    20751011.901
       242.000         209.000
 01  2  5 22 10 30.0000000  0  6G 2G 5G 9G 7G 4G24
  23547324.461     6012424.24749   4687468.97544  23547321.379    23547339.189
       198.000         127.000
  22126956.679    -9158081.08349  -7107062.24246  22126955.857    22126966.661
       230.000         184.000
  21343558.956      731766.28549    585221.88947  21343558.892    21343568.660
       240.000         204.000
  22978231.749     5666232.40649   4431295.03646  22978230.872    22978243.718
       222.000         167.000
  20456688.291      466201.31249    379599.31747  20456688.349    20456697.548
       244.000         212.000
  20742292.615    -6122871.93349  -4743135.67547  20742291.990    20742302.427
       241.000         209.000
 01  2  5 22 11  0.0000000  0  6G 2G 5G 9G 7G 4G24
  23562726.690     6093362.88249   4750537.84944  23562727.203
       197.000         124.000
  22111962.831    -9236873.78449  -7168459.03346  22111962.157    22111972.698
       230.000         184.000
  21350059.529      765926.89349    611840.52247  21350059.441    21350069.251
       240.000         204.000
  22990597.417     5731213.95749   4481929.92646  22990597.970    22990609.930
       224.000         166.000
  20462880.944      498743.66249    404956.98547  20462881.192    20462890.099
       245.000         212.000
  20733681.392    -6168123.64349  -4778396.67947  20733680.871    20733690.886
       242.000         209.000
 01  2  5 22 11 30.0000000  0  6G 2G 5G 9G 7G 4G24
  23578178.508     6174562.54548   4813810.13044  23578177.008    23578195.138
       194.000         120.000
  22096999.408    -9315506.42849  -7229731.10446  22096998.226    22097009.610
       230.000         184.000
  21356661.405      800619.93149    638874.03947  21356661.261    21356671.061
       240.000         204.000
  23002970.396     5796234.11149   4532594.88746  23002970.885    23002982.872
       223.000         165.000
  20469179.105      531840.58849    430746.79147  20469179.202    20469188.200
       244.000         212.000
  20725169.001    -6212856.35849  -4813253.27247  20725168.594    20725178.682
       242.000         209.000
 01  2  5 22 12  0.0000000  0  6G 2G 5G 9G 7G 4G24
  23593679.671     6256021.15249   4877284.20344  23593679.156    23593694.359
       195.000         117.000
  22082066.576    -9393978.59249  -7290878.13646  22082066.044    22082076.286
       230.000         184.000
  21363364.042      835842.51849    666320.18847  21363364.081    21363373.922
       239.000         204.000
  23015350.358     5861291.07849   4583288.54146  23015349.735    23015363.283
       221.000         164.000
  20475582.161      565488.84949    456966.20947  20475582.229    20475591.388
       244.000         212.000
  20716755.324    -6257070.19149  -4847705.54447  20716754.979    20716765.088
       241.000         209.000
 01  2  5 22 12 30.0000000  0  6G 2G 5G 9G 7G 4G24
  23609230.144     6337738.47248   4940959.85544  23609230.410    23609244.494
       193.000         114.000
  22067164.775    -9472287.66249  -7351898.09246  22067164.140    22067174.583
       230.000         185.000
  21370167.358      871593.91749    694178.39447  21370167.241    21370177.017
       240.000         203.000
  23027737.437     5926385.25649   4634011.17546  23027737.369    23027749.401
       221.000         163.000
  20482089.990      599687.69449    483614.64647  20482090.244    20482099.047
       244.000         211.000
  20708440.584    -6300763.80149  -4881752.44847  20708440.235    20708450.466
       242.000         209.000
 01  2  5 22 13  0.0000000  0  6G 2G 5G 9G 7G 4G24
  23624829.472     6419712.87948   5004835.84544  23624824.534    23624839.517
       190.000         112.000
  22052294.158    -9550432.75049  -7412790.26746  22052293.625    22052304.044
       231.000         185.000
  21377070.767      907871.50749    722446.62547  21377070.562    21377080.588
       240.000         203.000
  23040131.371     5991515.34849   4684761.79846  23040130.370    23040143.418
       220.000         163.000
  20488702.037      634434.15049    510689.80947  20488702.047    20488711.341
       244.000         211.000
  20700225.008    -6343936.64049  -4915393.55247  20700224.693    20700234.715
       242.000         209.000
 01  2  5 22 13 30.0000000  0  6G 2G 5G 9G 7G 4G24
  23640477.776     6501944.65548   5068912.38544  23640477.778
       189.000         109.000
  22037455.350    -9628410.85749  -7473552.32546  22037454.588    22037465.278
       231.000         185.000
  21384074.210      944674.71149    751124.41947  21384074.104    21384083.816
       240.000         203.000
  23052532.257     6056682.26349   4735541.11046  23052531.644    23052544.945
       223.000         164.000
  20495418.197      669727.72349    538191.28947  20495418.297    20495427.458
       244.000         211.000
  20692108.892    -6386587.01449  -4948627.54447  20692108.711    20692118.838
       242.000         209.000
 01  2  5 22 14  0.0000000  0  6G 2G 5G 9G 7G 4G24
  23656174.752     6584432.01248   5133188.08644  23656178.418
       186.000         106.000
  22022648.611    -9706220.72949  -7534183.29646  22022647.448    22022658.128
       231.000         186.000
  21391177.183      982000.96649    780209.79147  21391177.206    21391187.013
       239.000         203.000
  23064940.008     6121884.66049   4786348.08646  23064938.345    23064951.907
       224.000         166.000
  20502237.922      705565.68549    566116.97247  20502238.036    20502247.123
       243.000         211.000
  20684092.139    -6428715.04449  -4981454.51347  20684091.931    20684102.043
       243.000         210.000
 01  2  5 22 14 30.0000000  0  6G 2G 5G 9G 7G 4G24
  23671920.187     6667174.18148   5197662.34144  23671919.951
       184.000         101.000
  22007874.172    -9783860.44349  -7594681.69446  22007873.736    22007883.879
       232.000         186.000
  21398379.465     1019849.01449    809701.75447  21398379.570    21398389.237
       240.000         203.000
  23077354.469     6187122.63049   4837182.77546  23077354.730    23077367.369
       225.000         167.000
  20509160.922      741946.48049    594465.64347  20509160.993    20509170.207
       243.000         211.000
  20676175.095    -6470319.45949  -5013873.47447  20676174.742    20676184.837
       243.000         210.000
 01  2  5 22 15  0.0000000  0  6G 2G 5G 9G 7G 4G24
                   6750171.14348   3264323.11443
       182.000          74.000
  21993132.667    -9861327.15749  -7655045.28046  21993131.562    21993142.598
       232.000         186.000
  21405680.886     1058218.04949    839599.67447  21405680.865    21405690.764
       239.000         203.000
  23089775.764     6252396.55949   4888045.47946  23089775.581    23089788.699
       225.000         168.000
  20516187.089      778869.20949    623236.59647  20516187.199    20516196.431
       244.000         211.000
  20668357.910    -6511398.89849  -5045883.36247  20668357.444    20668367.579
       242.000         210.000
 01  2  5 22 15 30.0000000  0  6G 2G 5G 9G 7G 4G24
                   6833421.13848   3329224.93543
       181.000          74.000
  21978424.337    -9938619.85849  -7715273.27646  21978423.324    21978433.801
       232.000         186.000
  21413080.910     1097105.34249    869901.43647  21413080.943    21413090.721
       239.000         203.000
  23102203.678     6317705.29849   4938935.31446  23102204.077    23102216.900
       224.000         168.000
  20523315.904      816331.03349    652427.62347  20523315.964    20523325.454
       244.000         211.000
  20660640.606    -6551953.29249  -5077484.12947  20660640.216    20660650.474
       243.000         210.000
 01  2  5 22 16  0.0000000  0  6G 2G 5G 9G 7G 4G24
                   6916923.74748   3394364.61243
       177.000          74.000
  21963749.484   -10015736.41949  -7775364.01546  21963748.184    21963759.464
       232.000         187.000
  21420579.357     1136509.71449    900606.11647  21420579.232    21420589.241
       240.000         203.000
  23114638.269     6383049.02049   4989852.40546  23114637.370    23114651.033
       223.000         167.000
  20530546.934      854330.24549    682037.39547  20530547.168    20530556.240
       244.000         211.000
  20653023.419    -6591981.42249  -5108674.81347  20653023.030    20653033.258
       242.000         210.000
 01  2  5 22 16 30.0000000  0  6G 2G 5G 9G 7G 4G24
                   7000677.68548   3344716.18043
       174.000          74.000
  21949108.447   -10092675.30449  -7835316.31346  21949107.699    21949117.988
       232.000         187.000
  21428175.871     1176429.44249    931712.37147  21428175.853    21428185.823
       239.000         203.000
  23127079.395     6448427.07949   5040796.24446  23127079.356    23127092.541
       222.000         166.000
  20537879.900      892865.14849    712064.58747  20537880.002    20537889.175
       244.000         211.000
  20645506.504    -6631482.88749  -5139455.11747  20645506.273    20645516.224
       242.000         210.000
 01  2  5 22 17  0.0000000  0  6G 2G 5G 9G 7G 4G24
                   7084682.09358   3410215.27743
       179.000          74.000
  21934501.654   -10169434.36749  -7895128.48147  21934500.701    21934511.028
       232.000         188.000
  21435870.049     1216862.43649    963218.57747  21435869.966    21435879.633
       239.000         202.000
  23139527.024     6513839.26849   5091766.69446  23139527.189    23139539.895
       220.000         165.000
  20545314.367      931933.58749    742507.52247  20545314.495    20545323.550
       244.000         211.000
  20638090.011    -6670456.67249  -5169824.23847  20638089.768    20638099.778
       242.000         210.000
 01  2  5 22 17 30.0000000  0  6G 2G 5G 9G 7G 4G24
                   7168936.42958   3475984.75443
       181.000          74.000
  21919929.493   -10246011.27949  -7954798.71847  21919928.779    21919939.259
       233.000         188.000
  21443661.641     1257807.57049    995123.84547  21443661.662    21443671.593
       239.000         202.000
  23151981.145     6579285.64249   5142763.75646  23151979.788    23151993.455
       220.000         164.000
  20552850.070      971534.11549    773365.06547  20552850.318    20552859.386
       244.000         211.000
  20630774.059    -6708902.09849  -5199781.65547  20630773.693    20630783.671
       243.000         210.000
 01  2  5 22 18  0.0000000  0  6G 2G 5G 9G 7G 4G24
                   7253439.42558   3424108.31943
       176.000          74.000
  21905392.260   -10322404.65249  -8014325.93947  21905391.423    21905401.676
       233.000         188.000
  21451550.286     1299262.67949   1027426.49847  21451550.161    21451560.003
       239.000         202.000
  23164441.594     6644765.44749   5193786.88146  23164441.561    23164453.702
       219.000         164.000
  20560486.599     1011664.31349    804635.34047  20560486.781    20560495.904
       244.000         211.000
  20623558.809    -6746818.69349  -5229326.99747  20623558.498    20623568.356
       243.000         211.000
 01  2  5 22 18 30.0000000  0  6G 2G 5G 9G 7G 4G24
                   7338189.91458   3490128.77843
       165.000          74.000
  21890890.402   -10398612.26849  -8073708.41047  21890889.592    21890900.040
       234.000         188.000
  21459535.708     1341226.16749   1060125.29347  21459535.373    21459545.645
       239.000         202.000
  23176908.467     6710278.86549   5244836.20546  23176907.561    23176920.545
       221.000         164.000
  20568223.654     1052322.46349    836317.00447  20568223.945    20568232.836
       244.000         211.000
  20616444.247    -6784205.69649  -5258459.67147  20616443.973    20616453.868
       243.000         211.000
 01  2  5 22 19  0.0000000  0  7G 2G 5G 9G30G 7G 4G24
                   7423187.84858   3556290.49343
       172.000          74.000
  21876424.302   -10474631.67549  -8132944.22247  21876423.467    21876434.081
       234.000         189.000
  21467617.578     1383696.59149   1093219.09747  21467617.598    21467627.176
       239.000         202.000
  24253645.868    -5682402.08149  -3547037.67045  24253647.969    24253660.185
       206.000         138.000
  23189381.774     6775826.06049   5295911.84046  23189381.355    23189395.194
       220.000         164.000
  20576060.890     1093507.29249    868409.06347  20576060.999    20576069.875
       244.000         211.000
  20609430.778    -6821061.81449  -5287178.67247  20609430.448    20609440.417
       243.000         211.000
 01  2  5 22 19 30.0000000  0  6G 5G 9G30G 7G 4G24
  21861993.206   -10550467.21749  -8192036.77547  21861992.478    21862003.252
       233.000         189.000
  21475794.397     1426665.83049   1126701.58947  21475794.167    21475804.183
       239.000         202.000
  24234773.193    -5781578.13949  -3624317.48245  24234774.535    24234787.005
       212.000         140.000
  23201860.191     6841400.48249   5347008.69446  23201859.107    23201873.299
       220.000         164.000
  20583996.761     1135210.44649    900905.00747  20583996.955    20584005.920
       244.000         210.000
  20602517.186    -6857392.75849  -5315488.44447  20602516.694    20602526.717
       243.000         211.000
 01  2  5 22 20  0.0000000  0  6G 5G 9G30G 7G 4G24
  21847598.668   -10626110.74149  -8250979.70147  21847598.093    21847607.914
       235.000         190.000
  21484066.990     1470138.46749   1160576.34447  21484066.760    21484076.909
       239.000         202.000
  24215898.821    -5880762.22449  -3701603.67945  24215898.582    24215915.305
       208.000         141.000
  23214345.077     6907008.29849   5398131.56346  23214344.744    23214357.902
       219.000         163.000
  20592032.067     1177436.26649    933808.22547  20592032.323    20592040.982
       244.000         210.000
  20595704.700    -6893192.09749  -5343383.98547  20595704.181    20595714.367
       243.000         211.000
 01  2  5 22 20 30.0000000  0  6G 5G 9G30G 7G 4G24
  21833241.448   -10701558.23949  -8309769.87447  21833240.642    21833250.818
       234.000         190.000
  21492435.382     1514114.44649   1194843.31447  21492435.227    21492445.180
       239.000         201.000
  24197023.664    -5979950.81849  -3778893.35945  24197022.150    24197039.077
       206.000         139.000
  23226836.530     6972651.04649   5449281.63645  23226836.556    23226849.431
       218.000         162.000
  20600166.792     1220184.37149    967118.41747  20600166.951    20600175.923
       244.000         210.000
  20588994.078    -6928456.50649  -5370862.69247  20588993.656    20589003.708
       243.000         211.000
 01  2  5 22 21  0.0000000  0  6G 5G 9G30G 7G 4G24
  21818921.690   -10776808.53749  -8368406.38247  21818920.965    21818931.713
       234.000         190.000
  21500899.013     1558591.04949   1229500.37647  21500898.728    21500908.809
       238.000         201.000
  24178147.950    -6079143.21449  -3856185.97145  24178148.536    24178162.683
       201.000         141.000
  23239334.455     7038327.80249   5500458.23646  23239334.184    23239347.499
       217.000         163.000
  20608400.411     1263452.32549   1000833.68647  20608400.481    20608409.593
       244.000         210.000
  20582385.187    -6963186.25949  -5397924.78647  20582384.941    20582394.627
       243.000         211.000
 01  2  5 22 21 30.0000000  0  6G 5G 9G30G 7G 4G24
  21804639.654   -10851860.93949  -8426888.68747  21804638.913    21804648.975
       235.000         190.000
  21509457.336     1603565.27649   1264545.19847  21509457.173    21509467.317
       238.000         201.000
  24159271.442    -6178339.36149  -3933481.51645  24159272.044    24159286.541
       203.000         141.000
  23251838.609     7104036.97449   5551660.08046  23251838.167    23251851.811
       218.000         163.000
  20616732.289     1307236.60249   1034951.28547  20616732.373    20616741.653
       244.000         210.000
  20575877.731    -6997382.68049  -5424571.29947  20575877.496    20575887.123
       242.000         211.000
 01  2  5 22 22  0.0000000  0  6G 5G 9G30G 7G 4G24
  22090188.813    -9351289.59849  -7257612.23247  22090188.051    22090198.561
       235.000         191.000
  21817902.449     3224455.20249   2527576.27347  21817902.301    21817912.291
       239.000         201.000
  24440187.662    -4702112.85649  -2783174.93745  24440190.258    24440201.412
       209.000         141.000
  23564141.243     8745197.76049   6830486.56445  23564140.455    23564154.104
       218.000         162.000
  20924954.488     2926955.21149   2297069.67047  20924954.605    20924963.730
       244.000         210.000
  20869264.969    -5455622.14349  -4223199.40147  20869264.799    20869274.549
       243.000         211.000
 01  2  5 22 22 30.0000000  0  6G 5G 9G30G 7G 4G24
  22075983.183    -9425940.19149  -7315781.43747  22075982.236    22075992.925
       235.000         191.000
  21826649.137     3270419.20749   2563392.35147  21826648.985    21826658.848
       238.000         201.000
  24421310.568    -4801311.59449  -2860472.46945  24421310.858    24421326.643
       208.000         142.000
  23576657.623     8810971.65249   6881738.84545  23576657.240    23576671.148
       219.000         162.000
  20933481.782     2971766.30449   2331987.38647  20933482.142    20933491.179
       244.000         210.000
  20862961.058    -5488749.55149  -4249012.91047  20862960.823    20862970.552
       243.000         211.000
 01  2  5 22 23  0.0000000  0  6G 5G 9G30G 7G 4G24
  21762023.192   -11075810.54249  -8601394.60547  21762022.186    21762032.865
       235.000         191.000
  21535697.019     1741455.43549   1371991.97447  21535696.687    21535707.196
       239.000         201.000
  24102640.467    -6475934.13749  -4165373.02545  24102639.810    24102656.041
       208.000         141.000
  23289387.834     7301358.43249   5705416.74345  23289387.652    23289401.856
       217.000         162.000
  20642313.751     1441667.83149   1139702.84847  20642314.113    20642323.133
       244.000         211.000
  20556966.012    -7096764.13849  -5502011.23447  20556965.689    20556975.404
       243.000         211.000
 01  2  5 22 23 30.0000000  0  6G 5G 9G30G 7G 4G24
  21747895.255   -11150053.12149  -8659245.88047  21747894.466    21747904.623
       235.000         191.000
  21544630.227     1788399.69249   1408571.88447  21544630.173    21544640.090
       238.000         201.000
  24083763.668    -6575131.32349  -4242669.35845  24083762.028    24083777.574
       202.000         140.000
  23301916.109     7367194.35349   5756717.36545  23301915.679    23301929.000
       216.000         161.000
  20651034.591     1487495.70149   1175412.86347  20651034.626    20651043.910
       244.000         210.000
  20550865.536    -7128822.22749  -5526991.51347  20550865.092    20550875.048
       243.000         211.000
 01  2  5 22 24  0.0000000  0  6G 5G 9G30G 7G 4G24
  21733806.836   -11224087.78349  -8716935.14847  21733805.929    21733816.910
       236.000         192.000
  21553656.280     1835831.74549   1445531.88947  21553656.204    21553666.355
       238.000         201.000
  24064887.663    -6674324.61049  -4319962.64045  24064887.185    24064903.364
       205.000         143.000
  23314450.308     7433061.90149   5808042.59945  23314449.732    23314463.577
       216.000         160.000
  20659851.666     1533829.62749   1211517.20847  20659851.702    20659860.903
       244.000         210.000
  20544867.026    -7160344.64149  -5551554.37647  20544866.605    20544876.428
       243.000         211.000
 01  2  5 22 24 30.0000000  0  6G 5G 9G30G 7G 4G24
  21719758.371   -11297912.78349  -8774461.03847  21719757.894    21719767.821
       236.000         192.000
  21562774.733     1883749.48649   1482870.35647  21562774.902    21562784.680
       238.000         200.000
  24046012.859    -6773512.65649  -4397251.87945  24046013.601    24046026.500
       206.000         143.000
  23326990.524     7498960.70949   5859392.20045  23326989.931    23327003.903
       215.000         159.000
  20668764.513     1580667.13549   1248013.95947  20668764.652    20668773.681
       244.000         210.000
  20538970.515    -7191330.65449  -5575699.26847  20538970.017    20538979.839
       242.000         211.000
 01  2  5 22 25  0.0000000  0  6G 5G 9G30G 7G 4G24
  21705750.298   -11371525.47949  -8831821.50147  21705749.732    21705759.896
       235.000         192.000
  21571985.313     1932151.20649   1520585.94047  21571985.455    21571995.243
       238.000         200.000
  24027139.204    -6872693.60249  -4474535.50545  24027140.677    24027152.041
       209.000         143.000
  23339536.651     7564890.87249   5910766.23545  23339535.945    23339550.251
       214.000         157.000
  20677772.952     1628006.73249   1284901.94947  20677773.116    20677782.097
       244.000         210.000
  20533176.184    -7221779.86449  -5599425.87647  20533175.718    20533185.570
       243.000         211.000
 01  2  5 22 25 30.0000000  0  6G 5G 9G30G 7G 4G24
  21691782.867   -11444924.48849  -8889015.45847  21691781.982    21691792.370
       236.000         193.000
  21581287.570     1981034.69049   1558676.93047  21581287.356    21581297.682
       239.000         200.000
  24008267.366    -6971866.09249  -4551812.56845  24008268.951    24008282.561
       213.000         143.000
  23352088.695     7630851.94949   5962164.36545  23352088.496    23352101.865
       217.000         157.000
  20686876.445     1675845.79849   1322179.13647  20686876.583    20686885.965
       244.000         210.000
  20527484.079    -7251691.81349  -5622733.83747  20527483.619    20527493.431
       243.000         211.000
 01  2  5 22 26  0.0000000  0  6G 5G 9G30G 7G 4G24
  21677856.390   -11518108.41849  -8946041.81647  21677855.453    21677865.676
       236.000         193.000
  21590680.972     2030397.20849   1597141.19547  21590680.993    21590691.030
       238.000         200.000
  23989397.079    -7071029.35849  -4629082.48545  23989397.526    23989412.194
       214.000         144.000
  23364646.501     7696843.16149   6013585.99145  23364646.622    23364660.558
       218.000         157.000
  20696074.397     1724181.42149   1359843.25247  20696074.366    20696083.941
       243.000         210.000
  20521894.177    -7281066.80949  -5645623.39147  20521893.869    20521903.498
       243.000         211.000
 01  2  5 22 26 30.0000000  0  6G 5G 9G30G 7G 4G24
  21663971.171   -11591075.21649  -9002898.98947  21663970.415    21663980.771
       236.000         193.000
  21600165.160     2080236.71749   1635977.13447  21600165.107    21600175.185
       237.000         200.000
  23970528.945    -7170181.60849  -4706343.81745  23970528.888    23970542.400
       211.000         144.000
  23377210.041     7762864.45749   6065031.04645  23377210.024    23377222.898
       220.000         156.000
  20705366.454     1773011.71749   1397892.81747  20705366.553    20705375.882
       243.000         209.000
  20516406.514    -7309904.47949  -5668094.25347  20516406.228    20516415.820
       243.000         211.000
 01  2  5 22 27  0.0000000  0  6G 5G 9G30G 7G 4G24
  21650127.816   -11663822.40849  -9059585.03947  21650127.049    21650137.365
       236.000         193.000
  21609739.782     2130551.29749   1675183.26347  21609739.788    21609749.830
       238.000         200.000
  23951663.270    -7269320.80549  -4783594.94245  23951662.979    23951677.712
       212.000         145.000
  23389779.378     7828915.99149   6116499.68745  23389779.453    23389791.625
       222.000         156.000
  20714752.298     1822334.72249   1436326.31747  20714752.665    20714761.785
       243.000         209.000
  20511021.154    -7338204.62249  -5690146.26347  20511020.876    20511030.563
       243.000         211.000
 01  2  5 22 27 30.0000000  0  6G 5G 9G30G 7G 4G24
  21636326.696   -11736347.50549  -9116098.03347  21636325.743    21636336.348
       235.000         194.000
  21619404.507     2181339.43049   1714758.38847  21619404.318    21619414.282
       238.000         199.000
  23932800.461    -7368445.15349  -4860834.53645  23932799.438    23932816.128
       210.000         146.000
  23402354.424     7894997.96649   6167992.05645  23402353.648    23402367.453
       223.000         154.000
  20724231.583     1872148.42449   1475142.17947  20724231.923    20724241.243
       243.000         209.000
  20505738.207    -7365966.57949  -5711778.90847  20505737.843    20505747.679
       243.000         211.000
 01  2  5 22 28  0.0000000  0  6G 5G 9G30G 7G 4G24
  21622568.158   -11808648.83749  -9172436.66347  21622567.608    21622577.634
       236.000         194.000
  21629158.927     2232598.62449   1754700.57547  21629158.995    21629168.820
       238.000         199.000
  23913940.550    -7467553.70149  -4938061.81245  23913938.415    23913953.272
       201.000         143.000
                   7961109.96149   6219507.81945                  23414948.115
       224.000         155.000
  20733803.675     1922450.39849   1514338.50647  20733803.876    20733813.179
       243.000         209.000
  20500557.718    -7393190.18349  -5732992.06147  20500557.220    20500566.991
       243.000         211.000
 01  2  5 22 28 30.0000000  0  6G 5G 9G30G 7G 4G24
  21608852.507   -11880724.97549  -9228599.81847  21608851.803    21608862.032
       236.000         194.000
  21639002.448     2284326.40549   1795007.89547  21639002.171    21639012.464
       238.000         199.000
  23895083.970    -7566644.63249  -5015275.31945  23895083.208    23895097.175
       203.000         144.000
  23427521.666     8027251.48849   6271046.58945  23427521.045    23427534.703
       224.000         156.000
  20743468.187     1973237.93549   1553913.18047  20743468.526    20743477.867
       243.000         208.000
  20495479.633    -7419875.35249  -5753785.65647  20495479.335    20495489.036
       243.000         211.000
 01  2  5 22 29  0.0000000  0  6G 5G 9G30G 7G 4G24
  21595180.176   -11952573.25349  -9284585.42047  21595179.139    21595189.785
       236.000         194.000
  21648934.817     2336521.05749   1835679.00347  21648934.714    21648944.555
       237.000         199.000
  23876231.217    -7665716.15249  -5092473.72445  23876231.449    23876245.321
       208.000         145.000
  23440113.759     8093422.71349   6322608.51945  23440112.778    23440126.719
       225.000         157.000
  20753224.846     2024509.33749   1593864.89547  20753225.061    20753234.414
       243.000         209.000
  20490504.189    -7446021.49749  -5774159.23247  20490503.709    20490513.514
       243.000         212.000
 01  2  5 22 29 30.0000000  0  6G 5G 9G30G 7G 4G24
  21581551.604   -12024191.83649  -9340392.03447  21581550.903    21581561.127
       236.000         195.000
  21658955.577     2389180.14449   1876712.01647  21658955.337    21658965.480
       237.000         199.000
  23857382.493    -7764766.83149  -5169655.90645  23857383.797    23857396.365
       211.000         146.000
  23452711.403     8159623.42349   6374193.41545  23452710.626    23452724.216
       224.000         158.000
  20763073.153     2076262.23449   1634191.79947  20763073.513    20763082.691
       243.000         208.000
  20485631.246    -7471628.93949  -5794113.04447  20485630.853    20485640.452
       244.000         211.000
 01  2  5 22 30  0.0000000  0  6G 5G 9G30G 7G 4G24
  21567967.014   -12095579.18949  -9396018.47147  21567965.988    21567976.446
       236.000         195.000
  21669064.157     2442300.93649   1918104.79247  21669063.889    21669074.239
       237.000         198.000
  23838537.970    -7863795.39949  -5246820.82145  23838538.963    23838550.371
       216.000         147.000
  23465314.617     8225853.04149   6425800.81045  23465313.901    23465327.119
       222.000         160.000
  20773012.503     2128493.58749   1674891.52347  20773012.533    20773021.955
       243.000         208.000
  20480860.792    -7496697.81349  -5813647.18947  20480860.495    20480869.885
       243.000         212.000
 01  2  5 22 30 30.0000000  0  6G 5G 9G30G 7G 4G24
  21554427.011   -12166732.13449  -9451462.25247  21554426.221    21554436.107
       237.000         195.000
  21679260.344     2495882.32949   1959856.47847  21679260.430    21679270.448
       237.000         198.000
  23819698.128    -7962799.48749  -5323966.68645  23819699.016    23819711.790
       214.000         148.000
  23477923.489     8292112.42349   6477431.38745  23477922.692    23477936.679
       221.000         161.000
  20783042.652     2181202.19849   1715963.13047  20783042.929    20783051.893
       243.000         208.000
  20476192.985    -7521227.07549  -5832760.86347  20476192.577    20476202.070
       245.000         212.000
 01  2  5 22 31  0.0000000  0  6G 5G 9G30G 7G 4G24
  21540931.927   -12237649.01349  -9506722.08447  21540930.794    21540941.304
       237.000         196.000
  21689543.762     2549921.84849   2001965.14347  21689543.581    21689553.685
       237.000         198.000
  23800862.948    -8061777.68149  -5401092.39745  23800863.715    23800877.787
       213.000         148.000
  23490537.911     8358401.24449   6529084.90845  23490536.550    23490550.605
       216.000         161.000
  20793163.171     2234385.69049   1757404.77547  20793163.562    20793172.651
       243.000         208.000
  20471627.859    -7545217.03349  -5851454.29747  20471627.517    20471636.992
       245.000         212.000
 01  2  5 22 31 30.0000000  0  6G 5G 9G30G 7G 4G24
  21527482.130   -12308327.71949  -9561796.33347  21527481.535    21527491.378
       237.000         196.000
  21699913.894     2604417.22849   2044429.02647  21699913.762    21699923.873
       238.000         198.000
  23782033.275    -8160728.07649  -5478196.43045  23782034.470    23782047.093
       216.000         147.000
  23503157.904     8424719.26049   6580761.16745  23503157.603    23503171.160
       215.000         159.000
  20803373.643     2288041.52749   1799214.47847  20803373.834    20803383.125
       243.000         208.000
  20467165.358    -7568667.22749  -5869727.13747  20467165.046    20467174.359
       245.000         211.000
 01  2  5 22 32  0.0000000  0  6G 5G 9G30G 7G 4G24
  21514078.036   -12378766.47749  -9616683.60547  21514077.154    21514087.264
       237.000         196.000
  21710370.376     2659365.86449   2087246.09747  21710370.104    21710380.497
       237.000         198.000
  23763208.983    -8259649.38249  -5555277.78745  23763210.622    23763221.582
       217.000         148.000
  23515783.457     8491066.08749   6632459.87645  23515782.642    23515797.020
       212.000         158.000
  20813673.475     2342167.15149   1841390.25247  20813673.654    20813682.937
       243.000         207.000
  20462805.520    -7591578.33949  -5887579.91247  20462805.225    20462814.503
       245.000         211.000
 01  2  5 22 32 30.0000000  0  6G 5G 9G30G 7G 4G24
  21500719.982   -12448963.48549  -9671382.49547  21500719.122    21500728.811
       238.000         196.000
  21720912.585     2714765.25949   2130414.40947  21720912.335    21720922.743
       237.000         198.000
  23744390.473    -8358540.18249  -5632335.36345  23744391.570    23744404.364
       216.000         150.000
  23528414.341     8557441.55249   6684180.89745  23528413.558    23528428.614
       208.000         156.000
  20824062.223     2396760.17649   1883930.23947  20824062.272    20824071.417
       243.000         207.000
  20458548.351    -7613949.85849  -5905012.22447  20458547.902    20458557.407
       245.000         211.000
 01  2  5 22 33  0.0000000  0  6G 5G 9G30G 7G 4G24
  21487408.493   -12518915.77449  -9725890.70847  21487407.767    21487417.463
       238.000         197.000
  21731540.237     2770613.70749   2173932.62347  21731540.008    21731549.993
       238.000         198.000
  23725578.463    -8457397.98249  -5709367.27445  23725578.694    23725593.459
       214.000         149.000
  23541050.685     8623846.31449   6735924.74145  23541050.380    23541063.620
       206.000         154.000
  20834539.545     2451818.73049   1926832.97047  20834539.598    20834548.721
       243.000         207.000
  20454393.882    -7635781.51849  -5922023.87247  20454393.468    20454402.928
       245.000         212.000
 01  2  5 22 33 30.0000000  0  6G 5G 9G30G 7G 4G24
  21474143.802   -12588621.75349  -9780206.98147  21474143.210    21474152.870
       238.000         197.000
  21742252.916     2826908.91649   2217798.97447  21742252.672    21742262.779
       238.000         197.000
  23706772.878    -8556221.26649  -5786372.26945  23706773.552    23706787.190
       217.000         149.000
  23553692.592     8690280.01049   6787691.12545  23553692.118    23553706.508
       208.000         153.000
  20845104.961     2507340.40849   1970096.58347  20845105.064    20845114.026
       243.000         206.000
  20450342.155    -7657073.46149  -5938614.95947  20450341.803    20450351.336
       245.000         212.000
 01  2  5 22 34  0.0000000  0  6G 5G 9G30G 7G 4G24
  21460926.419   -12658079.46549  -9834329.79847  21460925.660    21460935.622
       238.000         197.000
  21753050.119     2883648.52949   2262011.60647  21753050.027    21753059.793
       238.000         197.000
  23687974.247    -8655008.48949  -5863349.14145  23687974.946    23687986.915
       214.000         150.000
  23566339.952     8756742.38249   6839479.86645  23566339.703    23566354.212
       208.000         153.000
  20855758.104     2563322.71349   2013719.12647  20855758.099    20855767.189
       242.000         206.000
  20446393.011    -7677826.14449  -5954785.84647  20446392.697    20446402.201
       245.000         212.000
 01  2  5 22 34 30.0000000  0  6G 5G 9G30G 7G 4G24
  21447756.621   -12727286.98149  -9888257.65847  21447755.987    21447765.573
       238.000         198.000
  21763931.384     2940829.78849   2306568.38347  21763931.024    21763941.410
       238.000         197.000
  23669182.580    -8753758.20749  -5940296.78645  23669183.026    23669195.083
       213.000         150.000
  23578992.857     8823233.14249   6891290.74045  23578992.323    23579006.965
       209.000         154.000
  20866498.330     2619762.71549   2057698.31847  20866498.374    20866507.524
       242.000         206.000
  20442546.589    -7698039.24849  -5970536.27847  20442546.150    20442555.707
       245.000         212.000
 01  2  5 22 35  0.0000000  0  6G 5G 9G30G 7G 4G24
  21434634.862   -12796242.01449  -9941988.78047  21434633.952    21434643.831
       238.000         198.000
  21774896.260     2998450.51349   2351467.60047  21774896.113    21774906.090
       237.000         197.000
  23650398.462    -8852468.29149  -6017213.56345  23650397.790    23650412.915
       214.000         151.000
  23591651.150     8889752.40949   6943123.82845  23591651.000    23591664.941
       212.000         155.000
  20877325.316     2676658.64849   2102032.78147  20877325.498    20877334.484
       242.000         206.000
  20438802.778    -7717713.07849  -5985866.50147  20438802.252    20438811.808
       246.000         212.000
 01  2  5 22 35 30.0000000  0  6G 5G 9G30G 7G 4G24
  21421561.625   -12864942.13249  -9995521.26247  21421561.082    21421570.543
       238.000         198.000
  21785944.434     3056508.64849   2396707.65547  21785944.454    21785954.614
       238.000         197.000
  23631622.189    -8951137.01249  -6094098.10345  23631621.669    23631636.842
       213.000         151.000
  23604314.967     8956300.38349   6994979.30045  23604314.563    23604328.496
       215.000         157.000
  20888238.582     2734008.11749   2146720.65447  20888238.513    20888247.890
       242.000         205.000
  20435161.650    -7736847.34549  -6000776.28447  20435161.212    20435170.593
       245.000         212.000
 01  2  5 22 36  0.0000000  0  6G 5G 9G30G 7G 4G24
  21408537.254   -12933385.54949 -10048853.72247  21408536.329    21408546.123
       239.000         198.000
  21797075.332     3115001.72949   2442286.62947  21797075.299    21797085.527
       238.000         197.000
  23612854.259    -9049762.71849  -6170949.14045  23612853.372    23612867.461
       214.000         150.000
  23616984.184     9022876.88849   7046857.01245  23616984.182    23616998.035
       214.000         158.000
  20899237.640     2791808.52549   2191759.90847  20899237.629    20899246.796
       243.000         205.000
  20431623.049    -7755442.47749  -6015265.95947  20431622.642    20431632.081
       245.000         212.000
 01  2  5 22 36 30.0000000  0  6G 5G 9G30G 7G 4G24
  21395562.178   -13001569.83649 -10101984.26547  21395561.221    21395571.173
       239.000         199.000
  21808288.546     3173927.47149   2488202.74847  21808288.256    21808298.503
       237.000         196.000
  23594094.785    -9148343.63149  -6247765.23845  23594094.129    23594106.871
       213.000         150.000
  23629658.764     9089482.12349   7098757.10345  23629658.088    23629671.918
       215.000         157.000
  20910322.134     2850057.80349   2237148.93247  20910322.275    20910331.195
       243.000         206.000
  20428187.018    -7773498.63849  -6029335.66547  20428186.421    20428195.936
       245.000         212.000
 01  2  5 22 37  0.0000000  0  6G 5G 9G30G 7G 4G24
  21382636.807   -13069492.84149 -10154911.21147  21382635.969    21382645.739
       239.000         199.000
  21819583.624     3233283.59749   2534454.21747  21819583.537    21819593.546
       237.000         196.000
  23575344.166    -9246877.47749  -6324544.63745  23575344.209    23575358.316
       216.000         151.000
  23642338.807     9156115.91749   7150679.45745  23642338.440    23642352.543
       217.000         157.000
  20921491.623     2908753.48249   2282885.80547  20921491.853    20921500.672
       243.000         206.000
  20424853.716    -7791015.25349  -6042984.94347  20424853.418    20424862.545
       245.000         212.000
 01  2  5 22 37 30.0000000  0  6G 5G 9G30G 7G 4G24
  21369761.450   -13137152.86649 -10207633.23647  21369760.543    21369770.531
       238.000         199.000
  21830960.166     3293067.27149   2581038.85047  21830959.941    21830970.227
       237.000         196.000
  23556602.956    -9345362.93949  -6401286.38845  23556604.242    23556617.137
       214.000         151.000
  23655024.307     9222777.95049   7202623.80645  23655024.397    23655038.055
       218.000         157.000
  20932745.492     2967892.76549   2328968.34247  20932745.672    20932754.487
       243.000         206.000
  20421622.919    -7807993.05749  -6056214.37047  20421622.525    20421631.783
       245.000         212.000
 01  2  5 22 38  0.0000000  0  6G 5G 9G30G 7G 4G24
  21356936.545   -13204547.67549 -10260148.60347  21356935.781    21356945.506
       238.000         199.000
  21842417.594     3353276.28349   2627954.90547  21842417.439    21842427.744
       237.000         196.000
  23537871.206    -9443798.39849  -6477989.14845  23537871.171    23537884.491
       217.000         152.000
  23667715.165     9289468.42049   7254590.32245  23667714.672    23667728.732
       217.000         156.000
  20944083.326     3027473.40549   2375394.79147  20944083.283    20944092.408
       242.000         206.000
  20418494.588    -7824432.21449  -6069024.07547  20418494.041    20418503.657
       245.000         212.000
 01  2  5 22 38 30.0000000  0  6G 5G 9G30G 7G 4G24
  21344162.356   -13271675.90149 -10312456.23947  21344161.385    21344171.143
       239.000         199.000
  21853955.414     3413907.48449   2675199.95047  21853955.222    21853965.540
       236.000         196.000
  23519149.251    -9542182.54949  -6554651.93545  23519149.671    23519161.465
       217.000         152.000
  23680411.251     9356186.60449   7306578.43545  23680410.823    23680424.844
       217.000         154.000
  20955504.493     3087492.22749   2422162.68847  20955504.566    20955513.616
       242.000         206.000
  20415468.619    -7840333.35349  -6081414.53847  20415468.235    20415477.728
       245.000         212.000
 01  2  5 22 39  0.0000000  0  6G 5G 9G30G 7G 4G24
  21331439.510   -13338534.67149 -10364553.91347  21331438.462    21331448.481
       239.000         200.000
  21865573.148     3474959.07049   2722772.56447  21865572.779    21865583.443
       237.000         196.000
  23500437.438    -9640512.84449  -6631272.72845  23500437.496    23500449.505
       215.000         153.000
  23693112.734     9422933.08049   7358588.59745  23693112.010    23693127.053
       216.000         152.000
  20967008.762     3147947.42949   2469270.61447  20967008.892    20967017.852
       242.000         205.000
  20412545.046    -7855696.60649  -6093385.87247  20412544.749    20412554.155
       245.000         212.000
 01  2  5 22 39 30.0000000  0  6G 5G 9G30G 7G 4G24
  21318768.243   -13405122.17349 -10416440.20947  21318767.524    21318777.015
       239.000         200.000
  21877270.410     3536428.60049   2770670.84847  21877270.111    21877280.915
       236.000         195.000
  23481736.114    -9738787.48349  -6707850.14545  23481736.592    23481748.444
       217.000         153.000
  23705819.596     9489707.77049   7410620.73745  23705819.343    23705832.663
       216.000         152.000
  20978595.515     3208836.41449   2516716.55547  20978595.690    20978604.884
       242.000         205.000
  20409723.812    -7870522.15549  -6104938.21548  20409723.462    20409732.916
       245.000         213.000
 01  2  5 22 40  0.0000000  0  6G 5G 9G30G 7G 4G24
  21306149.105   -13471435.82549 -10468113.12047  21306148.211    21306158.043
       239.000         200.000
  21889046.780     3598314.00949   2818893.18947  21889046.618    21889057.219
       236.000         195.000
  23463046.000    -9837004.44849  -6784382.65645  23463045.941    23463058.497
       215.000         154.000
  23718531.924     9556511.05349   7462675.16245  23718530.963    23718546.408
       215.000         151.000
  20990264.453     3270157.22049   2564498.97147  20990264.362    20990273.724
       241.000         204.000
  20407004.939    -7884809.80049  -6116071.41148  20407004.585    20407013.963
       245.000         213.000
 01  2  5 22 40 30.0000000  0  6G 5G 9G30G 7G 4G24
  21293582.394   -13537473.92949 -10519571.32047  21293581.600    21293591.546
       239.000         200.000
  21900901.750     3660612.34549   2867437.28947  21900901.611    21900912.152
       236.000         195.000
  23444367.014    -9935162.42349  -6860869.18745  23444365.753    23444379.757
       216.000         154.000
  23731249.567     9623342.28949   7514751.35845  23731248.099    23731263.349
       213.000         149.000
  21002014.971     3331906.70349   2612615.42547  21002014.758    21002024.270
       241.000         203.000
  20404388.360    -7898560.22749  -6126785.99648  20404387.966    20404397.479
       246.000         213.000
 01  2  5 22 41  0.0000000  0  6G 5G 9G30G 7G 4G24
  21281068.576   -13603234.20249 -10570813.02847  21281067.753    21281077.542
       240.000         201.000
  21912834.917     3723321.22649   2916301.30347  21912834.940    21912844.942
       236.000         195.000
  23425699.698   -10033259.16149  -6937307.99545  23425699.476    23425713.258
       214.000         155.000
  23743972.561     9690201.89649   7566849.67645  23743969.942    23743985.594
       214.000         148.000
  21013846.687     3394082.65849   2661064.18847  21013846.727    21013856.090
       241.000         203.000
  20401873.874    -7911773.68549  -6137082.15648  20401873.337    20401882.943
       245.000         213.000
 01  2  5 22 41 30.0000000  0  6G 5G 9G30G 7G 4G24
  21268607.982   -13668714.81849 -10621836.82647  21268607.330    21268616.994
       239.000         201.000
  21924845.578     3786437.73949   2965482.95047  21924845.795    21924855.873
       236.000         195.000
  23407044.262   -10131293.07349  -7013697.86745  23407043.481    23407057.728
       213.000         156.000
  23756700.868     9757089.53149   7618969.81245  23756699.429    23756714.957
       212.000         148.000
  21025759.008     3456682.34249   2709843.13147  21025759.190    21025768.286
       241.000         203.000
  20399461.448    -7924450.46449  -6146960.13048  20399460.997    20399470.420
       245.000         213.000
 01  2  5 22 42  0.0000000  0  6G 5G 9G30G 7G 4G24
  21256201.120   -13733912.90949 -10672640.48047  21256200.389    21256210.273
       239.000         201.000
  21936933.495     3849960.12149   3014980.85547  21936933.487    21936944.055
       236.000         195.000
  23388401.258   -10229261.66849  -7090036.81745  23388400.797    23388413.811
       216.000         155.000
  23769434.681     9824005.89049   7671112.33545  23769432.904    23769448.907
       211.000         148.000
  21037751.683     3519704.08049   2758950.93847  21037751.758    21037761.223
       241.000         204.000
  20397151.212    -7936590.44349  -6156419.82048  20397150.826    20397160.221
       245.000         213.000
 01  2  5 22 42 30.0000000  0  6G 5G 9G30G 7G 4G24
  21243848.380   -13798826.86049 -10723222.72547  21243847.530    21243857.294
       240.000         202.000
  21949098.164     3913885.53649   3064792.81447  21949098.196    21949108.331
       236.000         194.000
  23369770.949   -10327163.60649  -7166323.85545  23369769.235    23369782.940
       215.000         155.000
  23782173.863     9890950.50749   7723276.88045  23782173.154    23782186.558
       212.000         149.000
  21049824.079     3583144.67649   2808385.12847  21049824.550    21049833.647
       241.000         204.000
  20394942.989    -7948194.70849  -6165462.06748  20394942.585    20394952.184
       245.000         213.000
 01  2  5 22 43  0.0000000  0  6G 5G 9G30G 7G 4G24
  21231550.025   -13863454.84349 -10773582.13847  21231549.384    21231558.775
       240.000         202.000
  21961338.941     3978211.02149   3114916.51147  21961338.841    21961349.393
       236.000         194.000
  23351153.613   -10424997.35349  -7242557.74145  23351153.053    23351166.206
       216.000         156.000
  23794918.358     9957923.11349   7775463.23345  23794918.021    23794932.795
       212.000         150.000
  21061975.624     3647001.21649   2858143.43447  21061975.768    21061985.129
       242.000         204.000
  20392836.574    -7959263.68749  -6174087.20448  20392836.333    20392845.548
       245.000         213.000
 01  2  5 22 43 30.0000000  0  6G 5G 9G30G 7G 4G24
  21219306.558   -13927794.50649 -10823716.88747  21219305.710    21219315.458
       240.000         202.000
  21973655.390     4042934.09849   3165350.02547  21973655.245    21973665.630
       235.000         194.000
  23332549.769   -10522760.53049  -7318736.68645  23332550.212    23332562.219
       218.000         156.000
  23807668.299    10024923.93449   7827671.58645  23807667.325    23807681.968
       212.000         151.000
  21074205.921     3711271.63849   2908224.24947  21074206.101    21074215.328
       242.000         203.000
  20390832.003    -7969797.96449  -6182295.69448  20390831.681    20390841.110
       245.000         213.000
 01  2  5 22 44  0.0000000  0  6G 5G 9G30G 7G 4G24
  21207118.391   -13991843.32649 -10873625.00947  21207117.678    21207127.345
       240.000         202.000
  21986047.089     4108052.93349   3216091.92347  21986047.046    21986057.309
       236.000         193.000
  23313959.857   -10620451.09249  -7394859.01445  23313958.582    23313972.436
       217.000         156.000
  23820423.642    10091953.29049   7879902.15445  23820423.284    23820437.931
       213.000         151.000
  21086514.582     3775953.68649   2958625.80547  21086514.680    21086524.023
       242.000         204.000
  20388929.136    -7979797.47749  -6190087.48348  20388928.718    20388938.096
       245.000         213.000
 01  2  5 22 44 30.0000000  0  6G 5G 9G30G 7G 4G24
  21194986.020   -14055599.19949 -10923304.85547  21194985.107    21194995.109
       240.000         203.000
  21998513.598     4173564.41149   3267139.76447  21998513.706    21998523.902
       236.000         193.000
  23295384.038   -10718067.27949  -7470923.40245  23295384.491    23295397.656
       217.000         157.000
  23833184.381    10159011.15849   7932154.94945  23833183.380    23833198.259
       212.000         152.000
  21098901.045     3841044.56749   3009345.93447  21098901.265    21098910.317
       241.000         204.000
  20387127.941    -7989262.78849  -6197463.01848  20387127.415    20387136.795
       245.000         213.000
 01  2  5 22 45  0.0000000  0  6G 5G 9G30G 7G 4G24
  21482702.836   -12543637.00549  -9745152.44047  21482702.105    21482711.793
       241.000         203.000
  22310846.611     5814884.92849   4546090.76347  22310846.422    22310856.847
       235.000         193.000
  23576616.005    -9240182.60949  -6319324.77345  23576615.479    23576628.764
       216.000         157.000
  24145742.774    11801516.34649   9212029.03145  24145742.021    24145756.210
       214.000         153.000
  21411157.041     5481960.77749   4287981.89947  21411157.114    21411166.403
       241.000         203.000
  20685220.989    -6422772.99549  -4976821.58748  20685220.320    20685230.052
       245.000         213.000
 01  2  5 22 45 30.0000000  0  6G 5G 9G30G 7G 4G24
  21470683.032   -12606801.24549  -9794371.27447  21470682.226    21470691.924
       240.000         203.000
  22323461.016     5881173.93749   4597744.47347  22323460.910    22323471.088
       236.000         193.000
  23558069.531    -9337644.38549  -6395268.84345  23558068.638    23558080.836
       214.000         157.000
  24158514.304    11868631.00649   9264326.07345  24158514.349    24158528.966
       214.000         154.000
  21423697.498     5547861.64849   4339333.18547  21423697.253    21423707.069
       241.000         202.000
  20683622.727    -6431171.52949  -4983365.87748  20683622.396    20683631.904
       245.000         213.000
 01  2  5 22 46  0.0000000  0  6G 5G 9G30G 7G 4G24
  21458720.091   -12669666.66949  -9843357.25847  21458719.158    21458728.981
       241.000         203.000
  22336148.660     5947847.68449   4649697.99147  22336148.426    22336158.657
       235.000         192.000
  23539538.189    -9435026.07549  -6471150.49545  23539536.818    23539549.917
       219.000         158.000
  24171291.312    11935774.12049   9316645.28845  24171291.053    24171305.230
       214.000         154.000
  21436314.268     5614163.65949   4390997.05347  21436314.228    21436323.562
       240.000         201.000
  20682125.899    -6439037.45449  -4989495.14448  20682125.652    20682134.963
       245.000         213.000
 01  2  5 22 46 30.0000000  0  6G 5G 9G30G 7G 4G24
  21446814.484   -12732230.85249  -9892108.50747  21446813.470    21446823.392
       241.000         203.000
  22348909.034     6014903.95749   4701949.56447  22348908.613    22348919.740
       234.000         192.000
  23521022.650    -9532325.42549  -6546967.99845  23521021.456    23521034.839
       216.000         158.000
  24184073.681    12002945.73749   9368986.71245  24184073.125    24184088.384
       214.000         155.000
  21449006.953     5680864.28949   4442971.53047  21449007.291    21449016.626
       240.000         201.000
  20680730.215    -6446371.68449  -4995210.09948  20680729.789    20680739.220
       243.000         213.000
 01  2  5 22 47  0.0000000  0  6G 5G 9G30G 7G 4G24
  21135173.598   -14369914.53549 -11168225.60247  21135172.794    21135182.275
       241.000         204.000
  22061949.505     4506921.32849   3526898.09847  22061949.670    22061960.184
       235.000         192.000
  23202729.845   -11204964.54249  -7850322.97045  23202729.315    23202742.574
       221.000         158.000
  23897069.437    10494727.49549   8193751.63645  23897069.783    23897083.256
       214.000         156.000
  21161982.889     4172542.48449   3267655.80347  21161983.024    21161992.525
       240.000         201.000
  20379643.065    -8028595.32549  -6228111.61648  20379642.857    20379652.041
       244.000         213.000
 01  2  5 22 47 30.0000000  0  6G 5G 9G30G 7G 4G24
  21123383.623   -14431870.80149 -11216503.14347  21123383.066    21123392.564
       241.000         204.000
  22074853.789     4574733.52749   3579738.70947  22074853.757    22074864.404
       234.000         192.000
  23184246.455   -11302094.36149  -7926008.35845  23184246.330    23184259.152
       221.000         159.000
  23909862.545    10561955.53249   8246137.02545  23909862.167    23909876.557
       214.000         155.000
  21174825.658     4240031.82749   3320244.85947  21174825.773    21174835.482
       239.000         201.000
  20378449.522    -8034867.54849  -6232999.03948  20378449.323    20378458.388
       244.000         213.000
 01  2  5 22 48  0.0000000  0  6G 5G 9G30G 7G 4G24
  21111652.304   -14493519.21649 -11264540.79747  21111651.738    21111661.103
       241.000         204.000
  22087829.338     4642920.37949   3632871.25947  22087829.494    22087839.901
       235.000         192.000
  23165779.897   -11399136.01949  -8001625.06645  23165780.674    23165792.280
       218.000         159.000
  23922661.160    10629212.68249   8298545.10345  23922660.757    23922675.826
       213.000         154.000
  21187742.891     4307912.36649   3373138.74447  21187742.901    21187752.489
       240.000         201.000
  20377356.827    -8040609.56649  -6237473.31548  20377356.430    20377365.861
       244.000         213.000
 01  2  5 22 48 30.0000000  0  6G 5G 9G30G 7G 4G24
  21099979.889   -14554858.03449 -11312337.21047  21099979.198    21099988.585
       241.000         204.000
  22100875.653     4711478.93749   3686293.44447  22100875.382    22100885.895
       235.000         191.000
  23147330.459   -11496087.73049  -8077171.65445  23147329.707    23147341.492
       220.000         159.000
  23935465.307    10696498.61249   8350975.61145  23935465.312    23935478.846
       212.000         153.000
  21200734.102     4376181.23949   3426335.23147  21200734.497    21200743.635
       241.000         201.000
  20376364.946    -8045821.80649  -6241534.78648  20376364.506    20376373.899
       244.000         213.000
 01  2  5 22 49  0.0000000  0  6G 5G 9G30G 7G 4G24
  21088366.840   -14615884.72949 -11359890.41147  21088366.018    21088375.580
       242.000         205.000
  22113992.250     4780406.95149   3740003.50747  22113992.262    22114002.666
       233.000         191.000
  23128898.663   -11592946.76349  -8152646.05445  23128897.537    23128910.874
       219.000         159.000
  23948275.016    10763813.73949   8403428.86345  23948274.904    23948288.781
       214.000         151.000
  21213798.833     4444836.29649   3479832.64247  21213799.302    21213808.301
       241.000         201.000
  20375473.825    -8050504.62149  -6245183.71448  20375473.433    20375482.789
       243.000         213.000
 01  2  5 22 49 30.0000000  0  6G 5G 9G30G 7G 4G24
  21076813.635   -14676597.13049 -11407198.70447  21076813.006    21076822.486
       242.000         205.000
  22127178.584     4849701.45649   3793999.16047  22127178.513    22127189.429
       234.000         191.000
  23110484.804   -11689711.45149  -8228046.92645  23110485.784    23110497.800
       221.000         160.000
  23961090.328    10831158.14949   8455904.93745  23961090.612    23961104.895
       212.000         151.000
  21226936.488     4513874.66249   3533628.72647  21226936.717    21226945.968
       240.000         201.000
  20374683.160    -8054659.37049  -6248421.16048  20374682.761    20374692.184
       243.000         213.000
 01  2  5 22 50  0.0000000  0  6G 5G 9G30G 7G 4G24
  21065320.508   -14736993.62049 -11454260.83347  21065319.863    21065329.129
       242.000         205.000
  22140434.076     4919359.27449   3848277.90247  22140434.466    22140444.623
       234.000         191.000
  23092089.123   -11786380.46749  -8303373.25245  23092088.810    23092101.678
       218.000         161.000
  23973911.035    10898531.13049   8508403.27545  23973911.327    23973926.352
       213.000         149.000
  21240146.399     4583293.26649   3587721.10247  21240146.712    21240156.147
       239.000         200.000
  20373992.825    -8058286.87849  -6251247.76848  20373992.459    20374001.799
       244.000         213.000
 01  2  5 22 50 30.0000000  0  6G 5G 9G30G 7G 4G24
  21053887.921   -14797071.96749 -11501075.05947  21053887.187    21053896.815
       242.000         205.000
  22153758.297     4989378.13249   3902837.97947  22153758.742    22153769.042
       234.000         191.000
  23073712.192   -11882951.40449  -8378623.18145  23073711.592    23073724.821
       217.000         161.000
  23986737.335    10965933.22849   8560924.30545  23986736.328    23986751.215
       212.000         149.000
  21253428.234     4653089.79449   3642107.95147  21253428.508    21253438.210
       240.000         201.000
  20373402.822    -8061387.38049  -6253663.72648  20373402.467    20373411.868
       244.000         213.000
 01  2  5 22 51  0.0000000  0  6G 5G 9G30G 7G 4G24
  21042516.260   -14856830.15749 -11547639.81147  21042515.640    21042524.922
       242.000         206.000
  22167150.610     5059754.97049   3957677.00347  22167150.801    22167161.164
       234.000         191.000
  23055354.124   -11979422.54349  -8453795.30445  23055354.100    23055367.575
       220.000         160.000
  23999569.143    11033364.29449   8613467.91145  23999568.405    23999582.325
       212.000         147.000
  21266781.511     4723261.47949   3696787.14047  21266781.534    21266791.509
       240.000         201.000
  20372912.880    -8063961.95849  -6255669.85948  20372912.546    20372921.838
       244.000         213.000
 01  2  5 22 51 30.0000000  0  6G 5G 9G30G 7G 4G24
  21031205.895   -14916266.26849 -11593953.59447  21031204.950    21031214.648
       242.000         206.000
  22180610.579     5130487.12749   4012792.89347  22180610.643    22180620.849
       233.000         190.000
  23037015.626   -12075791.58549  -8528887.90545  23037015.136    23037029.063
       219.000         161.000
  24012406.406    11100824.35649   8666034.09345  24012406.117    24012421.017
       210.000         146.000
  21280205.678     4793805.73549   3751756.64247  21280205.880    21280215.465
       240.000         201.000
  20372522.913    -8066011.06349  -6257266.53748  20372522.576    20372531.751
       244.000         213.000
 01  2  5 22 52  0.0000000  0  6G 5G 9G30G 7G 4G24
  21019957.255   -14975377.95249 -11640014.57647  21019956.527    21019965.754
       242.000         206.000
  22194137.635     5201572.08849   4068183.69647  22194137.488    22194148.903
       234.000         190.000
  23018696.893   -12172056.34149  -8603899.24745  23018696.828    23018709.520
       219.000         161.000
  24025249.291    11168313.77649   8718623.18945  24025248.147    24025263.119
       212.000         146.000
  21293700.245     4864719.86849   3807014.35647  21293700.558    21293710.037
       240.000         201.000
  20372232.753    -8067535.86249  -6258454.67048  20372232.437    20372241.809
       244.000         213.000
 01  2  5 22 52 30.0000000  0  6G 5G 9G30G 7G 4G24
  21008770.809   -15034162.98649 -11685821.02847  21008769.981    21008779.453
       242.000         206.000
  22207731.304     5273007.06949   4123847.23747  22207731.727    22207742.275
       233.000         190.000
  23000398.449   -12268214.78549  -8678827.74045  23000398.276    23000411.093
       219.000         162.000
  24038097.763    11235832.62749   8771235.19645  24038097.581    24038112.689
       210.000         144.000
  21307264.789     4936001.42349   3862558.37847  21307264.997    21307274.413
       239.000         200.000
  20372042.219    -8068537.16749  -6259234.88348  20372041.889    20372051.222
       244.000         213.000
 01  2  5 22 53  0.0000000  0  6G 5G 9G30G 7G 4G24
  20997646.916   -15092619.15249 -11731371.21847  20997645.882    20997655.489
       243.000         206.000
  22221391.139     5344789.51249   4179781.54047  22221390.811    22221402.434
       232.000         190.000
  22982120.602   -12364264.70349  -8753671.67345  22982119.840    22982132.669
       219.000         162.000
  24050951.882    11303381.06149   8823870.26345  24050950.493    24050965.915
       209.000         144.000
  21320898.744     5007648.00549   3918386.83447  21320898.809    21320908.242
       239.000         200.000
  20371951.143    -8069015.52049  -6259607.59448  20371950.692    20371960.134
       244.000         213.000
 01  2  5 22 53 30.0000000  0  7G 5G 9G30G10G 7G 4G24
  20986585.999   -15150744.46349 -11776663.60747  20986585.249    20986594.532
       243.000         207.000
  22235116.436     5416916.40349   4235984.23047  22235116.449    22235127.289
       232.000         189.000
  22963863.706   -12460204.65549  -8828429.92545  22963863.378    22963875.820
       218.000         162.000
                  -1529602.52049  -1168547.95844                  24160317.108
       209.000         127.000
  24063811.540    11370958.83849   8876528.18745  24063811.440    24063824.716
       208.000         142.000
  21334601.580     5079656.70949   3974497.46447  21334601.753    21334611.229
       239.000         199.000
  20371959.421    -8068971.86849  -6259573.55148  20371959.146    20371968.395
       244.000         214.000
 01  2  5 22 54  0.0000000  0  7G 5G 9G30G10G 7G 4G24
  20975588.489   -15208536.60549 -11821696.38547  20975587.693    20975596.993
       243.000         207.000
  22248906.911     5489385.50649   4292453.58147  22248906.692    22248917.813
       233.000         189.000
  22945628.322   -12556031.74449  -8903100.21745  22945629.761    22945640.700
       222.000         162.000
  24141023.929    -1630900.56349  -1247481.14245  24141022.988    24141040.327
       210.000         142.000
  24076676.962    11438566.66949   8929209.54445  24076675.235    24076690.639
       207.000         140.000
  21348372.897     5152025.28949   4030888.51347  21348372.929    21348382.330
       240.000         199.000
  20372066.957    -8068406.77749  -6259133.19048  20372066.742    20372076.051
       244.000         214.000
 01  2  5 22 54 30.0000000  0  7G 5G 9G30G10G 7G 4G24
  20964654.777   -15265993.42949 -11866467.87347  20964653.962    20964663.304
       243.000         207.000
  22262761.944     5562193.83049   4349187.27047  22262761.901    22262772.942
       232.000         189.000
  22927414.907   -12651743.91749  -8977680.98646  22927414.281    22927426.548
       219.000         163.000
  24121744.077    -1732217.06749  -1326428.74645  24121742.945    24121761.107
       207.000         144.000
  24089548.162    11506204.56449   8981914.32245  24089546.794    24089562.551
       206.000         139.000
  21362212.186     5224751.19149   4087557.99747  21362212.428    21362222.043
       239.000         199.000
  20372273.577    -8067321.01849  -6258287.11448  20372273.239    20372282.393
       244.000         214.000
 01  2  5 22 55  0.0000000  0  7G 5G 9G30G10G 7G 4G24
  20953785.242   -15323112.82949 -11910976.43747  20953784.417    20953793.798
       243.000         208.000
  22276680.964     5635338.45049   4406182.99647  22276680.725    22276691.756
       232.000         189.000
  22909223.521   -12747339.24049  -9052170.70246  22909223.115    22909235.238
       219.000         163.000
  24102461.174    -1833549.20749  -1405388.55845  24102460.983    24102476.933
       209.000         143.000
  24102424.977    11573872.55949   9034642.53445  24102423.839    24102439.398
       205.000         137.000
  21376118.974     5297831.52249   4144503.65347  21376119.081    21376128.838
       238.000         198.000
  20372579.060    -8065715.67449  -6257036.16848  20372578.787    20372588.004
       244.000         214.000
 01  2  5 22 55 30.0000000  0  7G 5G 9G30G10G 7G 4G24
  20942980.338   -15379892.84249 -11955220.54447  20942979.687    20942988.744
       243.000         208.000
  22290663.448     5708816.78149   4463438.75347  22290663.135    22290674.506
       233.000         188.000
  22891054.766   -12842815.66549  -9126567.75046  22891054.793    22891067.046
       222.000         163.000
  24083175.876    -1934894.06249  -1484358.26145  24083174.645    24083191.204
       207.000         143.000
  24115307.603    11641570.85249   9087394.38945  24115306.461    24115321.357
       206.000         135.000
  21390092.669     5371263.86349   4201723.60647  21390092.767    21390102.285
       239.000         197.000
  20372983.214    -8063591.74449  -6255381.12948  20372982.758    20372991.955
       244.000         214.000
 01  2  5 22 56  0.0000000  0  7G 5G 9G30G10G 7G 4G24
  20932240.314   -15436331.84849 -11999198.93747  20932239.562    20932248.746
       243.000         208.000
  22304708.924     5782625.47749   4520951.93847  22304708.711    22304719.645
       232.000         189.000
  22872909.100   -12938171.75049  -9200871.05746  22872908.865    22872920.276
       219.000         164.000
  24063888.468    -2036249.09849  -1563335.91145  24063886.838    24063903.987
       203.000         140.000
  24128195.796    11709298.81449   9140169.34945  24128196.787    24128209.469
       203.000         134.000
  21404132.754     5445044.72149   4259215.12747  21404132.917    21404142.321
       239.000         197.000
  20373485.713    -8060950.85249  -6253323.26148  20373485.360    20373494.638
       244.000         214.000
 01  2  5 22 56 30.0000000  0  7G 5G 9G30G10G 7G 4G24
  20921565.618   -15492427.49949 -12042909.78347  20921564.882    20921574.022
       243.000         208.000
  22318816.674     5856761.82949   4578720.44447  22318816.555    22318827.072
       232.000         189.000
  22854786.703   -13033405.09749  -9275078.68946  22854785.391    22854798.095
       222.000         164.000
  24044599.841    -2137611.46949  -1642319.26645  24044599.990    24044614.928
       205.000         138.000
  24141089.752    11777056.71449   9192967.61945  24141087.743    24141104.698
       205.000         133.000
  21418238.722     5519171.73849   4316976.39147  21418239.142    21418248.476
       240.000         197.000
  20374086.549    -8057793.42849  -6250862.90748  20374086.264    20374095.317
       244.000         214.000
 01  2  5 22 57  0.0000000  0  7G 5G 9G30G10G 7G 4G24
  20910956.646   -15548177.80149 -12086351.52147  20910955.797    20910965.120
       243.000         208.000
  22332986.186     5931223.03449   4636742.08647  22332986.095    22332997.380
       231.000         188.000
  22836688.045   -13128513.40249  -9349188.88446  22836687.160    22836699.461
       221.000         164.000
  24025310.261    -2238977.87649  -1721305.79645  24025309.035    24025325.683
       205.000         136.000
  24153989.451    11844844.71149   9245789.36744  24153987.572    24154004.463
       202.000         131.000
  21432410.185     5593642.48249   4375005.48947  21432410.691    21432419.747
       239.000         197.000
  20374785.434    -8054120.72849  -6248001.03848  20374785.170    20374794.170
       244.000         214.000
 01  2  5 22 57 30.0000000  0  7G 5G 9G30G10G 7G 4G24
  20900413.709   -15603580.97549 -12129522.77947  20900412.905    20900422.216
       243.000         208.000
  22347216.995     6006006.08649   4695014.49647  22347217.124    22347227.569
       233.000         188.000
  22818613.640   -13223494.90949  -9423200.30046  22818614.562    22818625.315
       220.000         165.000
  24006020.559    -2340345.40449  -1800293.21845  24006019.788    24006035.223
       211.000         140.000
  24166894.848    11912662.68449   9298634.45344  24166895.346    24166907.130
       201.000         130.000
  21446646.349     5668453.86949   4433300.01947  21446646.186    21446656.032
       239.000         197.000
  20375582.180    -8049933.67449  -6244738.37348  20375581.748    20375590.859
       243.000         214.000
 01  2  5 22 58  0.0000000  0  7G 5G 9G30G10G 7G 4G24
  20889937.515   -15658633.68649 -12172420.95247  20889936.718    20889946.111
       244.000         209.000
  22361508.726     6081109.21349   4753536.33146  22361508.890    22361519.883
       233.000         187.000
  22800563.879   -13318346.57449  -9497110.52346  22800562.889    22800575.361
       221.000         165.000
  23986731.368    -2441710.00149  -1879278.37245  23986730.002    23986746.475
       214.000         144.000
  24179806.150    11980511.86449   9351503.88144  24179805.399    24179820.302
       200.000         129.000
  21460946.961     5743604.25349   4491858.70547  21460946.676    21460956.838
       239.000         197.000
  20376476.660    -8045232.83749  -6241075.36248  20376476.239    20376485.443
       244.000         214.000
 01  2  5 22 58 30.0000000  0  7G 5G 9G30G10G 7G 4G24
  20879528.200   -15713334.76249 -12215045.12447  20879527.534    20879536.644
       244.000         209.000
  22375860.729     6156528.77449   4812304.72946  22375860.734    22375871.581
       232.000         187.000
  22782539.038   -13413066.63149  -9570918.17046  22782539.636    22782550.847
       222.000         165.000
  23967443.093    -2543069.50549  -1958259.54145  23967441.625    23967457.599
       214.000         150.000
  24192723.265    12048391.69449   9404397.17144  24192723.786    24192738.851
       198.000         128.000
  21475311.540     5819090.62549   4550679.19847  21475312.041    21475321.063
       238.000         196.000
  20377468.655    -8040019.62149  -6237013.09848  20377468.432    20377477.586
       244.000         214.000
 01  2  5 22 59  0.0000000  0  7G 5G 9G30G10G 7G 4G24
  20869186.147   -15767682.35349 -12257393.85147  20869185.414    20869194.505
       243.000         209.000
  22390272.264     6232261.56349   4871317.19946  22390271.907    22390283.471
       232.000         187.000
  22764539.592   -13507653.21549  -9644621.82146  22764538.418    22764551.389
       223.000         166.000
  23948156.396    -2644421.14449  -2037234.55945  23948155.377    23948171.003
       214.000         153.000
  24205646.258    12116301.89849   9457314.13044  24205645.440    24205658.828
       201.000         127.000
  21489739.470     5894909.53949   4609758.82147  21489739.793    21489749.282
       239.000         196.000
  20378557.988    -8034295.08649  -6232552.40348  20378557.758    20378566.998
       243.000         214.000
 01  2  5 22 59 30.0000000  0  7G 5G 9G30G10G 7G 4G24
  20858911.869   -15821673.89349 -12299465.13647  20858911.196    20858920.273
       244.000         209.000
  22404743.036     6308305.39549   4930572.04146  22404742.859    22404754.099
       230.000         187.000
  22746566.028   -13602104.28849  -9718219.88446  22746565.231    22746577.542
       221.000         166.000
  23928871.683    -2745761.64849  -2116200.88345  23928869.638    23928886.723
       206.000         151.000
  24218575.142    12184243.14649   9510255.28844  24218572.731    24218588.646
       199.000         126.000
  21504230.291     5971058.98649   4669096.00747  21504230.501    21504239.883
       238.000         196.000
  20379744.412    -8028060.21049  -6227694.04548  20379744.187    20379753.370
       244.000         214.000
 01  2  5 23  0  0.0000000  0  8G 6G 5G 9G30G10G 7G 4G24
  24854930.338    -5481498.81649  -4234315.97145  24854930.010    24854945.555
       201.000         137.000
  20848705.348   -15875309.36949 -12341258.97447  20848704.672    20848713.701
       245.000         209.000
  22419271.978     6384655.23749   4990065.34046  22419272.211    22419282.998
       231.000         186.000
  22728618.339   -13696419.18449  -9791711.84646  22728617.645    22728630.268
       220.000         167.000
  23909589.313    -2847089.68749  -2195157.46245  23909588.187    23909604.010
       204.000         148.000
  24231509.642    12252213.51849   9563219.14244  24231509.165    24231524.775
       204.000         125.000
  21518783.089     6047534.39149   4728687.17247  21518783.146    21518793.172
       238.000         197.000
  20381027.405    -8021317.94649  -6222440.32548  20381027.238    20381036.356
       244.000         214.000
 01  2  5 23  0 30.0000000  0  8G 6G 5G 9G30G10G 7G 4G24
  24841296.517    -5553143.46949  -4290142.78745  24841295.449    24841312.099
       204.000         138.000
  20838567.329   -15928584.82049 -12382772.26947  20838566.680    20838575.720
       246.000         210.000
  22433858.954     6461310.11149   5049796.31946  22433859.272    22433869.982
       229.000         186.000
  22710697.323   -13790594.04049  -9865094.67046  22710697.162    22710709.040
       221.000         167.000
  23890310.388    -2948400.31949  -2274100.48045  23890308.594    23890325.532
       210.000         147.000
  24244449.892    12320214.85049   9616207.11644  24244449.407    24244465.461
       200.000         123.000
  21533397.770     6124334.80049   4788531.59047  21533398.179    21533407.576
       237.000         197.000
  20382407.131    -8014067.58249  -6216790.67748  20382406.823    20382416.001
       244.000         214.000
 01  2  5 23  1  0.0000000  0  8G 6G 5G 9G30G10G 7G 4G24
  24827669.862    -5624751.10249  -4345940.75345  24827668.922    24827685.000
       206.000         141.000
  20828498.488   -15981496.86849 -12424002.39147  20828497.821    20828507.032
       246.000         210.000
  22448503.754     6538268.56249   5109763.86346  22448504.194    22448514.605
       232.000         186.000
  22692803.660   -13884625.29149  -9938365.58946  22692803.629    22692814.768
       221.000         167.000
  23871035.582    -3049689.06449  -2353026.52745  23871033.977    23871050.401
       215.000         148.000
  24257396.399    12388248.72449   9669220.47144  24257397.413    24257410.475
       196.000         120.000
  21548074.008     6201458.79049   4848628.15047  21548074.369    21548083.669
       237.000         197.000
  20383883.523    -8006309.34249  -6210745.28448  20383883.271    20383892.344
       244.000         214.000
 01  2  5 23  1 30.0000000  0  8G 6G 5G 9G30G10G 7G 4G24
  24814050.235    -5696322.69749  -4401710.66545  24814049.831    24814064.727
       210.000         142.000
  20818499.090   -16034044.02249 -12464948.17947  20818498.363    20818507.494
       246.000         210.000
  22463205.673     6615527.16249   5169965.27546  22463205.446    22463216.771
       231.000         185.000
  22674937.595   -13978511.54549 -10011523.54446  22674937.887    22674948.961
       223.000         168.000
  23851765.445    -3150953.60849  -2431933.72245  23851764.037    23851779.322
       214.000         151.000
  24270348.899    12456314.56648   9722258.73144  24270346.619    24270365.537
       194.000         117.000
  21562811.260     6278903.35949   4908974.51847  21562811.536    21562821.029
       238.000         196.000
  20385456.206    -7998044.81649  -6204305.38048  20385456.102    20385465.190
       244.000         214.000
 01  2  5 23  2  0.0000000  0  8G 6G 5G 9G30G10G 7G 4G24
  24800437.440    -5767858.23749  -4457452.49445  24800437.005    24800451.913
       205.000         140.000
  20808569.517   -16086224.18649 -12505607.99847  20808568.818    20808577.756
       246.000         210.000
  22477964.096     6693082.79949   5230398.14646  22477964.499    22477974.954
       231.000         185.000
  22657099.576   -14072250.45049 -10084566.66146  22657098.947    22657110.947
       223.000         168.000
  23832500.438    -3252190.74849  -2510819.53745  23832498.744    23832515.251
       212.000         154.000
  24283307.545    12524412.70948   9775322.11044  24283304.338    24283317.739
       192.000         116.000
  21577608.975     6356665.88649   4969568.65147  21577609.352    21577618.778
       237.000         195.000
  20387125.047    -7989274.92849  -6197471.69248  20387124.777    20387133.941
       244.000         214.000
 01  2  5 23  2 30.0000000  0  8G 6G 5G 9G30G10G 7G 4G24
  24786831.142    -5839358.58149  -4513166.86445  24786830.324    24786845.660
       203.000         138.000
  20798709.984   -16138036.15449 -12545980.91347  20798709.213    20798718.055
       246.000         210.000
  22492778.375     6770932.10349   5291059.84746  22492778.204    22492789.759
       230.000         185.000
  22639289.948   -14165840.36249 -10157493.67746  22639289.866    22639301.333
       224.000         169.000
  23813240.994    -3353398.49849  -2589682.40845  23813239.477    23813255.168
       211.000         156.000
  24296272.389    12592542.74448   9828410.38144  24296271.741    24296288.215
       189.000         116.000
  21592466.610     6434742.89149   5030407.82847  21592467.006    21592476.309
       236.000         195.000
  20388889.677    -7980001.50149  -6190245.63448  20388889.296    20388898.579
       244.000         214.000
 01  2  5 23  3  0.0000000  0  8G 6G 5G 9G30G10G 7G 4G24
  24773231.627    -5910823.58949  -4568853.72445  24773229.730    24773245.700
       205.000         139.000
  20788920.973   -16189477.36749 -12586064.92447  20788920.300    20788929.318
       246.000         210.000
  22507648.161     6849072.65249   5351948.49446  22507648.059    22507659.159
       229.000         185.000
  22621509.141   -14259278.76949 -10230302.66246  22621509.805    22621519.517
       225.000         169.000
  23793987.803    -3454573.13049  -2668519.45345  23793986.386    23794003.190
       211.000         156.000
  24309243.277    12660704.98648   9881523.76644  24309246.249    24309258.880
       190.000         111.000
  21607383.622     6513132.12849   5091490.30347  21607384.079    21607393.778
       237.000         195.000
  20390750.019    -7970225.43249  -6182627.90848  20390749.748    20390758.811
       244.000         214.000
 01  2  5 23  3 30.0000000  0  8G 6G 5G 9G30G10G 7G 4G24
  24759638.815    -5982254.05449  -4624513.67645  24759638.759    24759655.025
       208.000         140.000
  20779202.834   -16240546.25349 -12625858.81047  20779202.138    20779211.161
       246.000         211.000
  22522572.683     6927501.01949   5413061.41046  22522572.567    22522583.707
       229.000         184.000
  22603757.428   -14352563.94749 -10302992.24246  22603756.905    22603769.485
       222.000         170.000
  23774741.453    -3555712.01549  -2747328.69245  23774740.220    23774755.090
       213.000         153.000
  24322220.106    12728899.07148   9934661.99644  24322219.858    24322235.639
       191.000         112.000
  21622359.479     6591830.48949   5152813.65547  21622359.912    21622369.578
       237.000         194.000
  20392705.680    -7959948.40549  -6174619.82148  20392705.294    20392714.464
       244.000         214.000
 01  2  5 23  4  0.0000000  0  8G 6G 5G 9G30G10G 7G 4G24
  24746052.630    -6053649.36749  -4680146.23045  24746050.516    24746067.135
       205.000         140.000
  20769556.160   -16291239.87649 -12665360.28147  20769555.416    20769564.424
       246.000         211.000
  22537551.472     7006215.13049   5474396.98946  22537551.728    22537562.633
       230.000         184.000
  22586035.441   -14445692.79649 -10375560.00546  22586034.793    22586045.978
       224.000         170.000
  23755502.802    -3656811.13849  -2826107.01745  23755501.399    23755515.902
       217.000         150.000
  24335203.369    12797126.11748   9987825.89044                  24335203.000
       190.000         107.000
  21637393.802     6670836.09849   5214376.42347  21637394.054    21637403.585
       236.000         194.000
  20394756.507    -7949171.19749  -6166221.98548  20394756.114    20394765.254
       244.000         214.000
 01  2  5 23  4 30.0000000  0  8G 6G 5G 9G30G10G 7G 4G24
  24732472.865    -6125010.17349  -4735751.89645  24732471.266    24732488.256
       203.000         140.000
  20759981.148   -16341556.86349 -12704568.26847  20759980.405    20759989.584
       247.000         211.000
  22552584.071     7085211.52849   5535952.52746  22552584.131    22552595.307
       230.000         184.000
  22568343.491   -14538663.67749 -10448004.67246  22568343.291    22568353.703
       224.000         170.000
  23736272.300    -3757867.92349  -2904852.35545  23736270.642    23736285.953
       218.000         151.000
                  12865385.66248  10041015.10644
       187.000         105.000
  21652486.035     6750145.86949   5276176.20447  21652486.386    21652496.054
       237.000         193.000
  20396902.257    -7937895.13549  -6157435.42948  20396901.939    20396911.041
       244.000         214.000
 01  2  5 23  5  0.0000000  0  8G 6G 5G 9G30G10G 7G 4G24
  24718899.844    -6196336.36949  -4791330.58045  24718898.433    24718914.571
       208.000         141.000
  20750478.230   -16391495.01249 -12743481.06247  20750477.493    20750486.495
       246.000         211.000
  22567669.747     7164487.32349   5597725.77346  22567669.897    22567681.279
       229.000         184.000
  22550682.079   -14631474.10949 -10520324.32946  22550681.258    22550693.480
       224.000         170.000
  23717050.197    -3858879.11249  -2983562.10045  23717047.799    23717063.893
       210.000         153.000
  24361188.376    12933677.94048  10094229.83344  24361188.890    24361201.618
       182.000         106.000
  21667635.632     6829757.21049   5338210.97447  21667636.038    21667645.225
       237.000         193.000
  20399142.624    -7926121.83749  -6148261.41948  20399142.288    20399151.360
       244.000         214.000
 01  2  5 23  5 30.0000000  0  8G 6G 5G 9G30G10G 7G 4G24
  24705333.257    -6267628.54049  -4846882.72145  24705332.794    24705348.930
       208.000         143.000
  20741047.673   -16441052.62549 -12782097.33347  20741046.832    20741055.974
       245.000         211.000
  22582808.069     7244039.29749   5659714.23046  22582807.708    22582819.165
       228.000         183.000
  22533051.547   -14724122.34349 -10592517.60646  22533051.153    22533062.005
       224.000         171.000
  23697837.120    -3959842.14149  -3062234.25045  23697835.720    23697852.315
       214.000         155.000
  24374190.122    13002002.75648  10147469.90844                  24374188.131
       184.000         103.000
  21682842.028     6909667.13049   5400478.39947  21682841.871    21682852.028
       236.000         193.000
  20401477.386    -7913852.53749  -6138700.91248  20401477.071    20401486.475
       244.000         214.000
 01  2  5 23  6  0.0000000  0  8G 6G 5G 9G30G10G 7G 4G24
  24691773.192    -6338886.53549  -4902408.29845  24691772.342    24691789.047
       205.000         142.000
  20731689.911   -16490227.47449 -12820415.34747  20731689.140    20731698.294
       246.000         211.000
  22597998.382     7323864.86049   5721915.86646  22597998.131    22598010.165
       229.000         182.000
  22515452.374   -14816605.78149 -10664582.46546  22515452.077    22515463.301
       224.000         171.000
  23678634.336    -4060753.44449  -3140866.17945  23678633.563    23678648.615
       223.000         162.000
                  13070360.66048  10200735.75144
       182.000         104.000
  21698104.735     6989873.21949   5462976.60247  21698104.365    21698114.931
       235.000         192.000
  20403906.317    -7901088.30949  -6128754.74348  20403905.810    20403915.222
       244.000         214.000
 01  2  5 23  6 30.0000000  0  8G 6G 5G 9G30G10G 7G 4G24
  24678219.383    -6410110.62449  -4957907.43045  24678218.875    24678234.443
       208.000         140.000
  20722405.417   -16539017.64849 -12858433.61647  20722404.598    20722413.658
       246.000         211.000
  22613240.288     7403961.15549   5784328.45946  22613240.899    22613251.648
       228.000         182.000
  22497885.053   -14908922.23649 -10736517.20146  22497884.419    22497895.945
       223.000         171.000
  23659441.912    -4161610.05449  -3219455.57245  23659441.030    23659455.216
       219.000         159.000
                  13138751.74248  10254027.45444
       183.000         102.000
  21713423.200     7070372.71149   5525703.42647  21713423.640    21713433.324
       235.000         191.000
  20406429.190    -7887830.45049  -6118423.93148  20406428.863    20406437.889
       244.000         214.000
 01  2  5 23  7  0.0000000  0  8G 6G 5G 9G30G10G 7G 4G24
  24664672.276    -6481301.24249  -5013380.49245  24664671.673    24664687.424
       208.000         139.000
  20713194.432   -16587421.29649 -12896150.69947  20713193.654    20713202.786
       246.000         211.000
  22628533.039     7484324.79949   5846949.37746  22628533.252    22628544.695
       230.000         182.000
  22480349.887   -15001069.71649 -10808320.28046  22480350.187    22480361.186
       225.000         172.000
  23640260.333    -4262408.91649  -3297999.94745  23640256.801    23640274.289
       209.000         149.000
                  13207175.93848   5951149.08543
       185.000          74.000
  21728797.159     7151162.96249   5588656.81247  21728797.387    21728807.091
       236.000         190.000
  20409045.654    -7874080.70349  -6107709.82948  20409045.332    20409054.442
       243.000         214.000
 01  2  5 23  7 30.0000000  0  8G 6G 5G 9G30G10G 7G 4G24
  24651131.552    -6552457.72349  -5068826.95545  24651130.438    24651146.605
       207.000         142.000
  20704057.607   -16635435.57649 -12933564.37447  20704056.700    20704065.928
       246.000         211.000
  22643876.285     7564953.64949   5909776.94646  22643876.391    22643887.902
       228.000         182.000
  22462847.448   -15093045.14049 -10879989.29246  22462847.824    22462858.381
       225.000         172.000
  23621090.328    -4363146.38849  -3376496.42345  23621089.180    23621105.045
       218.000         153.000
                  13275634.09648   6004471.57243
       179.000          74.000
  21744226.071     7232241.95249   5651835.20147  21744226.205    21744235.668
       235.000         190.000
  20411755.568    -7859839.72149  -6096612.94848  20411755.306    20411764.433
       243.000         213.000
 01  2  5 23  8  0.0000000  0  8G 6G 5G 9G30G10G 7G 4G24
  24637596.979    -6623580.96349  -5124247.49045  24637596.397    24637611.977
       207.000         143.000
  20694995.114   -16683059.18649 -12970673.63147  20694994.394    20695003.203
       246.000         211.000
  22659269.303     7645844.42749   5972808.62446  22659269.624    22659280.811
       229.000         182.000
  22445378.047   -15184846.87649 -10951522.95746  22445377.359    22445388.704
       224.000         172.000
  23601932.882    -4463819.61749  -3454942.88746  23601931.903    23601947.391
       220.000         166.000
                  13344125.70548   6057815.31943
       180.000          74.000
  21759709.243     7313606.34949   5715235.98047  21759709.197    21759719.317
       234.000         190.000
  20414558.661    -7845109.16149  -6085134.57748  20414558.305    20414567.523
       244.000         214.000
 01  2  5 23  8 30.0000000  0  8G 6G 5G 9G30G10G 7G 4G24
  24624068.940    -6694670.95649  -5179642.12845  24624069.042    24624084.775
       206.000         142.000
  20686007.356   -16730289.90049 -13007476.74047  20686006.586    20686015.554
       246.000         212.000
  22674711.669     7726994.05449   6036041.99546  22674711.544    22674723.090
       229.000         182.000
  22427942.120   -15276472.41449 -11022919.32546  22427942.508    22427953.226
       226.000         173.000
  23582788.105    -4564425.49149  -3533336.84045  23582786.527    23582801.440
       212.000         162.000
                  13412651.26848   6019388.55543
       179.000          74.000
  21775246.244     7395253.68949   5778857.22247  21775246.331    21775256.137
       235.000         189.000
  20417454.618    -7829890.72449  -6073276.04648  20417454.301    20417463.654
       244.000         214.000
 01  2  5 23  9  0.0000000  0  8G 6G 5G 9G30G10G 7G 4G24
  24910340.223    -5190304.61149  -4007408.46245  24910339.271    24910354.508
       207.000         141.000
  20976887.729   -15201703.16749 -11816370.15347  20976887.113    20976895.883
       246.000         212.000
  22989994.880     9383817.78149   7327073.35946  22989995.028    22990005.948
       228.000         181.000
  22710333.475   -13792495.48949  -9866573.53346  22710333.273    22710344.454
       224.000         173.000
  23863449.792    -3089536.54349  -2384072.54245  23863446.500    23863460.802
       208.000         149.000
                  15056629.62148   7300468.67543
       182.000          74.000
  22090628.662     9052599.60949   7070295.54047  22090629.076    22090638.474
       235.000         189.000
  20720235.730    -6238765.27349  -4833438.02448  20720235.569    20720244.635
       244.000         214.000
 01  2  5 23  9 30.0000000  0  8G 6G 5G 9G30G10G 7G 4G24
  24896824.461    -5261328.47349  -4062751.57945  24896824.567    24896839.165
       209.000         141.000
  20968050.635   -15248142.22949 -11852556.39147  20968050.011    20968058.823
       246.000         212.000
  23005534.202     9465476.56549   7390703.47946  23005534.020    23005545.749
       227.000         181.000
  22692966.032   -13883761.56149  -9937689.80246  22692965.757    22692977.213
       226.000         173.000
  23844332.221    -3189998.25849  -2462354.23445  23844331.403    23844346.284
       213.000         148.000
                  15125223.56458   7353997.50643
       172.000          74.000
  22106271.908     9134805.10849   7134351.71347  22106271.796    22106281.593
       235.000         189.000
  20723316.727    -6222574.86449  -4820822.11148  20723316.507    20723325.501
       244.000         214.000
 01  2  5 23 10  0.0000000  0  8G 6G 5G 9G30G10G 7G 4G24
  24883315.270    -5332319.67549  -4118069.23045  24883314.870    24883330.138
       207.000         142.000
  20959289.432   -15294182.50849 -11888431.89347  20959288.666    20959297.539
       245.000         212.000
  23021121.017     9547385.70949   7454528.67446  23021120.680    23021132.986
       227.000         180.000
  22675633.365   -13974844.79549 -10008663.61146  22675632.476    22675644.450
       224.000         173.000
  23825229.630    -3290382.91849  -2540575.82645  23825228.687    23825243.344
       222.000         161.000
                  15193851.95158   7314541.19843
       174.000          74.000
  22121967.426     9217285.57249   7198622.15047  22121967.521    22121977.329
       235.000         189.000
  20726489.782    -6205900.33149  -4807828.96448  20726489.570    20726498.600
       244.000         214.000
 01  2  5 23 10 30.0000000  0  8G 6G 5G 9G30G10G 7G 4G24
  24869812.236    -5403278.47649  -4173361.61445  24869811.408    24869827.572
       208.000         144.000
  20950604.421   -15339822.28549 -11923995.31547  20950603.439    20950612.662
       245.000         212.000
  23036754.887     9629541.86949   7518546.35246  23036754.976    23036766.608
       227.000         180.000
  22658335.869   -14065742.72949 -10079493.02846  22658336.250    22658346.079
       225.000         173.000
  23806142.283    -3390687.89549  -2618735.37545  23806141.201    23806155.161
       213.000         158.000
                  15262514.58048   7367954.19243
       170.000          74.000
  22137714.727     9300038.22249   7263104.67347  22137714.749    22137725.187
       235.000         189.000
  20729754.582    -6188743.73049  -4794460.18148  20729754.400    20729763.278
       244.000         214.000
 01  2  5 23 11  0.0000000  0  8G 6G 5G 9G30G10G 7G 4G24
  24856315.203    -5474204.88949  -4228628.75545  24856314.002    24856329.915
       207.000         143.000
  20941996.014   -15385059.46849 -11959245.02747  20941995.228    20942004.140
       244.000         212.000
  23052435.168     9711942.22449   7582754.30946  23052435.021    23052446.452
       227.000         180.000
  22641074.181   -14156452.55649 -10150175.86346  22641073.811    22641084.226
       226.000         174.000
  23787070.258    -3490909.93249  -2696830.25645  23787068.165    23787083.669
       211.000         151.000
                  15331211.93658   7421346.01143
       165.000          74.000
  22153513.455     9383060.68449   7327797.43947  22153513.692    22153523.930
       236.000         190.000
  20733110.870    -6171106.33749  -4780716.75148  20733110.516    20733119.698
       244.000         214.000
 01  2  5 23 11 30.0000000  0  8G 6G 5G 9G30G10G 7G 4G24
  24543031.234    -7120522.04849  -5511473.11145  24543029.654    24543046.964
       206.000         142.000
  20633671.698   -17005314.40149 -13221781.30047  20633671.157    20633679.787
       245.000         212.000
  22768369.308     8219165.71249   6419551.72246  22768369.136    22768381.313
       228.000         179.000
  22324055.458   -15822396.48549 -11448313.86246  22324055.188    22324065.831
       226.000         174.000
  23468221.618    -5166469.44249  -4002460.75945  23468220.929    23468235.527
       216.000         156.000
                  13824525.83457   6153850.98843
       152.000          74.000
  21869570.968     7890932.11049   6165099.78347  21869571.021    21869581.122
       237.000         191.000
  20436765.873    -7728409.75349  -5994199.93148  20436765.402    20436774.987
       244.000         214.000
 01  2  5 23 12  0.0000000  0  7G 6G 5G 9G30G10G 4G24
  24529546.036    -7191386.67449  -5566692.11745  24529546.578    24529561.168
       207.000         144.000
  20625217.141   -17049743.09949 -13256401.02747  20625216.440    20625225.382
       244.000         212.000
  22784140.480     8302043.12649   6484131.41646  22784140.708    22784152.123
       227.000         179.000
  22306866.094   -15912726.89249 -11518701.04946  22306865.838    22306877.132
       227.000         174.000
  23449183.090    -5266517.72649  -4080420.25845  23449182.279    23449194.030
       219.000         154.000
  21885470.356     7974483.60849   6230204.78347  21885470.334    21885480.293
       235.000         190.000
  20440303.853    -7709817.22149  -5979712.24348  20440303.402    20440312.817
       244.000         214.000
 01  2  5 23 12 30.0000000  0  7G 6G 5G 9G30G10G 4G24
  24516067.218    -7262218.50649  -5621885.58945  24516067.010    24516081.396
       208.000         145.000
  20616840.495   -17093762.39549 -13290701.73847  20616839.969    20616848.956
       245.000         212.000
  22799956.448     8385156.66549   6548895.09446  22799956.858    22799968.045
       225.000         178.000
  22289713.927   -16002861.76149 -11588935.89046  22289713.722    22289724.406
       227.000         175.000
  23430162.170    -5366472.56149  -4158306.97045  23430159.608    23430176.237
       211.000         154.000
  21901419.832     8058298.06349   6295514.68847  21901419.803    21901429.662
       234.000         189.000
  20443932.651    -7690747.86749  -5964853.00948  20443932.450    20443941.595
       245.000         214.000
 01  2  5 23 13  0.0000000  0  7G 6G 5G 9G30G10G 4G24
  24502594.467    -7333017.23349  -5677053.25045  24502592.988    24502608.736
       208.000         144.000
  20608542.244   -17137369.91149 -13324681.58147  20608541.713    20608550.641
       245.000         212.000
  22815817.015     8468503.92749   6613840.89746  22815817.198    22815829.047
       226.000         178.000
  22272599.529   -16092798.32849 -11659016.19146  22272599.140    22272610.380
       228.000         175.000
  23411159.512    -5466330.13449  -4236117.66645  23411159.062    23411174.056
       216.000         157.000
  21917418.792     8142372.97949   6361027.54547  21917418.827    21917428.823
       234.000         188.000
  20447652.050    -7671202.42149  -5949622.79048  20447651.825    20447660.876
       244.000         214.000
 01  2  5 23 13 30.0000000  0  7G 6G 5G 9G30G10G 4G24
  24489127.775    -7403784.10749  -5732196.09345  24489127.390    24489143.118
       208.000         144.000
  20600322.563   -17180564.66749 -13358339.79648  20600321.824    20600330.820
       245.000         213.000
  22831721.355     8552081.00749   6678965.77446  22831721.188    22831733.307
       225.000         178.000
  22255523.053   -16182535.02749 -11728940.77546  22255522.902    22255533.466
       227.000         176.000
  23392176.300    -5566087.93249  -4313850.75245  23392175.184    23392189.274
       221.000         161.000
  21933466.719     8226705.00749   6426740.75147  21933466.777    21933477.080
       234.000         189.000
  20451461.638    -7651183.13549  -5934023.34948  20451461.438    20451470.547
       244.000         214.000
 01  2  5 23 14  0.0000000  0  7G 6G 5G 9G30G10G 4G24
  24475667.135    -7474518.90849  -5787313.96545  24475666.379    24475681.805
       209.000         145.000
  20592181.877   -17223344.46949 -13391674.66648  20592181.349    20592189.864
       245.000         213.000
  22847668.867     8635885.31849   6744267.71946  22847668.378    22847680.711
       226.000         177.000
  22238485.176   -16272069.44649 -11798707.73946  22238484.797    22238495.491
       227.000         176.000
  23373212.497    -5665742.75549  -4391503.65245  23373210.913    23373224.280
       216.000         154.000
  21949563.106     8311291.73849   6492652.42447  21949563.204    21949572.922
       233.000         189.000
  20455361.127    -7630691.38449  -5918055.74948  20455360.838    20455369.811
       244.000         214.000
 01  2  5 23 14 30.0000000  0  7G 6G 5G 9G30G10G 4G24
  24462212.704    -7545222.30549  -5842407.40245  24462212.563    24462226.290
       208.000         144.000
  20584120.391   -17265707.92149 -13424685.10948  20584119.660    20584128.559
       246.000         213.000
  22863658.899     8719913.43149   6809744.05046  22863658.349    22863671.216
       225.000         177.000
  22221486.058   -16361399.58649 -11868315.52046  22221485.666    22221497.394
       228.000         177.000
  23354268.752    -5765291.80949  -4469074.09945  23354267.057    23354282.039
       218.000         157.000
  21965707.378     8396130.11449   6558760.18647  21965707.477    21965717.655
       233.000         189.000
  20459350.197    -7609728.77849  -5901721.25248  20459349.847    20459359.075
       244.000         214.000
 01  2  5 23 15  0.0000000  0  7G 6G 5G 9G30G10G 4G24
  24448764.211    -7615894.28349  -5897476.34845  24448763.693    24448778.785
       205.000         144.000
  20576138.465   -17307653.23049 -13457369.71948  20576137.806    20576146.387
       245.000         213.000
  22879690.952     8804162.19649   6875392.32146  22879691.339    22879702.649
       225.000         177.000
  22204526.327   -16450523.18249 -11937762.36846  22204526.436    22204536.838
       229.000         177.000
  23335345.611    -5864732.17249  -4546559.77745  23335343.558    23335359.083
       214.000         158.000
  21981899.020     8481217.48249   6625061.96747  21981899.448    21981909.294
       233.000         188.000
  20463428.412    -7588297.60149  -5885021.62948  20463428.163    20463437.269
       244.000         214.000
 01  2  5 23 15 30.0000000  0  7G 6G 5G 9G30G10G 4G24
  24435321.580    -7686535.09349  -5952521.00345  24435320.580    24435335.890
       207.000         143.000
  20568236.466   -17349178.35849 -13489726.91948  20568235.757    20568244.459
       245.000         213.000
  22895764.515     8888628.94349   6941210.44346  22895765.042    22895776.048
       227.000         176.000
  22187606.414   -16539437.38449 -12007046.05146  22187606.240    22187616.847
       229.000         177.000
  23316443.904    -5964060.31349  -4623958.10246  23316442.872    23316457.138
       222.000         164.000
  21998137.531     8566551.27149   6691555.76547  21998137.346    21998148.096
       234.000         188.000
  20467595.576    -7566399.01449  -5867957.79148  20467595.279    20467604.332
       244.000         214.000
 01  2  5 23 16  0.0000000  0  7G 6G 5G 9G30G10G 4G24
  24421885.137    -7757144.93149  -6007541.51745  24421884.721    24421898.884
       208.000         145.000
  20560414.704   -17390281.77749 -13521755.51548  20560414.052    20560422.755
       245.000         213.000
  22911879.029     8973310.44549   7007195.90546  22911879.366    22911891.038
       226.000         176.000
  22170726.766   -16628140.28649 -12076165.08346  22170727.265    22170736.997
       230.000         178.000
  23297564.260    -6063273.19249  -4701266.55945  23297562.963    23297576.700
       214.000         161.000
  22014422.505     8652128.68549   6758239.41547  22014423.002    22014432.300
       234.000         188.000
  20471851.327    -7544034.79249  -5850531.11548  20471851.042    20471859.949
       244.000         214.000
 01  2  5 23 16 30.0000000  0  7G 6G 5G 9G30G10G 4G24
  24408454.523    -7827723.70249  -6062537.83745  24408454.019    24408468.337
       210.000         146.000
  20552673.667   -17430961.13749 -13553453.67748  20552672.811    20552681.581
       245.000         213.000
  22928033.797     9058203.61149   7073346.29846  22928034.192    22928045.482
       226.000         176.000
  22153887.799   -16716629.35549 -12145117.48246  22153887.263    22153897.815
       230.000         178.000
  23278706.987    -6162367.54549  -4778482.77945  23278706.347    23278719.710
       223.000         157.000
  22030753.401     8737947.50249   6825111.16247  22030753.477    22030763.524
       234.000         188.000
  20476195.336    -7521206.86149  -5832743.10848  20476195.005    20476203.896
       245.000         214.000
 01  2  5 23 17  0.0000000  0  7G 6G 5G 9G30G10G 4G24
  24395029.612    -7898271.70149  -6117510.17945  24395028.443    24395043.582
       209.000         145.000
  20545013.640   -17471214.63749 -13584820.00048  20545012.934    20545021.690
       246.000         213.000
  22944228.325     9143305.69149   7139659.48046  22944228.831    22944240.115
       225.000         176.000
  22137089.940   -16804902.34349 -12213901.51146  22137089.952    22137100.714
       230.000         179.000
  23259873.210    -6261339.61549  -4855603.67146  23259872.036    23259886.952
       218.000         166.000
  22047129.648     8824005.17449   6892169.02646  22047129.790    22047140.296
       232.000         187.000
  20480627.515    -7497916.07949  -5814594.43148  20480627.287    20480636.234
       245.000         214.000
 01  2  5 23 17 30.0000000  0  7G 6G 5G 9G30G10G 4G24
  24381610.494    -7968789.05949  -6172458.62245  24381609.283    24381624.463
       207.000         145.000
  20537434.979   -17511040.61049 -13615853.18148  20537434.210    20537443.006
       245.000         213.000
  22960462.062     9228613.71549   7206133.14246  22960463.252    22960473.703
       226.000         176.000
  22120333.710   -16892956.86949 -12282515.30946  22120333.981    22120343.255
       230.000         179.000
  23241062.872    -6360186.76149  -4932627.05546  23241062.787    23241076.082
       222.000         168.000
  22063550.779     8910298.87449   6959410.80746  22063550.622    22063560.975
       232.000         185.000
  20485147.261    -7474164.51749  -5796086.70148  20485146.838    20485156.007
       244.000         214.000
 01  2  5 23 18  0.0000000  0  7G 6G 5G 9G30G10G 4G24
  24368197.046    -8039276.02749  -6227383.39445  24368195.249    24368211.074
       207.000         145.000
  20529938.014   -17550437.35849 -13646551.90748  20529937.180    20529946.009
       245.000         214.000
  22976734.401     9314124.65149   7272764.91746  22976734.847    22976745.794
       226.000         176.000
  22103619.440   -16980790.29049 -12350956.81246  22103619.413    22103629.374
       231.000         179.000
  23222277.309    -6458905.57949  -5009550.70745  23222275.843    23222286.904
       220.000         162.000
  22080016.344     8996825.95749   7026834.44646  22080016.243    22080026.383
       231.000         185.000
  20489754.376    -7449953.85049  -5777221.22848  20489754.048    20489763.096
       245.000         214.000
 01  2  5 23 18 30.0000000  0  7G 6G 5G 9G30G10G 4G24
  24354789.362    -8109732.84149  -6282284.63745  24354788.291    24354804.309
       208.000         146.000
  20522523.066   -17589403.00849 -13676914.71548  20522522.263    20522530.818
       246.000         214.000
  22993044.828     9399835.57449   7339552.52246  22993045.176    22993056.598
       225.000         176.000
  22086947.694   -17068400.50349 -12419224.38746  22086947.804    22086957.738
       231.000         180.000
  23203516.502    -6557492.88149  -5086371.77145  23203514.801    23203530.676
       218.000         161.000
  22096525.832     9083583.72749   7094437.84746  22096525.724    22096535.866
       231.000         184.000
  20494448.485    -7425285.99249  -5757999.50048  20494448.109    20494457.220
       244.000         214.000
 01  2  5 23 19  0.0000000  0  7G 6G 5G 9G30G10G 4G24
  24341387.441    -8180159.32949  -6337162.25045  24341386.908    24341400.402
       207.000         145.000
  20515190.567   -17627935.39749 -13706939.91448  20515189.820    20515198.379
       246.000         214.000
  23009392.672     9485743.65949   7406493.75846  23009392.349    23009404.589
       225.000         175.000
  22070318.890   -17155784.90649 -12487316.00346  22070318.616    22070328.261
       230.000         180.000
  23184781.457    -6655945.37049  -5163087.76546  23184780.321    23184794.569
       221.000         169.000
  22113078.791     9170570.09949   7162219.37846  22113078.914    22113088.369
       231.000         183.000
  20499229.401    -7400162.15449  -5738422.46748  20499229.079    20499238.192
       244.000         214.000
 01  2  5 23 19 30.0000000  0  7G 6G 5G 9G30G10G 4G24
  24327991.109    -8250555.72549  -6392016.41445  24327989.963    24328004.897
       209.000         145.000
  20507940.805   -17666033.00349 -13736626.32548  20507940.089    20507948.795
       246.000         214.000
  23025777.398     9571845.75249   7473586.17046  23025777.746    23025789.293
       224.000         175.000
  22053733.492   -17242941.37649 -12555230.02146  22053733.648    22053743.816
       231.000         181.000
  23166072.552    -6754260.05649  -5239696.36846  23166069.943    23166084.984
       212.000         163.000
  22129674.704     9257782.00749   7230176.64346  22129675.005    22129685.093
       230.000         182.000
  20504096.684    -7374584.41749  -5718491.74248  20504096.270    20504105.349
       244.000         214.000
 01  2  5 23 20  0.0000000  0  7G 6G 5G 9G30G10G 4G24
  24314600.690    -8320922.12149  -6446847.18745  24314599.253    24314614.250
       210.000         146.000
  20500774.204   -17703693.65749 -13765972.25048  20500773.400    20500781.981
       246.000         214.000
  23042198.636     9658139.18449   7540827.68146  23042198.848    23042210.840
       225.000         174.000
  22037192.013   -17329866.98649 -12622964.12846  22037191.610    22037202.241
       231.000         181.000
  23147390.518    -6852433.37149  -5316194.87846  23147388.766    23147403.120
       222.000         163.000
  22146313.155     9345217.39149   7298308.04846  22146313.636    22146323.494
       231.000         182.000
  20509050.028    -7348554.15549  -5698208.39848  20509049.620    20509058.653
       244.000         214.000
 01  2  5 23 20 30.0000000  0  7G 6G 5G 9G30G10G 4G24
  24301216.036    -8391259.09549  -6501655.01845  24301215.768    24301230.083
       210.000         147.000
  20493690.974   -17740915.98349 -13794976.62348  20493690.233    20493698.800
       246.000         214.000
  23058655.480     9744620.56849   7608215.63946  23058655.055    23058667.814
       225.000         174.000
  22020694.826   -17416559.63949 -12690516.73446  22020694.450    22020704.470
       231.000         181.000
  23128736.083    -6950462.36149  -5392580.88146  23128733.821    23128748.555
       217.000         165.000
  22162993.526     9432873.13149   7366611.16146  22162993.519    22163003.439
       232.000         182.000
  20514089.095    -7322073.62549  -5677574.20148  20514088.742    20514097.582
       245.000         214.000
 01  2  5 23 21  0.0000000  0  7G 6G 5G 9G30G10G 4G24
  24287836.882    -8461566.52349  -6556439.83545  24287835.851    24287850.350
       209.000         147.000
  20486691.526   -17777698.09249 -13823637.96948  20486690.799    20486699.441
       246.000         215.000
  23075147.533     9831286.82849   7675747.65246  23075148.227    23075159.850
       224.000         173.000
  22004242.337   -17503017.03549 -12757886.00846  22004242.440    22004252.260
       231.000         182.000
  23110109.639    -7048343.68549  -5468851.80646  23110108.015    23110121.891
       216.000         165.000
  22179715.417     9520746.94349   7435084.21646  22179715.343    22179725.283
       232.000         182.000
  20519213.558    -7295144.37149  -5656590.34448  20519213.274    20519222.045
       245.000         214.000
 01  2  5 23 21 30.0000000  0  7G 6G 5G 9G30G10G 4G24
  24274463.390    -8531844.00549  -6611201.30545  24274463.159    24274476.961
       211.000         147.000
  20479776.274   -17814037.72049 -13851954.52448  20479775.456    20479784.158
       246.000         215.000
  23091674.233     9918135.41249   7743421.74646  23091673.897    23091686.271
       223.000         173.000
  21987835.256   -17589236.33849 -12825069.76446  21987834.949    21987845.669
       231.000         182.000
  23091512.064    -7146073.69749  -5545004.84646  23091511.229    23091523.605
       220.000         164.000
  22196478.289     9608836.60749   7503725.46146  22196477.998    22196488.521
       231.000         181.000
  20524423.095    -7267767.92349  -5635258.02548  20524422.828    20524431.567
       244.000         214.000
 01  2  5 23 22  0.0000000  0  7G 6G 5G 9G30G10G 4G24
  24261095.460    -8602092.15849  -6665939.94345  24261094.963    24261109.826
       209.000         147.000
  20472945.477   -17849933.62349 -13879925.32048  20472944.625    20472953.318
       246.000         215.000
  23108235.184    10005163.14949   7811235.43946  23108235.451    23108246.618
       223.000         173.000
  21971473.812   -17675215.60449 -12892066.48246  21971473.805    21971483.658
       231.000         182.000
  23072943.897    -7243649.35649  -5621037.65146  23072941.845    23072956.740
       216.000         163.000
  22213281.712     9697139.27249   7572532.67246  22213281.515    22213292.265
       232.000         181.000
  20529717.367    -7239946.19449  -5613578.74048  20529716.953    20529726.121
       245.000         214.000
 01  2  5 23 22 30.0000000  0  7G 6G 5G 9G30G10G 4G24
  24247733.083    -8672310.86749  -6720655.63845  24247732.734    24247746.542
       210.000         147.000
  20466199.483   -17885383.75649 -13907548.76148  20466198.905    20466207.450
       246.000         215.000
  23124829.699    10092367.20849   7879186.52346  23124830.163    23124841.203
       221.000         172.000
  21955158.607   -17760952.05349 -12958873.99846  21955158.560    21955168.211
       231.000         182.000
  23054405.479    -7341067.42149  -5696947.52246  23054404.088    23054418.048
       217.000         163.000
  22230125.190     9785652.47449   7641503.93746  22230125.534    22230135.612
       232.000         182.000
  20535096.127    -7211680.50549  -5591553.51648  20535095.619    20535104.793
       245.000         214.000
 01  2  5 23 23  0.0000000  0  7G 6G 5G 9G30G10G 4G24
  24234376.264    -8742500.42949  -6775348.60345  24234375.421    24234390.651
       211.000         148.000
  20459538.645   -17920386.52549 -13934823.60548  20459537.877    20459546.447
       247.000         215.000
  23141457.129    10179744.47149   7947272.57846  23141457.372    23141469.922
       224.000         172.000
  21938890.147   -17846443.07049 -13025490.26946  21938890.442    21938900.250
       231.000         183.000
  23035898.008    -7438324.62549  -5772732.19246  23035897.210    23035909.887
       221.000         168.000
  22247008.315     9874373.56949   7710637.20146  22247008.526    22247018.930
       231.000         183.000
  20540558.900    -7182973.17549  -5569184.15448  20540558.467    20540567.387
       244.000         214.000
 01  2  5 23 23 30.0000000  0  7G 6G 5G 9G30G10G 4G24
  24221025.162    -8812660.54749  -6830018.65445  24221023.744    24221038.692
       210.000         150.000
  20452963.305   -17954939.96349 -13961748.32148  20452962.619    20452971.021
       246.000         215.000
  23158117.073    10267292.26749   8015491.50446  23158116.809    23158129.518
       225.000         172.000
  21922668.870   -17931686.16849 -13091913.35546  21922668.822    21922678.781
       231.000         183.000
  23017421.650    -7535417.66149  -5848388.87846  23017419.862    23017434.142
       218.000         164.000
  22263930.581     9963300.38649   7779930.76046  22263930.821    22263941.272
       231.000         183.000
  20546105.494    -7153825.53449  -5546471.69448  20546105.017    20546114.297
       244.000         214.000
 01  2  5 23 24  0.0000000  0  7G 6G 5G 9G30G10G 4G24
  24207679.500    -8882792.09349  -6884666.44945  24207678.393    24207692.701
       209.000         149.000
  20446473.701   -17989042.96549 -13988322.04848  20446473.071    20446481.525
       246.000         215.000
  23174808.717    10355006.81149   8083840.36946  23174808.084    23174821.194
       222.000         172.000
  21906495.070   -18016679.57749 -13158141.88546  21906495.229    21906504.959
       231.000         183.000
  22998977.093    -7632343.83949  -5923915.55746  22998975.820    22998989.313
       221.000         170.000
  22280891.372    10052429.91449   7849382.28346  22280891.790    22280901.417
       230.000         182.000
  20551735.407    -7124240.08149  -5523418.07948  20551735.030    20551744.058
       244.000         214.000
 01  2  5 23 24 30.0000000  0  7G 6G 5G 9G30G10G 4G24
  24194339.251    -8952894.71049  -6939291.68745  24194338.258    24194352.517
       211.000         149.000
  20440070.185   -18022693.38249 -14014543.10948  20440069.414    20440078.000
       246.000         215.000
  23191531.546    10442885.76249   8152317.33446  23191531.167    23191543.586
       222.000         171.000
  21890369.339   -18101420.44149 -13224173.61546  21890369.183    21890379.302
       232.000         184.000
  22980564.843    -7729099.03949  -5999308.97946  22980562.298    22980576.384
       215.000         163.000
  22297890.283    10141759.88049   7918989.99946  22297890.082    22297900.960
       228.000         182.000
  20557448.402    -7094217.98749  -5500024.23048  20557448.145    20557457.168
       245.000         214.000
 01  2  5 23 25  0.0000000  0  7G 6G 5G 9G30G10G 4G24
  24181004.575    -9022968.34249  -6993894.37145  24181003.849    24181018.292
       212.000         149.000
  20433753.190   -18055889.23849 -14040409.96748  20433752.458    20433761.032
       246.000         216.000
  23208285.143    10530926.23849   8220920.16546  23208285.338    23208297.977
       223.000         171.000
  21874292.171   -18185906.07149 -13290006.46946  21874292.243    21874301.770
       232.000         184.000
  22962185.803    -7825680.20749  -6074566.84346  22962185.440    22962197.687
       223.000         165.000
  22314926.974    10231287.98749   7988752.08046  22314927.317    22314936.929
       229.000         181.000
  20563244.176    -7063760.84849  -5476291.38648  20563243.793    20563252.734
       244.000         214.000
 01  2  5 23 25 30.0000000  0  7G 6G 5G 9G30G10G 4G24
  24167675.352    -9093013.37449  -7048474.76945  24167674.657    24167689.199
       211.000         151.000
  20427522.953   -18088629.21349 -14065921.59348  20427522.321    20427530.808
       246.000         216.000
  23225068.925    10619124.95449   8289646.30046  23225069.609    23225080.868
       222.000         171.000
  21858263.955   -18270134.37049 -13355638.81046  21858263.569    21858274.061
       232.000         185.000
  22943840.806    -7922084.10549  -6149686.56446  22943839.460    22943853.590
       220.000         170.000
  22332000.915    10321011.35249   8058666.34246  22332000.977    22332011.768
       229.000         181.000
  20569122.296    -7032870.91949  -5452221.30148  20569122.093    20569130.876
       244.000         214.000
 01  2  5 23 26  0.0000000  0  7G 6G 5G 9G30G10G 4G24
  24154351.446    -9163030.02149  -7103033.03045  24154350.891    24154365.216
       210.000         151.000
  20421379.752   -18120911.69249 -14091076.73248  20421379.063    20421387.617
       247.000         216.000
  23241882.262    10707478.91649   8358493.40746  23241881.760    23241894.549
       221.000         171.000
  21842285.193   -18354102.79749 -13421068.65346  21842284.721    21842295.038
       232.000         185.000
  22925529.709    -8018308.06749  -6224666.00946  22925528.167    22925540.895
       217.000         167.000
  22349111.505    10410927.62549   8128730.90146  22349111.602    22349122.655
       230.000         182.000
  20575082.428    -7001550.23849  -5427815.56248  20575082.207    20575091.017
       245.000         214.000
 01  2  5 23 26 30.0000000  0  7G 6G 5G 9G30G10G 4G24
  24141033.102    -9233017.78949  -7157568.83345  24141032.191    24141045.983
       213.000         151.000
  20415324.031   -18152734.57649 -14115873.74348  20415323.226    20415331.830
       246.000         216.000
  23258724.552    10795985.81049   8427459.67146  23258724.760    23258737.376
       220.000         171.000
  21826356.445   -18437808.70249 -13486293.93546  21826356.358    21826366.177
       231.000         185.000
  22907253.974    -8114347.92149  -6299502.16046  22907253.508    22907265.663
       226.000         167.000
  22366258.341    10501034.62149   8198944.07046  22366258.172    22366268.916
       229.000         181.000
  20581124.270    -6969800.15649  -5403075.22748  20581124.044    20581132.845
       244.000         214.000
 01  2  5 23 27  0.0000000  0  7G 6G 5G 9G30G10G 4G24
  24127720.070    -9302977.18349  -7212082.50645  24127719.907    24127732.979
       213.000         150.000
  20409356.052   -18184096.45749 -14140311.53248  20409355.587    20409363.852
       246.000         216.000
  23275595.450    10884642.30249   8496542.50246  23275595.131    23275608.455
       223.000         171.000
  21810478.103   -18521249.57149 -13551312.68846  21810478.330    21810487.898
       232.000         186.000
  22889013.626    -8210200.68249  -6374192.37746  22889010.598    22889026.065
       215.000         167.000
  22383440.913    10591329.67049   8269303.77646  22383440.117    22383451.955
       228.000         180.000
  20587247.491    -6937622.46649  -5378001.69348  20587247.095    20587256.182
       245.000         214.000
 01  2  5 23 27 30.0000000  0  7G 6G 5G 9G30G10G 4G24
  24114412.572    -9372907.87849  -7266573.83345  24114412.570    24114426.260
       213.000         151.000
  20403476.150   -18214995.46749 -14164388.64448  20403475.518    20403483.982
       247.000         216.000
  23292494.296    10973445.37449   8565739.55246  23292494.612    23292506.742
       222.000         171.000
  21794650.665   -18604422.81949 -13616122.91646  21794651.087    21794660.285
       232.000         186.000
  22870809.561    -8305862.75749  -6448734.05146  22870809.298    22870820.372
       228.000         170.000
  22400658.835    10681810.51649   8339808.24046  22400658.517    22400669.965
       227.000         180.000
  20593451.654    -6905019.19149  -5352596.53548  20593451.330    20593460.233
       244.000         214.000
 01  2  5 23 28  0.0000000  0  7G 6G 5G 9G30G10G 4G24
  24101110.474    -9442810.49649  -7321043.28445  24101109.969    24101123.928
       214.000         152.000
  20397684.571   -18245430.26549 -14188104.02548  20397683.917    20397692.397
       247.000         216.000
  23309420.423    11062392.03249   8635048.48046  23309420.684    23309433.646
       221.000         170.000
  21778874.558   -18687326.46349 -13680723.05346  21778874.629    21778884.196
       232.000         186.000
  22852642.458    -8401331.63449  -6523125.21446  22852639.387    22852655.115
       216.000         167.000
  22417911.540    10772474.23649   8410455.22146  22417912.052    22417922.141
       229.000         179.000
  20599736.372    -6871992.74149  -5326861.62948  20599736.149    20599744.977
       244.000         214.000
 01  2  5 23 28 30.0000000  0  7G 6G 5G 9G30G10G 4G24
  24087813.842    -9512685.06249  -7375490.88245  24087813.064    24087827.502
       215.000         152.000
  20391981.633   -18275399.22749 -14211456.42148  20391980.935    20391989.553
       247.000         216.000
  23326373.340    11151479.65549   8704467.24746  23326373.258    23326386.859
       221.000         170.000
  21763150.258   -18769957.82349 -13745111.02646  21763150.245    21763159.926
       233.000         186.000
  22834512.427    -8496603.60649  -6597362.84246  22834512.736    22834524.822
       230.000         173.000
  22435198.694    10863318.75049   8481243.09746  22435198.595    22435209.226
       229.000         179.000
  20606101.335    -6838544.56949  -5300798.10848  20606100.743    20606110.125
       244.000         214.000
 01  2  5 23 29  0.0000000  0  7G 6G 5G 9G30G10G 4G24
  24074522.385    -9582531.84749  -7429916.85145  24074522.245    24074535.985
       216.000         153.000
  20386367.630   -18304900.99749 -14234444.77148  20386366.752    20386375.467
       247.000         216.000
  23343352.413    11240704.69249   8773993.09746  23343351.734    23343365.004
       221.000         169.000
  21747478.211   -18852314.62749 -13809285.05046  21747478.354    21747487.784
       233.000         186.000
  22816420.956    -8591675.77349  -6671444.90346  22816418.882    22816431.010
       220.000         170.000
  22452519.775    10954341.16949   8552169.58346  22452519.974    22452530.240
       229.000         178.000
  20612546.135    -6804676.86049  -5274407.67848  20612545.801    20612554.705
       244.000         214.000
 01  2  5 23 29 30.0000000  0  7G 6G 5G 9G30G10G 4G24
  24061236.270    -9652350.46449  -7484320.85545  24061235.773    24061249.630
       214.000         153.000
  20380842.840   -18333933.72449 -14257067.63648  20380842.237    20380850.659
       247.000         216.000
  23360357.102    11330064.39849   8843623.86646  23360357.251    23360369.297
       221.000         170.000
  21731858.910   -18934394.23449 -13873243.07846  21731859.077    21731868.767
       233.000         187.000
  22798367.615    -8686544.57049  -6745368.38346  22798367.419    22798380.238
       227.000         170.000
  22469874.225    11045539.21449   8623232.92646  22469875.169    22469885.343
       230.000         178.000
  20619070.488    -6770391.16149  -5247691.53548  20619070.125    20619079.208
       245.000         214.000
 01  2  5 23 30  0.0000000  0  7G 6G 5G 9G30G10G 4G24
  24047955.621    -9722140.79649  -7538702.81745  24047954.398    24047968.835
       215.000         154.000
  20375407.721   -18362495.47149 -14279323.50548  20375407.059    20375415.408
       247.000         216.000
  23377386.988    11419556.09149   8913357.47246  23377387.801    23377400.259
       222.000         169.000
  21716292.874   -19016193.94549 -13936983.00046  21716292.743    21716302.543
       233.000         187.000
  22780354.228    -8781206.13949  -6819130.45946  22780353.340    22780364.442
       221.000         172.000
  22487261.775    11136910.90049   8694431.58846  22487262.262    22487272.462
       229.000         178.000
  20625674.062    -6735689.23049  -5220651.05948  20625673.833    20625682.731
       245.000         214.000
 01  2  5 23 30 30.0000000  0  7G 6G 5G 9G30G10G 4G24
  24034680.220    -9791902.87149  -7593062.76945  24034680.277    24034692.954
       215.000         153.000
  20370062.435   -18390584.95649 -14301211.38248  20370061.730    20370070.195
       247.000         217.000
  23394441.399    11509176.63949   8983191.49846  23394441.405    23394454.949
       221.000         169.000
  21700780.614   -19097711.27649 -14000502.88946  21700780.612    21700790.246
       233.000         187.000
  22762380.174    -8875657.64449  -6892728.80446  22762379.732    22762391.744
       226.000         168.000
  22504681.828    11228453.50249   8765763.41346  22504682.123    22504692.590
       230.000         177.000
  20632356.393    -6700573.23449  -5193287.94048  20632356.117    20632365.226
       244.000         214.000
 01  2  5 23 31  0.0000000  0  7G 6G 5G 9G30G10G 4G24
  24021410.110    -9861637.39449  -7647401.28245  24021410.024    24021422.484
       215.000         154.000
  20364807.312   -18418200.82049 -14322730.20048  20364806.548    20364814.947
       247.000         217.000
  23411519.631    11598922.94349   9053123.52246  23411519.832    23411533.268
       220.000         169.000
  21685322.453   -19178944.08349 -14063801.07047  21685322.294    21685331.735
       234.000         188.000
  22744447.188    -8969896.11949  -6966161.10646  22744445.428    22744459.453
       223.000         175.000
  22522133.938    11320164.34149   8837226.33446  22522133.551    22522144.689
       229.000         177.000
  20639117.111    -6665045.45849  -5165603.95848  20639116.737    20639125.842
       245.000         214.000
 01  2  5 23 31 30.0000000  0  7G 6G 5G 9G30G10G 4G24
  24008145.345    -9931343.82549  -7701717.87045  24008145.077    24008158.861
       214.000         153.000
  20359642.699   -18445341.09049 -14343878.43348  20359641.903    20359650.406
       247.000         217.000
  23428621.375    11688792.49449   9123151.56846  23428621.463    23428635.094
       220.000         169.000
  21669919.008   -19259889.33649 -14126875.18147  21669918.568    21669928.139
       233.000         188.000
  22726555.308    -9063917.66149  -7039424.44846  22726555.673    22726564.983
       228.000         171.000
  22539617.728    11412041.56149   8908818.91546  22539618.077    22539628.666
       230.000         177.000
  20645955.926    -6629107.32649  -5137600.21448  20645955.632    20645964.423
       244.000         213.000
 01  2  5 23 32  0.0000000  0  7G 6G 5G 9G30G10G 4G24
  23994885.714   -10001023.06049  -7756013.27645  23994885.436    23994898.949
       216.000         154.000
  20354568.696   -18472005.08549 -14364655.54048  20354567.976    20354576.439
       247.000         217.000
  23445745.829    11778781.40049   9193272.61946  23445746.897    23445758.603
       220.000         168.000
  21654570.557   -19340545.39749 -14189723.95347  21654570.603    21654579.953
       233.000         188.000
  22708705.250    -9157720.26749  -7112517.17946  22708703.062    22708717.052
       222.000         173.000
  22557132.472    11504081.98249   8980538.66546  22557132.672    22557143.458
       229.000         176.000
  20652872.350    -6592761.39549  -5109278.70548  20652872.144    20652881.054
       245.000         214.000
 01  2  5 23 32 30.0000000  0  7G 6G 5G 9G30G10G 4G24
  23981631.649   -10070673.43049  -7810286.18645  23981631.432    23981644.644
       215.000         155.000
  20349585.931   -18498189.61649 -14385059.03648  20349585.275    20349593.583
       248.000         217.000
  23462892.728    11868888.39649   9263485.70246  23462892.537    23462907.264
       220.000         168.000
  21639277.971   -19420908.21249 -14252344.22347  21639277.920    21639287.437
       235.000         189.000
  22690897.513    -9251298.69049  -7185435.14346  22690896.799    22690908.045
       227.000         173.000
  22574678.086    11596284.62249   9052384.81546  22574678.146    22574688.671
       229.000         175.000
  20659866.378    -6556007.80349  -5080639.53748  20659866.002    20659875.088
       245.000         214.000
 01  2  5 23 33  0.0000000  0  7G 6G 5G 9G30G10G 4G24
  23968382.781   -10140296.37749  -7864537.72445  23968382.164    23968395.668
       215.000         155.000
  20344694.450   -18523894.60649 -14405088.86848  20344693.592    20344702.083
       247.000         217.000
  23480061.322    11959109.27949   9333787.52046  23480061.052    23480074.656
       218.000         166.000
  21624041.365   -19500976.82249 -14314735.23847  21624041.058    21624050.702
       235.000         189.000
  22673133.015    -9344651.26249  -7258177.24646  22673131.488    22673143.163
       221.000         169.000
  22592253.938    11688645.77949   9124354.48446  22592253.928    22592264.907
       228.000         174.000
  20666937.144    -6518850.62549  -5051685.89248  20666936.817    20666945.470
       245.000         213.000
 01  2  5 23 33 30.0000000  0  7G 6G 5G 9G30G10G 4G24
  23955139.140   -10209891.61149  -7918767.66445  23955138.233    23955152.295
       215.000         155.000
  20339894.589   -18549117.92649 -14424743.37648  20339893.914    20339902.217
       247.000         217.000
  23497251.148    12049441.65949   9404176.21746  23497250.882    23497264.836
       220.000         167.000
  21608861.377   -19580747.93949 -14376894.44947  21608861.217    21608870.576
       234.000         189.000
  22655412.183    -9437773.77849  -7330739.97946  22655412.105    22655424.040
       230.000         177.000
  22609859.612    11781163.69749   9196446.30746  22609859.780    22609869.830
       227.000         173.000
  20674084.595    -6481290.55449  -5022418.30348  20674084.229    20674092.878
       245.000         213.000
 01  2  5 23 34  0.0000000  0  7G 6G 5G 9G30G10G 4G24
  23941900.761   -10279459.55449  -7972976.31945  23941900.867    23941913.658
       217.000         155.000
  20335186.542   -18573858.80349 -14444021.94548  20335185.794    20335194.039
       247.000         217.000
  23514461.477    12139881.83049   9474648.92346  23514461.607    23514475.093
       219.000         166.000
  21593738.335   -19660219.67449 -14438820.36547  21593738.246    21593747.694
       234.000         190.000
  22637735.761    -9530663.74949  -7403121.54846  22637732.354    22637746.253
       219.000         172.000
  22627494.390    11873835.26549   9268657.85446  22627494.711    22627504.662
       227.000         172.000
  20681308.132    -6443330.62849  -4992839.13748  20681307.669    20681316.806
       244.000         213.000
 01  2  5 23 34 30.0000000  0  7G 6G 5G 9G30G10G 4G24
  23928667.673   -10349000.03549  -8027163.60045  23928666.589    23928680.371
       214.000         156.000
  20330570.639   -18598115.30049 -14462923.08148  20330569.919    20330578.212
       247.000         217.000
  23531691.799    12230427.21649   9545203.59646  23531691.909    23531705.198
       219.000         166.000
  21578672.729   -19739389.42549 -14500510.97247  21578672.596    21578682.171
       235.000         190.000
  22620104.137    -9623317.50649  -7475319.10446  22620103.718    22620116.636
       230.000         178.000
  22645158.095    11966658.46249   9340987.56046  22645158.243    22645168.774
       226.000         173.000
  20688607.424    -6404972.33649  -4962949.55548  20688607.075    20688616.114
       244.000         213.000
 01  2  5 23 35  0.0000000  0  7G 6G 5G 9G30G10G 4G24
  24215232.744    -8843089.71249  -6853726.85345  24215231.934    24215245.396
       214.000         156.000
  20625840.022   -17046464.27649 -13253844.33048  20625839.259    20625847.562
       247.000         217.000
  23848733.736    13896493.06049  10843436.54846  23848734.305    23848747.371
       221.000         166.000
  21863458.265   -18242830.92149 -13334361.38647  21863457.743    21863467.354
       236.000         190.000
  22902311.384    -8140307.83749  -6319726.89046  22902308.582    22902322.414
       222.000         175.000
  22962642.304    13635048.89849  10641031.97746  22962642.413    22962653.383
       227.000         173.000
  20995774.581    -4790798.18849  -3705151.51248  20995774.188    20995783.222
       244.000         213.000
 01  2  5 23 35 30.0000000  0  7G 6G 5G 9G30G10G 4G24
  24202010.111    -8912574.71249  -6907870.88645  24202009.138    24202022.661
       215.000         156.000
  20621409.327   -17069747.52549 -13271987.08848  20621408.536    20621416.750
       247.000         217.000
  23866002.621    13987240.85049  10914148.94846  23866001.751    23866015.822
       218.000         166.000
  21848509.198   -18321388.39149 -13395574.90747  21848509.192    21848518.303
       235.000         191.000
  22884771.621    -8232479.12949  -6391548.57146  22884770.303    22884782.161
       228.000         173.000
  22980362.494    13728168.69549  10713592.78446  22980362.876    22980373.792
       227.000         174.000
  21003224.378    -4751649.12949  -3674645.74748  21003224.031    21003233.015
       244.000         213.000
 01  2  5 23 36  0.0000000  0  7G 6G 5G 9G30G10G 4G24
  24188792.674    -8982032.29449  -6961993.55045  24188792.098    24188805.247
       215.000         156.000
  20617071.626   -17092541.94749 -13289748.94748  20617071.019    20617079.182
       247.000         217.000
  23883289.767    14078085.07849  10984936.48646  23883289.673    23883303.621
       219.000         166.000
  21833619.094   -18399636.15849 -13456547.09747  21833619.010    21833628.222
       235.000         191.000
  22867278.574    -8324404.25349  -6463178.27746  22867276.964    22867289.912
       224.000         175.000
  22998110.254    13821433.15849  10786266.32846  22998110.320    22998121.375
       225.000         174.000
  21010748.807    -4712107.78549  -3643834.30848  21010748.551    21010757.495
       245.000         213.000
 01  2  5 23 36 30.0000000  0  7G 6G 5G 9G30G10G 4G24
  24175580.351    -9051462.63849  -7016094.97345  24175579.884    24175593.033
       215.000         156.000
  20612827.201   -17114846.46649 -13307129.05948  20612826.407    20612834.649
       247.000         217.000
  23900594.718    14169022.65549  11055796.75246  23900595.492    23900607.856
       220.000         165.000
  21818788.283   -18477572.04249 -13517276.26447  21818788.247    21818797.550
       236.000         191.000
  22849833.130    -8416080.29949  -6534614.00746  22849832.400    22849842.365
       230.000         176.000
  23015884.944    13914839.88649  10859050.71546  23015885.014    23015896.337
       225.000         174.000
  21018347.509    -4672176.09949  -3612718.70548  21018347.301    21018356.205
       244.000         213.000
 01  2  5 23 37  0.0000000  0  7G 6G 5G 9G30G10G 4G24
  24162373.364    -9120865.62849  -7070175.08845  24162373.097    24162386.141
       215.000         157.000
  20608676.314   -17136659.35249 -13324126.08048  20608675.691    20608683.863
       247.000         217.000
  23917916.947    14260050.83549  11126727.62646  23917916.901    23917930.981
       216.000         164.000
  21804017.423   -18555193.24149 -13577760.21347  21804017.353    21804026.464
       236.000         192.000
  22832435.565    -8507503.75449  -6605852.86546  22832433.795    22832446.898
       223.000         175.000
  23033686.305    14008386.53449  10931944.13446  23033686.930    23033696.732
       227.000         174.000
  21026020.117    -4631856.26149  -3581300.63948  21026019.859    21026028.731
       244.000         213.000
 01  2  5 23 37 30.0000000  0  7G 6G 5G 9G30G10G 4G24
  24149171.512    -9190241.02549  -7124233.72445  24149170.567    24149183.691
       216.000         158.000
  20604619.221   -17157979.31549 -13340739.00848  20604618.599    20604626.770
       247.000         217.000
  23935255.955    14351166.99049  11197727.06146  23935256.417    23935269.246
       217.000         165.000
  21789306.930   -18632497.07349 -13637996.87047  21789306.927    21789316.347
       236.000         192.000
  22815086.885    -8598671.22449  -6676892.29846  22815085.375    22815096.416
       227.000         177.000
  23051513.939    14102070.98149  11004944.94446  23051514.359    23051524.937
       227.000         174.000
  21033766.323    -4591149.68549  -3549581.22248  21033766.047    21033774.867
       245.000         213.000
 01  2  5 23 38  0.0000000  0  7G 6G 5G 9G30G10G 4G24
  24135974.922    -9259589.24549  -7178271.15845  24135973.553    24135987.442
       216.000         157.000
  20600656.159   -17178805.40449 -13356967.09648  20600655.373    20600663.604
       248.000         217.000
  23952611.089    14442367.90749  11268792.53346  23952611.852    23952624.426
       219.000         164.000
  21774657.174   -18709481.72049 -13697984.80747  21774657.208    21774666.588
       236.000         192.000
  22797787.352    -8689580.00249  -6747730.11446  22797785.252    22797798.743
       225.000         176.000
  23069367.253    14195890.42149  11078050.93246  23069367.779    23069378.003
       227.000         174.000
  21041585.634    -4550059.00049  -3517562.49847  21041585.294    21041594.204
       245.000         212.000
 01  2  5 23 38 30.0000000  0  7G 6G 5G 9G30G10G 4G24
  24122783.605    -9328909.97949  -7232287.18045  24122783.854    24122795.510
       215.000         157.000
  20596787.353   -17199135.92349 -13372809.02248  20596786.701    20596794.729
       247.000         217.000
  23969981.746    14533650.93749  11339921.96446  23969982.396    23969995.076
       218.000         163.000
  21760068.714   -18786144.13649 -13757721.65247  21760068.678    21760077.286
       236.000         193.000
  22780537.935    -8780226.20549  -6818363.35446  22780536.813    22780547.481
       225.000         177.000
  23087245.963    14289843.10449  11151260.75646  23087246.592    23087257.131
       226.000         173.000
  21049477.628    -4508586.20549  -3485246.02247  21049477.390    21049486.205
       244.000         212.000
 01  2  5 23 39  0.0000000  0  7G 6G 5G 9G30G10G 4G24
  23809804.417   -10973626.28749  -8513884.16145  23809804.096    23809815.810
       214.000         157.000
  20293220.384   -18794391.05149 -14615864.93248  20293219.706    20293227.925
       247.000         217.000
  23687575.511    13049595.22649  10183514.75146  23687575.623    23687589.137
       217.000         163.000
  21445748.926   -20437905.29249 -15044808.17147  21445748.577    21445757.991
       236.000         193.000
  22463545.693   -10446030.63749  -8116392.66546  22463545.111    22463556.862
       230.000         176.000
  22805357.520    12808508.72449   9996974.17946  22805358.279    22805367.818
       224.000         172.000
  20757649.667    -6042152.67149  -4680232.87247  20757649.218    20757658.219
       244.000         212.000
 01  2  5 23 39 30.0000000  0  7G 6G 5G 9G30G10G 4G24
  23796623.303   -11042892.54649  -8567857.73245  23796623.211    23796635.461
       215.000         157.000
  20289540.830   -18813727.21849 -14630932.03848  20289540.054    20289548.398
       247.000         217.000
  23704975.694    13141032.75849  10254764.59646  23704975.937    23704989.571
       217.000         163.000
  21431284.407   -20513916.40649 -15104037.50847  21431283.981    21431293.301
       236.000         193.000
  22446397.760   -10536143.19949  -8186610.05246  22446395.514    22446408.261
       225.000         179.000
  22823285.241    12902719.92849  10070385.43846  22823285.538    22823295.753
       225.000         171.000
  20765685.806    -5999922.30849  -4647326.09447  20765685.395    20765694.461
       244.000         212.000
 01  2  5 23 40  0.0000000  0  7G 6G 5G 9G30G10G 4G24
  23783447.480   -11112131.18549  -8621809.78345  23783446.942    23783459.482
       216.000         158.000
  20285956.341   -18832563.56449 -14645609.67348  20285955.555    20285963.573
       247.000         217.000
  23722389.897    13232544.03249  10326071.87946  23722390.731    23722403.743
       218.000         163.000
  21416882.646   -20589597.65349 -15163009.79947  21416882.161    21416891.746
       236.000         193.000
  22429301.742   -10625983.20149  -8256615.16346  22429300.568    22429310.977
       226.000         177.000
  22841237.062    12997057.58849  10143895.23446  22841237.320    22841247.734
       224.000         170.000
  20773793.606    -5957315.58549  -4614126.04447  20773793.132    20773802.199
       244.000         212.000
 01  2  5 23 40 30.0000000  0  7G 6G 5G 9G30G10G 4G24
  23770277.072   -11181341.89749  -8675740.07245  23770276.430    23770289.633
       216.000         159.000
  20282467.226   -18850898.81949 -14659896.84848  20282466.451    20282474.693
       247.000         217.000
  23739817.670    13324126.33749  10397434.50245  23739818.266    23739831.407
       217.000         162.000
  21402544.220   -20664946.21049 -15221722.84747  21402543.837    21402553.419
       236.000         194.000
  22412257.804   -10715547.53949  -8326405.33246  22412256.887    22412268.779
       229.000         178.000
  22859212.605    13091519.77949  10217502.08546  22859212.636    22859224.058
       223.000         169.000
  20781972.638    -5914334.16549  -4580634.02947  20781972.190    20781981.357
       244.000         212.000
 01  2  5 23 41  0.0000000  0  7G 6G 5G 9G30G10G 4G24
  23757111.689   -11250525.71449  -8729649.40045  23757111.734    23757124.744
       215.000         158.000
  20279073.519   -18868732.71049 -14673793.34248  20279072.830    20279080.918
       247.000         217.000
  23757258.005    13415775.55649  10468849.31645  23757258.003    23757271.788
       216.000         162.000
  21388269.322   -20739960.70649 -15280175.58947  21388269.069    21388278.358
       237.000         194.000
  22395267.348   -10804833.67649  -8395978.89046  22395266.060    22395277.533
       224.000         178.000
  22877211.180    13186102.85049  10291203.12646  22877211.696    22877221.668
       223.000         169.000
  20790222.397    -5870981.49649  -4546852.72247  20790222.209    20790230.984
       245.000         212.000
 01  2  5 23 41 30.0000000  0  7G 6G 5G 9G30G10G 4G24
  23743951.718   -11319681.30249  -8783536.72045  23743950.695    23743964.215
       214.000         158.000
  20275775.651   -18886062.97449 -14687297.40648  20275774.903    20275783.076
       247.000         217.000
  23774710.900    13507490.03849  10540314.92845  23774710.750    23774723.973
       217.000         162.000
  21374058.716   -20814637.63549 -15338365.29147  21374058.757    21374067.676
       237.000         194.000
  22378330.020   -10893837.58449  -8465332.34846  22378330.005    22378341.758
       231.000         181.000
  22895232.616    13280806.03149  10364997.77046  22895232.430    22895243.877
       223.000         168.000
  20798542.618    -5827258.48049  -4512782.84047  20798542.169    20798551.122
       244.000         212.000
 01  2  5 23 42  0.0000000  0  7G 6G 5G 9G30G10G 4G24
  23730796.968   -11388809.75849  -8837402.91045  23730796.461    23730809.013
       217.000         159.000
  20272573.757   -18902889.03549 -14700408.58348  20272572.940    20272581.100
       247.000         217.000
  23792175.393    13599266.04749  10611828.50645  23792175.999    23792189.839
       217.000         162.000
  21359912.681   -20888975.21149 -15396290.56547  21359912.660    21359921.898
       237.000         194.000
  22361447.524   -10982556.52749  -8534463.88846  22361445.364    22361455.794
       223.000         177.000
  22913276.378    13375626.07149  10438883.45146  22913276.309    22913287.034
       223.000         167.000
  20806932.788    -5783167.75149  -4478426.43247  20806932.520    20806941.305
       245.000         212.000
 01  2  5 23 42 30.0000000  0  7G 6G 5G 9G30G10G 4G24
  23717647.327   -11457910.71049  -8891247.66045  23717646.395    23717659.591
       215.000         158.000
  20269468.119   -18919209.07249 -14713125.45848  20269467.300    20269475.682
       247.000         217.000
  23809651.210    13691101.37349  10683388.27545  23809651.531    23809664.486
       216.000         161.000
  21345831.802   -20962970.44649 -15453949.07047  21345831.348    21345840.767
       237.000         195.000
  22344619.662   -11070986.86049  -8603370.48446  22344618.852    22344630.202
       229.000         180.000
  22931342.018    13470561.20149  10512858.81646  22931342.822    22931353.158
       222.000         167.000
  20815392.640    -5738711.03749  -4443784.83447  20815392.394    20815401.232
       245.000         212.000
 01  2  5 23 43  0.0000000  0  7G 6G 5G 9G30G10G 4G24
  23704502.785   -11526984.34349  -8945071.12145  23704502.354    23704514.111
       216.000         159.000
  20266458.859   -18935022.58749 -14725447.64048  20266458.223    20266466.229
       247.000         217.000
  23827137.599    13782992.38449  10754991.47545  23827138.215    23827152.222
       218.000         162.000
  21331816.423   -21036621.31049 -15511339.24047  21331816.111    21331824.948
       237.000         195.000
  22327846.987   -11159126.17949  -8672050.34446  22327846.394    22327856.617
       228.000         177.000
  22949429.073    13565608.70649  10586921.74346  22949429.720    22949440.361
       222.000         167.000
  20823921.608    -5693891.08149  -4408860.19847  20823921.279    20823930.324
       245.000         212.000
 01  2  5 23 43 30.0000000  0  7G 6G 5G 9G30G10G 4G24
  23691363.669   -11596030.24249  -8998872.96545  23691362.661    23691376.301
       214.000         159.000
  20263546.350   -18950327.84849 -14737373.78448  20263545.589    20263553.820
       247.000         217.000
  23844634.149    13874936.78249  10826636.22646  23844634.163    23844648.773
       216.000         163.000
  21317867.072   -21109924.86749 -15568458.78447  21317867.068    21317876.117
       237.000         195.000
  22311130.907   -11246970.58349  -8740500.36146  22311128.767    22311142.230
       225.000         183.000
  22967537.170    13660766.85549  10661070.88646  22967538.144    22967548.502
       222.000         167.000
  20832519.387    -5648709.38449  -4373653.68747  20832518.967    20832528.058
       244.000         212.000
 01  2  5 23 44  0.0000000  0  7G 6G 5G 9G30G10G 4G24
  23678229.835   -11665048.57749  -9052653.33545  23678228.903    23678241.391
       216.000         159.000
  20260730.716   -18965123.99949 -14748903.22348  20260730.028    20260738.087
       247.000         217.000
  23862140.337    13966931.38049  10898320.16145  23862140.514    23862154.030
       216.000         162.000
  21303984.306   -21182879.01049 -15625306.05847  21303984.039    21303992.832
       237.000         195.000
  22294471.107   -11334516.88649  -8808718.15346  22294470.229    22294479.448
       230.000         178.000
  22985665.844    13756033.10449  10735304.27146  22985665.995    22985676.689
       221.000         167.000
  20841185.565    -5603168.21949  -4338167.06747  20841185.128    20841194.395
       245.000         212.000
 01  2  5 23 44 30.0000000  0  7G 6G 5G 9G30G10G 4G24
  23665101.239   -11734039.09149  -9106412.03245  23665100.302    23665112.954
       217.000         160.000
  20258012.193   -18979409.64049 -14760034.85848  20258011.391    20258019.476
       247.000         217.000
  23879655.432    14058973.68849  10970041.19445  23879656.758    23879670.665
       218.000         161.000
  21290168.504   -21255481.04149 -15681878.95947  21290167.983    21290176.994
       237.000         196.000
  22277868.986   -11421761.84349  -8876701.03546  22277867.633    22277880.535
       229.000         182.000
  23003814.649    13851405.46449  10809620.34746  23003813.961    23003826.009
       223.000         168.000
  20849919.848    -5557269.57649  -4302401.89247  20849919.431    20849928.301
       244.000         212.000
 01  2  5 23 45  0.0000000  0  7G 6G 5G 9G30G10G 4G24
  23651977.869   -11803002.03149  -9160149.23945  23651976.767    23651990.441
       216.000         160.000
  20255391.062   -18993183.71149 -14770767.87248  20255390.215    20255398.339
       247.000         217.000
  23897179.191    14151060.34849  11041796.87445  23897178.817    23897192.993
       213.000         159.000
  21276420.184   -21327728.56649 -15738175.62647  21276420.131    21276428.776
       239.000         196.000
  22261324.835   -11508702.46249  -8944446.88846  22261323.107    22261333.560
       225.000         180.000
  23021983.172    13946881.59449  10884017.28346  23021982.763    23021993.962
       223.000         168.000
  20858721.696    -5511015.80349  -4266359.98747  20858721.488    20858730.113
       244.000         212.000
 01  2  5 23 45 30.0000000  0  7G 6G 5G 9G30G10G 4G24
  23638859.897   -11871936.87349  -9213864.54645  23638859.738    23638872.533
       217.000         160.000
  20252867.519   -19006444.89549 -14781101.23748  20252866.892    20252874.655
       247.000         218.000
  23914710.737    14243188.72849  11113585.01145  23914710.800    23914725.224
       217.000         162.000
  21262739.799   -21399618.99349 -15794194.03747  21262739.822    21262748.492
       238.000         196.000
  22244838.813   -11595335.15549  -9011952.67346  22244839.198    22244850.303
       234.000         183.000
  23040171.070    14042459.55749  10958493.55946  23040171.351    23040181.927
       223.000         168.000
  20867590.710    -5464408.67949  -4230042.74547  20867590.158    20867599.061
       244.000         211.000
 01  2  5 23 46  0.0000000  0  7G 6G 5G 9G30G10G 4G24
  23625747.197   -11940844.13349  -9267558.37745  23625746.696    23625758.946
       217.000         161.000
  20250441.696   -19019192.80349 -14791034.64548  20250440.971    20250448.991
       247.000         218.000
  23932249.751    14335355.97949  11185403.42145  23932249.948    23932263.686
       215.000         159.000
  21249127.806   -21471150.16449 -15849932.51547  21249127.445    21249136.429
       238.000         197.000
  22228412.331   -11681657.48049  -9079216.69146  22228409.372    22228421.056
       226.000         181.000
  23058377.840    14138136.74649  11033047.14346  23058378.377    23058389.256
       224.000         169.000
  20876526.447    -5417450.97549  -4193452.32047  20876526.192    20876534.991
       244.000         211.000
 01  2  5 23 46 30.0000000  0  7G 6G 5G 9G30G10G 4G24
  23612639.856   -12009723.26949  -9321230.29445  23612639.710    23612651.413
       218.000         161.000
  20248113.843   -19031425.66749 -14800566.71748  20248113.053    20248121.142
       248.000         218.000
  23949795.714    14427559.57549  11257250.20045  23949795.661    23949810.953
       214.000         160.000
  21235584.745   -21542319.29649 -15905388.88047  21235584.890    21235592.922
       238.000         197.000
  22212045.324   -11767665.42649  -9146235.70846  22212044.811    22212056.256
       230.000         184.000
  23076603.203    14233911.56149  11107676.80646  23076603.630    23076614.420
       223.000         169.000
  20885528.645    -5370144.31349  -4156589.97547  20885528.480    20885537.265
       245.000         212.000
 01  2  5 23 47  0.0000000  0  7G 6G 5G 9G30G10G 4G24
  23599537.720   -12078574.69549  -9374880.62445  23599536.681    23599549.900
       217.000         161.000
  20245884.101   -19043143.02549 -14809697.09848  20245883.287    20245891.446
       247.000         218.000
  23967347.760    14519795.97249  11329122.46545  23967348.630    23967362.242
       216.000         159.000
  21222110.907   -21613124.56049 -15960561.71447  21222110.629    21222119.195
       239.000         197.000
  22195738.786   -11853356.64049  -9213007.94846  22195737.810    22195747.658
       230.000         181.000
  23094846.543    14329781.00349  11182380.21946  23094846.301    23094858.225
       222.000         169.000
  20894596.757    -5322491.15649  -4119457.63347  20894596.362    20894605.305
       244.000         212.000
 01  2  5 23 47 30.0000000  0  7G 6G 5G 9G30G10G 4G24
  23586441.053   -12147397.75649  -9428508.84845  23586440.217    23586453.164
       218.000         161.000
  20243752.703   -19054343.45449 -14818424.67648  20243751.852    20243759.931
       247.000         218.000
  23984905.707    14612062.70849  11401018.45645  23984906.245    23984920.165
       215.000         157.000
  21208706.892   -21683562.70349 -16015448.47847  21208706.938    21208715.305
       238.000         197.000
  22179493.038   -11938727.51449  -9279530.51546  22179490.618    22179503.202
       227.000         182.000
  23113107.676    14425743.52449  11257156.13746  23113107.469    23113118.397
       222.000         168.000
  20903730.435    -5274493.18649  -4082056.60247  20903729.959    20903738.897
       245.000         212.000
 01  2  5 23 48  0.0000000  0  7G 6G 5G 9G30G10G 4G24
  23573349.806   -12216192.39049  -9482114.92945  23573349.720    23573361.995
       217.000         162.000
  20241719.941   -19065025.62249 -14826748.41448  20241718.990    20241726.986
       248.000         218.000
  24002469.022    14704357.19349  11472935.99145  24002469.436    24002483.897
       216.000         160.000
  21195373.153   -21753631.42249 -16070047.38447  21195373.099    21195381.533
       239.000         198.000
  22163308.937   -12023774.37049  -9345800.69946  22163307.282    22163319.424
       230.000         182.000
  23131386.168    14521797.05049  11332002.99246  23131385.845    23131397.518
       221.000         167.000
  20912929.306    -5226152.79949  -4044388.75947  20912928.791    20912937.668
       245.000         212.000
 01  2  5 23 48 30.0000000  0  7G 6G 5G 9G30G10G 4G24
  23560263.838   -12284958.92149  -9535699.10746  23560263.149    23560275.644
       218.000         163.000
  20239785.816   -19075189.22149 -14834668.07848  20239785.028    20239793.075
       247.000         218.000
  24020036.972    14796676.13749  11544872.66545  24020036.974    24020050.851
       214.000         157.000
  21182110.150   -21823328.61449 -16124356.78647  21182110.010    21182118.633
       239.000         198.000
  22147187.113   -12108494.64949  -9411816.30946  22147186.722    22147196.704
       233.000         185.000
  23149681.427    14617939.18249  11406918.89046  23149681.759    23149692.711
       221.000         165.000
  20922192.962    -5177471.83049  -4006455.52747  20922192.557    20922201.481
       244.000         211.000
 01  2  5 23 49  0.0000000  0  7G 6G 5G 9G30G10G 4G24
  23547183.283   -12353697.07749  -9589261.17346  23547182.875    23547195.746
       218.000         163.000
  20237950.645   -19084832.88749 -14842182.59548  20237949.909    20237957.899
       247.000         218.000
  24037608.948    14889017.20649  11616826.49445  24037609.939    24037623.654
       216.000         159.000
  21168918.367   -21892651.54449 -16178374.55647  21168918.333    21168926.552
       238.000         198.000
  22131128.082   -12192885.02149  -9477574.89446  22131127.319    22131138.749
       232.000         183.000
  23167993.158    14714167.91049  11481902.24946  23167994.101    23168003.274
       221.000         164.000
  20931520.933    -5128452.64949  -3968258.75247  20931520.690    20931529.449
       245.000         211.000
 01  2  5 23 49 30.0000000  0  7G 6G 5G 9G30G10G 4G24
  23534108.168   -12422406.94249  -9642801.19946  23534107.247    23534120.253
       219.000         163.000
  20236214.639   -19093955.69949 -14849291.25548  20236213.931    20236221.928
       248.000         218.000
  24055184.641    14981377.27049  11688795.20145  24055185.122    24055199.402
       213.000         157.000
  21155798.205   -21961598.05349 -16232098.99747  21155797.856    21155806.678
       239.000         198.000
  22115132.585   -12276942.43249  -9543074.02147  22115129.644    22115141.825
       227.000         188.000
  23186320.930    14810480.88949  11556951.27645  23186320.594    23186331.556
       221.000         162.000
  20940912.900    -5079097.62949  -3929800.27947  20940912.588    20940921.324
       244.000         211.000
 01  2  5 23 50  0.0000000  0  7G 6G 5G 9G30G10G 4G24
  23521038.416   -12491088.26649  -9696318.99446  23521037.614    23521050.450
       217.000         164.000
  20234577.881   -19102556.81549 -14855993.40048  20234577.154    20234585.167
       248.000         218.000
  24072763.477    15073753.68049  11760776.63145  24072764.622    24072778.680
       217.000         160.000
  21142750.153   -22030165.45749 -16285528.03247  21142749.899    21142758.869
       240.000         199.000
  22099200.724   -12360663.56449  -9608311.15146  22099200.892    22099210.881
       234.000         186.000
  23204664.380    14906876.21849  11632064.47245  23204664.175    23204675.943
       220.000         162.000
  20950368.400    -5029408.63849  -3891081.57347  20950368.132    20950377.003
       245.000         211.000
 01  2  5 23 50 30.0000000  0  7G 6G 5G 9G30G10G 4G24
  23507974.301   -12559740.48849  -9749814.11446  23507973.559    23507986.325
       219.000         164.000
  20233040.617   -19110635.02349 -14862288.08848  20233039.878    20233047.889
       248.000         218.000
  24090345.011    15166144.23649  11832769.05345  24090344.062    24090358.705
       211.000         156.000
  21129774.809   -22098350.91949 -16338659.46047  21129774.611    21129783.158
       240.000         199.000
  22083333.807   -12444044.68849  -9673283.27446  22083332.427    22083342.257
       231.000         185.000
  23223023.210    15003352.42349  11707240.67845  23223023.495    23223033.761
       220.000         162.000
  20959887.182    -4979387.12149  -3852103.75547  20959886.842    20959895.502
       245.000         211.000
 01  2  5 23 51  0.0000000  0  7G 6G 5G 9G30G10G 4G24
  23494915.446   -12628364.50349  -9803287.25146  23494914.659    23494926.923
       218.000         164.000
  20231602.861   -19118190.35049 -14868175.33148  20231602.043    20231610.199
       248.000         218.000
  24107928.275    15258544.72749  11904769.28145  24107929.348    24107943.335
       214.000         157.000
  21116872.453   -22166153.01949 -16391492.15547  21116872.024    21116880.614
       240.000         199.000
  22067531.917   -12527083.84149  -9737988.98346  22067529.617    22067542.114
       229.000         185.000
  23241396.793    15099906.21949  11782477.34545  23241396.276    23241408.094
       217.000         161.000
  20969468.595    -4929036.64449  -3812869.60547  20969468.089    20969476.915
       244.000         210.000
 01  2  5 23 51 30.0000000  0  7G 6G 5G 9G30G10G 4G24
  23481862.136   -12696959.44349  -9856737.74346  23481861.156    23481873.554
       218.000         164.000
  20230264.908   -19125221.00749 -14873653.74548  20230264.130    20230272.185
       247.000         218.000
  24125513.137    15350953.63349  11976775.96045  24125513.974    24125527.638
       215.000         157.000
  21104043.604   -22233568.45449 -16444023.55847  21104043.245    21104051.875
       240.000         199.000
  22051795.608   -12609777.36749  -9802425.34146  22051794.770    22051804.437
       232.000         186.000
  23259784.890    15196536.13349  11857773.30145  23259784.556    23259796.974
       217.000         161.000
  20979112.283    -4878358.54249  -3773380.17047  20979111.873    20979120.562
       245.000         210.000
 01  2  5 23 52  0.0000000  0  7G 6G 5G 9G30G10G 4G24
  23468814.478   -12765525.21249  -9910165.49546  23468814.668    23468826.072
       220.000         164.000
  20229026.989   -19131726.12749 -14878722.64548  20229026.197    20229034.312
       247.000         218.000
  24143099.259    15443367.61749  12048786.73745  24143099.320    24143113.791
       214.000         158.000
  21091288.760   -22300594.97349 -16496251.90547  21091288.425    21091296.992
       241.000         199.000
  22036125.968   -12692122.03549  -9866589.87346  22036124.588    22036136.366
       231.000         186.000
  23278187.178    15293240.27549  11933127.11145  23278187.376    23278198.112
       219.000         160.000
  20988817.901    -4827355.05849  -3733637.18447  20988817.474    20988826.229
       244.000         211.000
 01  2  5 23 52 30.0000000  0  7G 6G 5G 9G30G10G 4G24
  23455772.270   -12834062.24149  -9963570.86446  23455771.837    23455783.751
       220.000         164.000
  20227889.120   -19137705.39049 -14883381.78848  20227888.394    20227896.352
       247.000         218.000
  24160685.482    15535783.61149  12120798.91845  24160685.745    24160701.195
       219.000         158.000
  21078608.332   -22367230.58849 -16548175.65747  21078608.013    21078616.618
       241.000         200.000
  22020522.996   -12774115.28349  -9930480.57146  22020520.541    22020531.941
       229.000         185.000
  23296602.984    15390015.97549  12008536.69345  23296602.668    23296616.137
       219.000         159.000
  20998584.971    -4776028.69249  -3693642.60947  20998584.652    20998593.568
       245.000         211.000
 01  2  5 23 53  0.0000000  0  7G 6G 5G 9G30G10G 4G24
  23442735.544   -12902569.56849 -10016953.07846  23442734.672    23442747.064
       218.000         165.000
  20226851.635   -19143157.22449 -14887629.95348  20226850.902    20226858.924
       247.000         218.000
  24178272.046    15628199.72049  12192811.29945  24178271.541    24178286.351
       212.000         154.000
  21066002.890   -22433472.18649 -16599792.38647  21066002.610    21066011.362
       240.000         200.000
  22004987.717   -12855752.87149  -9994094.15346  22004986.195    22004997.333
       229.000         187.000
  23315032.197    15486862.13849  12084001.16845  23315032.529    23315044.292
       219.000         159.000
  21008413.249    -4724380.85049  -3653397.53447  21008413.138    21008421.539
       245.000         211.000
 01  2  5 23 53 30.0000000  0  7G 6G 5G 9G30G10G 4G24
  23429704.526   -12971047.51949 -10070312.38546  23429703.894    23429716.540
       219.000         165.000
  20225914.560   -19148081.32049 -14891466.88948  20225913.751    20225921.906
       247.000         218.000
  24195857.726    15720612.62349  12264821.16245  24195858.776    24195872.652
       218.000         154.000
  21053472.748   -22499318.01249 -16651100.71647  21053472.274    21053481.042
       241.000         200.000
  21989520.449   -12937032.38349 -10057428.68946  21989519.512    21989529.540
       232.000         186.000
  23333474.286    15583775.94349  12159518.36945  23333473.722    23333485.298
       219.000         159.000
  21018302.240    -4672413.76949  -3612903.69947  21018301.852    21018310.663
       244.000         210.000
 01  2  5 23 54  0.0000000  0  7G 6G 5G 9G30G10G 4G24
  23416679.061   -13039496.26649 -10123648.95046  23416678.781    23416691.148
       218.000         165.000
  20225078.053   -19152476.85249 -14894891.95648  20225077.300    20225085.341
       247.000         218.000
  24213442.304    15813019.47749  12336826.30345  24213441.693    24213457.195
       209.000         153.000
  21041018.426   -22564765.55649 -16702098.70547  21041018.176    21041026.800
       241.000         200.000
  21974122.163   -13017950.91549 -10120481.95446  21974119.833    21974131.560
       230.000         187.000
  23351928.937    15680755.45049  12235086.76445  23351929.276    23351940.441
       221.000         159.000
  21028251.416    -4620130.27949  -3572163.31447  21028251.125    21028259.743
       244.000         210.000
 01  2  5 23 54 30.0000000  0  7G 6G 5G 9G30G10G 4G24
  23403659.120   -13107915.37249 -10176962.41746  23403659.004    23403670.399
       219.000         165.000
  20224342.359   -19156342.82449 -14897904.38248  20224341.550    20224349.701
       247.000         218.000
  24231025.110    15905417.66949  12408824.67445  24231025.900    24231039.769
       218.000         155.000
  21028640.361   -22629812.17849 -16752784.28947  21028640.045    21028648.694
       241.000         201.000
  21958793.046   -13098505.23549 -10183251.43846  21958792.015    21958801.293
       230.000         187.000
  23370395.745    15777798.68849  12310704.80745  23370395.172    23370407.562
       219.000         160.000
  21038260.525    -4567532.05049  -3531177.67847  21038260.116    21038268.776
       244.000         210.000
 01  2  5 23 55  0.0000000  0  7G 6G 5G 9G30G10G 4G24
  23390644.995   -13176304.35049 -10230252.38846  23390644.024    23390657.342
       221.000         166.000
  20223707.569   -19159678.42449 -14900503.52948  20223706.889    20223714.931
       247.000         218.000
  24248606.066    15997804.42649  12480814.16845  24248605.670    24248620.404
       210.000         155.000
  21016339.075   -22694455.41749 -16803155.55447  21016338.781    21016347.325
       241.000         201.000
  21943533.620   -13178692.09249 -10245734.54947  21943534.167    21943544.699
       234.000         188.000
  23388874.341    15874903.98849  12386371.22145  23388874.979    23388885.561
       218.000         160.000
  21048328.995    -4514621.49449  -3489948.67647  21048328.465    21048337.412
       243.000         209.000
 01  2  5 23 55 30.0000000  0  7G 6G 5G 9G30G10G 4G24
  23366545.243   -13302949.34949 -10328936.66846  23366544.668    23366556.440
       219.000         166.000
  20212082.392   -19220769.09949 -14948106.62848  20212081.597    20212089.798
       247.000         218.000
  24255092.614    16031891.24949  12507375.08745  24255093.628    24255107.580
       216.000         153.000
  20993023.474   -22816979.17149 -16898628.51747  20993023.382    20993031.333
       242.000         201.000
  21917253.552   -13316794.78249 -10353346.90246  21917251.842    21917261.449
       230.000         186.000
  23396272.837    15913783.19849  12416666.64645  23396272.807    23396284.006
       217.000         160.000
  21047365.076    -4519686.43949  -3493895.39147  21047364.932    21047373.682
       244.000         209.000
 01  2  5 23 56  0.0000000  0  7G 6G 5G 9G30G10G 4G24
  23305638.428   -13623016.23249 -10578339.28946  23305638.292    23305650.135
       221.000         166.000
  20163745.723   -19474779.89649 -15146037.09448  20163744.980    20163753.051
       248.000         218.000
  24224763.504    15872509.68949  12383181.47845  24224762.126    24224778.989
       207.000         151.000
  20932972.816   -23132547.12049 -17144525.53047  20932972.585    20932981.089
       242.000         201.000
  21854231.781   -13647976.00249 -10611410.04247  21854230.131    21854243.325
       231.000         190.000
  23366869.746    15759268.89649  12296265.84145  23366868.983    23366880.561
       218.000         160.000
  21009647.320    -4717894.88949  -3648343.53847  21009646.964    21009656.026
       244.000         209.000
 01  2  5 23 56 30.0000000  0  7G 6G 5G 9G30G10G 4G24
  23265926.577   -13831703.13749 -10740952.32246  23265925.775    23265938.219
       220.000         167.000
  20136699.476   -19616908.84849 -15256786.90648  20136698.754    20136706.846
       248.000         218.000
  24215619.544    15824457.72349  12345738.13245  24215620.315    24215634.383
       216.000         151.000
  20894189.354   -23336355.04849 -17303336.81047  20894189.064    20894197.795
       241.000         202.000
  21812470.848   -13867431.06449 -10782413.92446  21812469.731    21812480.302
       231.000         187.000
  23358666.289    15716159.48849  12262674.01945  23358666.542    23358677.970
       219.000         160.000
  20993176.848    -4804447.85549  -3715787.41447  20993176.306    20993185.500
       243.000         209.000
 01  2  5 23 57  0.0000000  0  7G 6G 5G 9G30G10G 4G24
  23237809.888   -13979457.08949 -10856085.11446  23237808.570    23237821.071
       221.000         167.000
  20121344.010   -19697602.26849 -15319664.86748  20121343.414    20121351.331
       247.000         218.000
  24218060.747    15837285.52849  12355733.65245  24218060.865    24218075.783
       208.000         150.000
  20867073.784   -23478847.90249 -17414370.10947  20867073.646    20867081.948
       241.000         202.000
  21782371.319   -14025604.23949 -10905665.53447  21782370.389    21782380.509
       232.000         190.000
  23362062.612    15734006.31849  12276580.58945  23362062.231    23362074.149
       217.000         160.000
  20988353.454    -4829794.77149  -3735538.25747  20988353.185    20988361.982
       243.000         209.000
 01  2  5 23 57 30.0000000  0  7G 6G 5G 9G30G10G 4G24
  23216035.741   -14093880.78349 -10945246.28946  23216035.423    23216047.179
       222.000         168.000
  20112426.788   -19744462.62149 -15356179.39748  20112426.057    20112434.090
       248.000         218.000
  24226833.810    15883387.72049  12391657.15545  24226835.221    24226850.417
       216.000         154.000
  20846373.892   -23587626.12449 -17499132.27347  20846373.726    20846382.166
       242.000         202.000
  21758681.364   -14150095.31249 -11002671.48647  21758681.688    21758692.377
       236.000         189.000
  23371805.281    15785204.35849  12316475.11245  23371806.205    23371815.569
       220.000         160.000
  20989924.133    -4821540.64449  -3729106.46747  20989923.738    20989932.652
       244.000         208.000
 01  2  5 23 58  0.0000000  0  7G 6G 5G 9G30G10G 4G24
  23197729.748   -14190078.62849 -11020205.48746  23197729.676    23197741.163
       220.000         168.000
  20107073.573   -19772593.88449 -15378099.83548  20107072.843    20107080.869
       247.000         218.000
  24239064.185    15947657.12449  12441736.98445  24239064.205    24239078.639
       207.000         152.000
  20829215.804   -23677791.95849 -17569391.27747  20829215.794    20829223.977
       241.000         202.000
  21738526.994   -14256005.89849 -11085199.03747  21738527.750    21738535.056
       238.000         189.000
  23385019.903    15854647.26149  12370586.41645  23385019.858    23385030.028
       216.000         159.000
  20995014.252    -4794791.95549  -3708263.33747  20995014.034    20995022.691
       243.000         208.000
 01  2  5 23 58 30.0000000  0  7G 6G 5G 9G30G10G 4G24
  23181319.583   -14276314.25349 -11087401.91446  23181319.516    23181330.623
       221.000         168.000
  20103711.959   -19790259.20649 -15391864.98848  20103711.240    20103719.251
       247.000         218.000
  24253177.985    16021827.19549  12499531.57645  24253179.693    24253194.001
       213.000         147.000
  20814027.440   -23757606.94849 -17631584.68847  20814027.409    20814035.754
       242.000         202.000
  21720336.878   -14351596.59849 -11159685.15147  21720333.976    21720346.320
       230.000         189.000
  23400133.456    15934069.32649  12432473.68645  23400133.834    23400145.003
       219.000         159.000
  21002050.805    -4757814.60149  -3679449.81347  21002050.313    21002059.359
       243.000         208.000
